<?xml version="1.0" encoding="UTF-8"?>
<gpx xmlns="http://www.topografix.com/GPX/1/1" xmlns:gpsies="http://www.gpsies.com/GPX/1/0" creator="GPSies http://www.gpsies.com - LaSagrantino2013PercorsoMediofondoKm95" version="1.1" xmlns:xsi="http://www.w3.org/2001/XMLSchema-instance" xsi:schemaLocation="http://www.topografix.com/GPX/1/1 http://www.topografix.com/GPX/1/1/gpx.xsd http://www.gpsies.com/GPX/1/0 http://www.gpsies.com/gpsies.xsd">
  <metadata>
    <name>LaSagrantino2013PercorsoMediofondoKm95</name>
    <link href="http://www.gpsies.com/map.do?fileId=qogxpcaizefolclv">
      <text>LaSagrantino2013PercorsoMediofondoKm95 on GPSies.com</text>
    </link>
    <time>2013-01-30T21:37:28Z</time>
    <extensions>
      <gpsies:property>round trip</gpsies:property>
      <gpsies:trackLengthMeter>96573.0836478905</gpsies:trackLengthMeter>
      <gpsies:totalAscentMeter>1194.771</gpsies:totalAscentMeter>
      <gpsies:totalDescentMeter>1209.55</gpsies:totalDescentMeter>
      <gpsies:minHeightMeter>198.242</gpsies:minHeightMeter>
      <gpsies:maxHeightMeter>554.545</gpsies:maxHeightMeter>
    </extensions>
  </metadata>
  <trk>
    <name>LaSagrantino2013PercorsoMediofondoKm95 on GPSies.com</name>
    <link href="http://www.gpsies.com/map.do?fileId=qogxpcaizefolclv" />
    <trkseg>
      <trkpt lat="42.89575880" lon="12.65338890">
        <ele>456.22000</ele>
        <time>2010-01-01T00:00:00Z</time>
      </trkpt>
      <trkpt lat="42.89565610" lon="12.65313220">
        <ele>456.22100</ele>
        <time>2010-01-01T00:00:03Z</time>
      </trkpt>
      <trkpt lat="42.89550850" lon="12.65296280">
        <ele>456.24400</ele>
        <time>2010-01-01T00:00:06Z</time>
      </trkpt>
      <trkpt lat="42.89534910" lon="12.65279140">
        <ele>456.22200</ele>
        <time>2010-01-01T00:00:09Z</time>
      </trkpt>
      <trkpt lat="42.89514230" lon="12.65260430">
        <ele>456.12800</ele>
        <time>2010-01-01T00:00:13Z</time>
      </trkpt>
      <trkpt lat="42.89498130" lon="12.65243700">
        <ele>456.02400</ele>
        <time>2010-01-01T00:00:16Z</time>
      </trkpt>
      <trkpt lat="42.89488080" lon="12.65222720">
        <ele>455.92000</ele>
        <time>2010-01-01T00:00:19Z</time>
      </trkpt>
      <trkpt lat="42.89481680" lon="12.65206200">
        <ele>455.77200</ele>
        <time>2010-01-01T00:00:22Z</time>
      </trkpt>
      <trkpt lat="42.89467080" lon="12.65180260">
        <ele>455.63600</ele>
        <time>2010-01-01T00:00:25Z</time>
      </trkpt>
      <trkpt lat="42.89446710" lon="12.65154040">
        <ele>455.57300</ele>
        <time>2010-01-01T00:00:30Z</time>
      </trkpt>
      <trkpt lat="42.89434740" lon="12.65135270">
        <ele>455.56200</ele>
        <time>2010-01-01T00:00:33Z</time>
      </trkpt>
      <trkpt lat="42.89421090" lon="12.65095820">
        <ele>455.55000</ele>
        <time>2010-01-01T00:00:38Z</time>
      </trkpt>
      <trkpt lat="42.89414110" lon="12.65064240">
        <ele>455.42700</ele>
        <time>2010-01-01T00:00:42Z</time>
      </trkpt>
      <trkpt lat="42.89404650" lon="12.65024090">
        <ele>455.14600</ele>
        <time>2010-01-01T00:00:47Z</time>
      </trkpt>
      <trkpt lat="42.89393070" lon="12.64995310">
        <ele>454.84300</ele>
        <time>2010-01-01T00:00:51Z</time>
      </trkpt>
      <trkpt lat="42.89382760" lon="12.64987770">
        <ele>454.66700</ele>
        <time>2010-01-01T00:00:53Z</time>
      </trkpt>
      <trkpt lat="42.89365660" lon="12.64975260">
        <ele>454.64900</ele>
        <time>2010-01-01T00:00:56Z</time>
      </trkpt>
      <trkpt lat="42.89355660" lon="12.64938100">
        <ele>455.06400</ele>
        <time>2010-01-01T00:01:00Z</time>
      </trkpt>
      <trkpt lat="42.89348750" lon="12.64913930">
        <ele>456.31600</ele>
        <time>2010-01-01T00:01:03Z</time>
      </trkpt>
      <trkpt lat="42.89339450" lon="12.64881910">
        <ele>458.02500</ele>
        <time>2010-01-01T00:01:07Z</time>
      </trkpt>
      <trkpt lat="42.89331530" lon="12.64854450">
        <ele>459.25500</ele>
        <time>2010-01-01T00:01:11Z</time>
      </trkpt>
      <trkpt lat="42.89326680" lon="12.64836600">
        <ele>459.69200</ele>
        <time>2010-01-01T00:01:13Z</time>
      </trkpt>
      <trkpt lat="42.89322220" lon="12.64819540">
        <ele>459.35500</ele>
        <time>2010-01-01T00:01:15Z</time>
      </trkpt>
      <trkpt lat="42.89315040" lon="12.64791190">
        <ele>458.01800</ele>
        <time>2010-01-01T00:01:19Z</time>
      </trkpt>
      <trkpt lat="42.89308860" lon="12.64768480">
        <ele>456.08100</ele>
        <time>2010-01-01T00:01:22Z</time>
      </trkpt>
      <trkpt lat="42.89301890" lon="12.64746630">
        <ele>454.35200</ele>
        <time>2010-01-01T00:01:24Z</time>
      </trkpt>
      <trkpt lat="42.89294170" lon="12.64709960">
        <ele>452.97100</ele>
        <time>2010-01-01T00:01:29Z</time>
      </trkpt>
      <trkpt lat="42.89288810" lon="12.64686700">
        <ele>451.48300</ele>
        <time>2010-01-01T00:01:32Z</time>
      </trkpt>
      <trkpt lat="42.89282730" lon="12.64652750">
        <ele>449.83000</ele>
        <time>2010-01-01T00:01:36Z</time>
      </trkpt>
      <trkpt lat="42.89274230" lon="12.64618610">
        <ele>448.49300</ele>
        <time>2010-01-01T00:01:40Z</time>
      </trkpt>
      <trkpt lat="42.89263070" lon="12.64581660">
        <ele>447.63500</ele>
        <time>2010-01-01T00:01:45Z</time>
      </trkpt>
      <trkpt lat="42.89255870" lon="12.64556800">
        <ele>447.00000</ele>
        <time>2010-01-01T00:01:48Z</time>
      </trkpt>
      <trkpt lat="42.89249700" lon="12.64533770">
        <ele>446.35100</ele>
        <time>2010-01-01T00:01:51Z</time>
      </trkpt>
      <trkpt lat="42.89243930" lon="12.64511430">
        <ele>445.57200</ele>
        <time>2010-01-01T00:01:53Z</time>
      </trkpt>
      <trkpt lat="42.89238970" lon="12.64474510">
        <ele>444.91600</ele>
        <time>2010-01-01T00:01:58Z</time>
      </trkpt>
      <trkpt lat="42.89239950" lon="12.64448830">
        <ele>444.64400</ele>
        <time>2010-01-01T00:02:01Z</time>
      </trkpt>
      <trkpt lat="42.89253350" lon="12.64407950">
        <ele>444.62700</ele>
        <time>2010-01-01T00:02:06Z</time>
      </trkpt>
      <trkpt lat="42.89267610" lon="12.64387500">
        <ele>444.73800</ele>
        <time>2010-01-01T00:02:09Z</time>
      </trkpt>
      <trkpt lat="42.89287080" lon="12.64375640">
        <ele>444.91400</ele>
        <time>2010-01-01T00:02:13Z</time>
      </trkpt>
      <trkpt lat="42.89305070" lon="12.64371860">
        <ele>445.06100</ele>
        <time>2010-01-01T00:02:16Z</time>
      </trkpt>
      <trkpt lat="42.89335980" lon="12.64364070">
        <ele>445.01700</ele>
        <time>2010-01-01T00:02:21Z</time>
      </trkpt>
      <trkpt lat="42.89354530" lon="12.64350180">
        <ele>444.53100</ele>
        <time>2010-01-01T00:02:24Z</time>
      </trkpt>
      <trkpt lat="42.89371110" lon="12.64317120">
        <ele>443.17500</ele>
        <time>2010-01-01T00:02:29Z</time>
      </trkpt>
      <trkpt lat="42.89376460" lon="12.64292100">
        <ele>441.02300</ele>
        <time>2010-01-01T00:02:32Z</time>
      </trkpt>
      <trkpt lat="42.89373810" lon="12.64266680">
        <ele>439.02800</ele>
        <time>2010-01-01T00:02:35Z</time>
      </trkpt>
      <trkpt lat="42.89365720" lon="12.64229510">
        <ele>437.81800</ele>
        <time>2010-01-01T00:02:40Z</time>
      </trkpt>
      <trkpt lat="42.89360720" lon="12.64209060">
        <ele>437.12600</ele>
        <time>2010-01-01T00:02:42Z</time>
      </trkpt>
      <trkpt lat="42.89358990" lon="12.64195320">
        <ele>436.75400</ele>
        <time>2010-01-01T00:02:44Z</time>
      </trkpt>
      <trkpt lat="42.89360980" lon="12.64183770">
        <ele>436.70400</ele>
        <time>2010-01-01T00:02:45Z</time>
      </trkpt>
      <trkpt lat="42.89360870" lon="12.64167350">
        <ele>436.81100</ele>
        <time>2010-01-01T00:02:47Z</time>
      </trkpt>
      <trkpt lat="42.89353840" lon="12.64153140">
        <ele>436.82900</ele>
        <time>2010-01-01T00:02:49Z</time>
      </trkpt>
      <trkpt lat="42.89341130" lon="12.64125800">
        <ele>436.63000</ele>
        <time>2010-01-01T00:02:53Z</time>
      </trkpt>
      <trkpt lat="42.89328680" lon="12.64094840">
        <ele>436.29200</ele>
        <time>2010-01-01T00:02:57Z</time>
      </trkpt>
      <trkpt lat="42.89318640" lon="12.64069990">
        <ele>435.89700</ele>
        <time>2010-01-01T00:03:00Z</time>
      </trkpt>
      <trkpt lat="42.89304750" lon="12.64034000">
        <ele>435.43800</ele>
        <time>2010-01-01T00:03:05Z</time>
      </trkpt>
      <trkpt lat="42.89291390" lon="12.64008200">
        <ele>435.02800</ele>
        <time>2010-01-01T00:03:09Z</time>
      </trkpt>
      <trkpt lat="42.89279490" lon="12.63989460">
        <ele>434.77200</ele>
        <time>2010-01-01T00:03:12Z</time>
      </trkpt>
      <trkpt lat="42.89266460" lon="12.63969920">
        <ele>434.36500</ele>
        <time>2010-01-01T00:03:15Z</time>
      </trkpt>
      <trkpt lat="42.89254080" lon="12.63949240">
        <ele>433.39000</ele>
        <time>2010-01-01T00:03:18Z</time>
      </trkpt>
      <trkpt lat="42.89241540" lon="12.63919540">
        <ele>431.81000</ele>
        <time>2010-01-01T00:03:22Z</time>
      </trkpt>
      <trkpt lat="42.89230170" lon="12.63862670">
        <ele>430.11400</ele>
        <time>2010-01-01T00:03:29Z</time>
      </trkpt>
      <trkpt lat="42.89225340" lon="12.63801620">
        <ele>428.82900</ele>
        <time>2010-01-01T00:03:36Z</time>
      </trkpt>
      <trkpt lat="42.89231200" lon="12.63747500">
        <ele>428.02700</ele>
        <time>2010-01-01T00:03:42Z</time>
      </trkpt>
      <trkpt lat="42.89240830" lon="12.63708430">
        <ele>427.48400</ele>
        <time>2010-01-01T00:03:47Z</time>
      </trkpt>
      <trkpt lat="42.89249710" lon="12.63668480">
        <ele>427.04600</ele>
        <time>2010-01-01T00:03:52Z</time>
      </trkpt>
      <trkpt lat="42.89255640" lon="12.63630220">
        <ele>425.84400</ele>
        <time>2010-01-01T00:03:57Z</time>
      </trkpt>
      <trkpt lat="42.89263160" lon="12.63570090">
        <ele>422.97500</ele>
        <time>2010-01-01T00:04:04Z</time>
      </trkpt>
      <trkpt lat="42.89271300" lon="12.63510020">
        <ele>419.24000</ele>
        <time>2010-01-01T00:04:11Z</time>
      </trkpt>
      <trkpt lat="42.89279590" lon="12.63472830">
        <ele>416.42200</ele>
        <time>2010-01-01T00:04:16Z</time>
      </trkpt>
      <trkpt lat="42.89292660" lon="12.63422110">
        <ele>415.17800</ele>
        <time>2010-01-01T00:04:22Z</time>
      </trkpt>
      <trkpt lat="42.89293780" lon="12.63388470">
        <ele>415.01400</ele>
        <time>2010-01-01T00:04:26Z</time>
      </trkpt>
      <trkpt lat="42.89293370" lon="12.63331980">
        <ele>414.86800</ele>
        <time>2010-01-01T00:04:33Z</time>
      </trkpt>
      <trkpt lat="42.89300010" lon="12.63271810">
        <ele>413.74900</ele>
        <time>2010-01-01T00:04:40Z</time>
      </trkpt>
      <trkpt lat="42.89309230" lon="12.63240930">
        <ele>411.80200</ele>
        <time>2010-01-01T00:04:44Z</time>
      </trkpt>
      <trkpt lat="42.89324060" lon="12.63192030">
        <ele>410.04700</ele>
        <time>2010-01-01T00:04:50Z</time>
      </trkpt>
      <trkpt lat="42.89333090" lon="12.63161300">
        <ele>408.93900</ele>
        <time>2010-01-01T00:04:54Z</time>
      </trkpt>
      <trkpt lat="42.89347190" lon="12.63123120">
        <ele>407.99500</ele>
        <time>2010-01-01T00:04:59Z</time>
      </trkpt>
      <trkpt lat="42.89357140" lon="12.63097070">
        <ele>406.44300</ele>
        <time>2010-01-01T00:05:02Z</time>
      </trkpt>
      <trkpt lat="42.89374070" lon="12.63048140">
        <ele>404.34900</ele>
        <time>2010-01-01T00:05:09Z</time>
      </trkpt>
      <trkpt lat="42.89384810" lon="12.63012270">
        <ele>402.47500</ele>
        <time>2010-01-01T00:05:13Z</time>
      </trkpt>
      <trkpt lat="42.89382670" lon="12.62974770">
        <ele>401.00100</ele>
        <time>2010-01-01T00:05:17Z</time>
      </trkpt>
      <trkpt lat="42.89375380" lon="12.62916820">
        <ele>399.80700</ele>
        <time>2010-01-01T00:05:24Z</time>
      </trkpt>
      <trkpt lat="42.89369920" lon="12.62878790">
        <ele>398.82100</ele>
        <time>2010-01-01T00:05:29Z</time>
      </trkpt>
      <trkpt lat="42.89356770" lon="12.62825990">
        <ele>397.89400</ele>
        <time>2010-01-01T00:05:35Z</time>
      </trkpt>
      <trkpt lat="42.89334850" lon="12.62780930">
        <ele>397.20600</ele>
        <time>2010-01-01T00:05:42Z</time>
      </trkpt>
      <trkpt lat="42.89312800" lon="12.62736360">
        <ele>396.95200</ele>
        <time>2010-01-01T00:05:48Z</time>
      </trkpt>
      <trkpt lat="42.89301850" lon="12.62683520">
        <ele>397.49500</ele>
        <time>2010-01-01T00:05:55Z</time>
      </trkpt>
      <trkpt lat="42.89300080" lon="12.62621810">
        <ele>399.55100</ele>
        <time>2010-01-01T00:06:02Z</time>
      </trkpt>
      <trkpt lat="42.89297250" lon="12.62559230">
        <ele>402.74200</ele>
        <time>2010-01-01T00:06:09Z</time>
      </trkpt>
      <trkpt lat="42.89306920" lon="12.62495280">
        <ele>405.48200</ele>
        <time>2010-01-01T00:06:17Z</time>
      </trkpt>
      <trkpt lat="42.89325230" lon="12.62456340">
        <ele>406.95600</ele>
        <time>2010-01-01T00:06:22Z</time>
      </trkpt>
      <trkpt lat="42.89357100" lon="12.62406440">
        <ele>407.53700</ele>
        <time>2010-01-01T00:06:30Z</time>
      </trkpt>
      <trkpt lat="42.89389770" lon="12.62365480">
        <ele>407.51300</ele>
        <time>2010-01-01T00:06:37Z</time>
      </trkpt>
      <trkpt lat="42.89410140" lon="12.62339730">
        <ele>407.17800</ele>
        <time>2010-01-01T00:06:42Z</time>
      </trkpt>
      <trkpt lat="42.89442070" lon="12.62297400">
        <ele>406.90700</ele>
        <time>2010-01-01T00:06:49Z</time>
      </trkpt>
      <trkpt lat="42.89471410" lon="12.62251090">
        <ele>406.64700</ele>
        <time>2010-01-01T00:06:56Z</time>
      </trkpt>
      <trkpt lat="42.89489190" lon="12.62220200">
        <ele>406.48100</ele>
        <time>2010-01-01T00:07:00Z</time>
      </trkpt>
      <trkpt lat="42.89505500" lon="12.62188140">
        <ele>406.67100</ele>
        <time>2010-01-01T00:07:05Z</time>
      </trkpt>
      <trkpt lat="42.89516930" lon="12.62153330">
        <ele>407.10700</ele>
        <time>2010-01-01T00:07:10Z</time>
      </trkpt>
      <trkpt lat="42.89521090" lon="12.62101930">
        <ele>407.61300</ele>
        <time>2010-01-01T00:07:16Z</time>
      </trkpt>
      <trkpt lat="42.89519490" lon="12.62062360">
        <ele>408.08100</ele>
        <time>2010-01-01T00:07:20Z</time>
      </trkpt>
      <trkpt lat="42.89514430" lon="12.62023330">
        <ele>408.43900</ele>
        <time>2010-01-01T00:07:25Z</time>
      </trkpt>
      <trkpt lat="42.89502310" lon="12.61970220">
        <ele>408.70500</ele>
        <time>2010-01-01T00:07:31Z</time>
      </trkpt>
      <trkpt lat="42.89495510" lon="12.61937540">
        <ele>408.93900</ele>
        <time>2010-01-01T00:07:35Z</time>
      </trkpt>
      <trkpt lat="42.89497160" lon="12.61903910">
        <ele>409.38800</ele>
        <time>2010-01-01T00:07:39Z</time>
      </trkpt>
      <trkpt lat="42.89502910" lon="12.61852060">
        <ele>410.51100</ele>
        <time>2010-01-01T00:07:45Z</time>
      </trkpt>
      <trkpt lat="42.89510530" lon="12.61798110">
        <ele>412.17900</ele>
        <time>2010-01-01T00:07:52Z</time>
      </trkpt>
      <trkpt lat="42.89515110" lon="12.61760000">
        <ele>413.50800</ele>
        <time>2010-01-01T00:07:56Z</time>
      </trkpt>
      <trkpt lat="42.89522060" lon="12.61700870">
        <ele>414.05200</ele>
        <time>2010-01-01T00:08:03Z</time>
      </trkpt>
      <trkpt lat="42.89526450" lon="12.61660700">
        <ele>414.26100</ele>
        <time>2010-01-01T00:08:08Z</time>
      </trkpt>
      <trkpt lat="42.89533680" lon="12.61598560">
        <ele>414.40400</ele>
        <time>2010-01-01T00:08:16Z</time>
      </trkpt>
      <trkpt lat="42.89539310" lon="12.61557550">
        <ele>414.32800</ele>
        <time>2010-01-01T00:08:21Z</time>
      </trkpt>
      <trkpt lat="42.89544560" lon="12.61518530">
        <ele>414.08100</ele>
        <time>2010-01-01T00:08:25Z</time>
      </trkpt>
      <trkpt lat="42.89549660" lon="12.61479760">
        <ele>414.06000</ele>
        <time>2010-01-01T00:08:30Z</time>
      </trkpt>
      <trkpt lat="42.89556950" lon="12.61419590">
        <ele>414.66700</ele>
        <time>2010-01-01T00:08:37Z</time>
      </trkpt>
      <trkpt lat="42.89563920" lon="12.61362440">
        <ele>415.81600</ele>
        <time>2010-01-01T00:08:44Z</time>
      </trkpt>
      <trkpt lat="42.89565160" lon="12.61305930">
        <ele>416.96100</ele>
        <time>2010-01-01T00:08:50Z</time>
      </trkpt>
      <trkpt lat="42.89558260" lon="12.61267290">
        <ele>417.77200</ele>
        <time>2010-01-01T00:08:55Z</time>
      </trkpt>
      <trkpt lat="42.89548180" lon="12.61229310">
        <ele>418.19400</ele>
        <time>2010-01-01T00:09:00Z</time>
      </trkpt>
      <trkpt lat="42.89529710" lon="12.61171330">
        <ele>418.28000</ele>
        <time>2010-01-01T00:09:07Z</time>
      </trkpt>
      <trkpt lat="42.89509090" lon="12.61122730">
        <ele>418.10000</ele>
        <time>2010-01-01T00:09:14Z</time>
      </trkpt>
      <trkpt lat="42.89491960" lon="12.61092510">
        <ele>417.66300</ele>
        <time>2010-01-01T00:09:18Z</time>
      </trkpt>
      <trkpt lat="42.89474860" lon="12.61060320">
        <ele>417.10400</ele>
        <time>2010-01-01T00:09:23Z</time>
      </trkpt>
      <trkpt lat="42.89460390" lon="12.61022150">
        <ele>416.33200</ele>
        <time>2010-01-01T00:09:28Z</time>
      </trkpt>
      <trkpt lat="42.89453160" lon="12.60971390">
        <ele>415.09000</ele>
        <time>2010-01-01T00:09:34Z</time>
      </trkpt>
      <trkpt lat="42.89465930" lon="12.60934070">
        <ele>413.60000</ele>
        <time>2010-01-01T00:09:39Z</time>
      </trkpt>
      <trkpt lat="42.89490340" lon="12.60916540">
        <ele>412.33900</ele>
        <time>2010-01-01T00:09:43Z</time>
      </trkpt>
      <trkpt lat="42.89494540" lon="12.60887740">
        <ele>411.28600</ele>
        <time>2010-01-01T00:09:47Z</time>
      </trkpt>
      <trkpt lat="42.89480330" lon="12.60869940">
        <ele>410.06600</ele>
        <time>2010-01-01T00:09:50Z</time>
      </trkpt>
      <trkpt lat="42.89460750" lon="12.60850140">
        <ele>408.74200</ele>
        <time>2010-01-01T00:09:54Z</time>
      </trkpt>
      <trkpt lat="42.89432280" lon="12.60815400">
        <ele>407.71400</ele>
        <time>2010-01-01T00:10:00Z</time>
      </trkpt>
      <trkpt lat="42.89416930" lon="12.60787160">
        <ele>407.07000</ele>
        <time>2010-01-01T00:10:04Z</time>
      </trkpt>
      <trkpt lat="42.89401510" lon="12.60757080">
        <ele>406.38300</ele>
        <time>2010-01-01T00:10:08Z</time>
      </trkpt>
      <trkpt lat="42.89379240" lon="12.60712090">
        <ele>405.28300</ele>
        <time>2010-01-01T00:10:15Z</time>
      </trkpt>
      <trkpt lat="42.89359450" lon="12.60670350">
        <ele>403.30700</ele>
        <time>2010-01-01T00:10:20Z</time>
      </trkpt>
      <trkpt lat="42.89336950" lon="12.60643290">
        <ele>400.11800</ele>
        <time>2010-01-01T00:10:25Z</time>
      </trkpt>
      <trkpt lat="42.89326440" lon="12.60629370">
        <ele>396.56100</ele>
        <time>2010-01-01T00:10:28Z</time>
      </trkpt>
      <trkpt lat="42.89331470" lon="12.60610630">
        <ele>393.92100</ele>
        <time>2010-01-01T00:10:30Z</time>
      </trkpt>
      <trkpt lat="42.89342390" lon="12.60610640">
        <ele>392.45500</ele>
        <time>2010-01-01T00:10:32Z</time>
      </trkpt>
      <trkpt lat="42.89355910" lon="12.60633540">
        <ele>391.90400</ele>
        <time>2010-01-01T00:10:35Z</time>
      </trkpt>
      <trkpt lat="42.89371890" lon="12.60665030">
        <ele>391.86000</ele>
        <time>2010-01-01T00:10:40Z</time>
      </trkpt>
      <trkpt lat="42.89383530" lon="12.60688330">
        <ele>391.85400</ele>
        <time>2010-01-01T00:10:43Z</time>
      </trkpt>
      <trkpt lat="42.89396410" lon="12.60713980">
        <ele>391.73700</ele>
        <time>2010-01-01T00:10:47Z</time>
      </trkpt>
      <trkpt lat="42.89410600" lon="12.60743770">
        <ele>391.49400</ele>
        <time>2010-01-01T00:10:51Z</time>
      </trkpt>
      <trkpt lat="42.89433450" lon="12.60784250">
        <ele>390.89200</ele>
        <time>2010-01-01T00:10:57Z</time>
      </trkpt>
      <trkpt lat="42.89461130" lon="12.60824100">
        <ele>389.95200</ele>
        <time>2010-01-01T00:11:03Z</time>
      </trkpt>
      <trkpt lat="42.89496920" lon="12.60864880">
        <ele>389.17800</ele>
        <time>2010-01-01T00:11:11Z</time>
      </trkpt>
      <trkpt lat="42.89525360" lon="12.60889530">
        <ele>388.86400</ele>
        <time>2010-01-01T00:11:16Z</time>
      </trkpt>
      <trkpt lat="42.89568140" lon="12.60923890">
        <ele>388.95300</ele>
        <time>2010-01-01T00:11:24Z</time>
      </trkpt>
      <trkpt lat="42.89613990" lon="12.60950090">
        <ele>389.49000</ele>
        <time>2010-01-01T00:11:32Z</time>
      </trkpt>
      <trkpt lat="42.89647420" lon="12.60962330">
        <ele>391.22400</ele>
        <time>2010-01-01T00:11:38Z</time>
      </trkpt>
      <trkpt lat="42.89682480" lon="12.60975070">
        <ele>394.23200</ele>
        <time>2010-01-01T00:11:43Z</time>
      </trkpt>
      <trkpt lat="42.89733150" lon="12.60995690">
        <ele>396.90200</ele>
        <time>2010-01-01T00:11:52Z</time>
      </trkpt>
      <trkpt lat="42.89779370" lon="12.60988070">
        <ele>398.05300</ele>
        <time>2010-01-01T00:11:59Z</time>
      </trkpt>
      <trkpt lat="42.89824340" lon="12.60951310">
        <ele>398.04200</ele>
        <time>2010-01-01T00:12:08Z</time>
      </trkpt>
      <trkpt lat="42.89857110" lon="12.60920870">
        <ele>397.39800</ele>
        <time>2010-01-01T00:12:14Z</time>
      </trkpt>
      <trkpt lat="42.89908340" lon="12.60871970">
        <ele>396.54500</ele>
        <time>2010-01-01T00:12:24Z</time>
      </trkpt>
      <trkpt lat="42.89960920" lon="12.60825400">
        <ele>395.43200</ele>
        <time>2010-01-01T00:12:34Z</time>
      </trkpt>
      <trkpt lat="42.89994880" lon="12.60796600">
        <ele>393.92500</ele>
        <time>2010-01-01T00:12:40Z</time>
      </trkpt>
      <trkpt lat="42.90027320" lon="12.60768640">
        <ele>392.17100</ele>
        <time>2010-01-01T00:12:47Z</time>
      </trkpt>
      <trkpt lat="42.90073640" lon="12.60727950">
        <ele>390.31900</ele>
        <time>2010-01-01T00:12:55Z</time>
      </trkpt>
      <trkpt lat="42.90119440" lon="12.60698360">
        <ele>388.49000</ele>
        <time>2010-01-01T00:13:04Z</time>
      </trkpt>
      <trkpt lat="42.90167640" lon="12.60687740">
        <ele>386.93500</ele>
        <time>2010-01-01T00:13:11Z</time>
      </trkpt>
      <trkpt lat="42.90201820" lon="12.60684020">
        <ele>384.87600</ele>
        <time>2010-01-01T00:13:17Z</time>
      </trkpt>
      <trkpt lat="42.90252090" lon="12.60678090">
        <ele>381.18800</ele>
        <time>2010-01-01T00:13:25Z</time>
      </trkpt>
      <trkpt lat="42.90286000" lon="12.60673990">
        <ele>376.71200</ele>
        <time>2010-01-01T00:13:30Z</time>
      </trkpt>
      <trkpt lat="42.90319700" lon="12.60669390">
        <ele>373.41200</ele>
        <time>2010-01-01T00:13:36Z</time>
      </trkpt>
      <trkpt lat="42.90369080" lon="12.60678700">
        <ele>371.67700</ele>
        <time>2010-01-01T00:13:44Z</time>
      </trkpt>
      <trkpt lat="42.90411500" lon="12.60714350">
        <ele>370.74400</ele>
        <time>2010-01-01T00:13:52Z</time>
      </trkpt>
      <trkpt lat="42.90451520" lon="12.60752210">
        <ele>369.77200</ele>
        <time>2010-01-01T00:14:00Z</time>
      </trkpt>
      <trkpt lat="42.90476650" lon="12.60776480">
        <ele>368.52200</ele>
        <time>2010-01-01T00:14:04Z</time>
      </trkpt>
      <trkpt lat="42.90518180" lon="12.60802570">
        <ele>367.50300</ele>
        <time>2010-01-01T00:14:12Z</time>
      </trkpt>
      <trkpt lat="42.90559110" lon="12.60791750">
        <ele>367.02400</ele>
        <time>2010-01-01T00:14:18Z</time>
      </trkpt>
      <trkpt lat="42.90585250" lon="12.60772000">
        <ele>366.65700</ele>
        <time>2010-01-01T00:14:23Z</time>
      </trkpt>
      <trkpt lat="42.90608670" lon="12.60750750">
        <ele>365.98800</ele>
        <time>2010-01-01T00:14:28Z</time>
      </trkpt>
      <trkpt lat="42.90629450" lon="12.60729910">
        <ele>365.14900</ele>
        <time>2010-01-01T00:14:32Z</time>
      </trkpt>
      <trkpt lat="42.90635420" lon="12.60720880">
        <ele>364.35300</ele>
        <time>2010-01-01T00:14:33Z</time>
      </trkpt>
      <trkpt lat="42.90649650" lon="12.60705780">
        <ele>363.04100</ele>
        <time>2010-01-01T00:14:36Z</time>
      </trkpt>
      <trkpt lat="42.90660980" lon="12.60697330">
        <ele>362.51300</ele>
        <time>2010-01-01T00:14:38Z</time>
      </trkpt>
      <trkpt lat="42.90684300" lon="12.60685400">
        <ele>361.89200</ele>
        <time>2010-01-01T00:14:42Z</time>
      </trkpt>
      <trkpt lat="42.90705900" lon="12.60679220">
        <ele>361.09400</ele>
        <time>2010-01-01T00:14:46Z</time>
      </trkpt>
      <trkpt lat="42.90729340" lon="12.60677220">
        <ele>360.14300</ele>
        <time>2010-01-01T00:14:50Z</time>
      </trkpt>
      <trkpt lat="42.90766090" lon="12.60678920">
        <ele>359.39100</ele>
        <time>2010-01-01T00:14:55Z</time>
      </trkpt>
      <trkpt lat="42.90801920" lon="12.60698480">
        <ele>359.01300</ele>
        <time>2010-01-01T00:15:02Z</time>
      </trkpt>
      <trkpt lat="42.90819440" lon="12.60729450">
        <ele>358.78700</ele>
        <time>2010-01-01T00:15:06Z</time>
      </trkpt>
      <trkpt lat="42.90823260" lon="12.60788830">
        <ele>358.61400</ele>
        <time>2010-01-01T00:15:13Z</time>
      </trkpt>
      <trkpt lat="42.90808170" lon="12.60846740">
        <ele>358.32300</ele>
        <time>2010-01-01T00:15:20Z</time>
      </trkpt>
      <trkpt lat="42.90780560" lon="12.60904920">
        <ele>357.77600</ele>
        <time>2010-01-01T00:15:29Z</time>
      </trkpt>
      <trkpt lat="42.90763050" lon="12.60943530">
        <ele>357.22500</ele>
        <time>2010-01-01T00:15:34Z</time>
      </trkpt>
      <trkpt lat="42.90728320" lon="12.60988360">
        <ele>356.89300</ele>
        <time>2010-01-01T00:15:42Z</time>
      </trkpt>
      <trkpt lat="42.90690490" lon="12.61012400">
        <ele>356.36100</ele>
        <time>2010-01-01T00:15:48Z</time>
      </trkpt>
      <trkpt lat="42.90658970" lon="12.61034400">
        <ele>355.33600</ele>
        <time>2010-01-01T00:15:54Z</time>
      </trkpt>
      <trkpt lat="42.90653910" lon="12.61070440">
        <ele>354.29000</ele>
        <time>2010-01-01T00:15:58Z</time>
      </trkpt>
      <trkpt lat="42.90679330" lon="12.61089470">
        <ele>353.34100</ele>
        <time>2010-01-01T00:16:03Z</time>
      </trkpt>
      <trkpt lat="42.90719250" lon="12.61081500">
        <ele>351.98700</ele>
        <time>2010-01-01T00:16:09Z</time>
      </trkpt>
      <trkpt lat="42.90750350" lon="12.61068430">
        <ele>350.45800</ele>
        <time>2010-01-01T00:16:14Z</time>
      </trkpt>
      <trkpt lat="42.90802270" lon="12.61049140">
        <ele>349.38000</ele>
        <time>2010-01-01T00:16:23Z</time>
      </trkpt>
      <trkpt lat="42.90839800" lon="12.61038410">
        <ele>348.39100</ele>
        <time>2010-01-01T00:16:29Z</time>
      </trkpt>
      <trkpt lat="42.90893610" lon="12.61017090">
        <ele>346.88800</ele>
        <time>2010-01-01T00:16:38Z</time>
      </trkpt>
      <trkpt lat="42.90928060" lon="12.60998290">
        <ele>345.08400</ele>
        <time>2010-01-01T00:16:44Z</time>
      </trkpt>
      <trkpt lat="42.90964710" lon="12.60984350">
        <ele>343.31900</ele>
        <time>2010-01-01T00:16:50Z</time>
      </trkpt>
      <trkpt lat="42.91018660" lon="12.60967930">
        <ele>341.54300</ele>
        <time>2010-01-01T00:16:59Z</time>
      </trkpt>
      <trkpt lat="42.91051730" lon="12.60949270">
        <ele>339.72800</ele>
        <time>2010-01-01T00:17:05Z</time>
      </trkpt>
      <trkpt lat="42.91098480" lon="12.60914490">
        <ele>337.60700</ele>
        <time>2010-01-01T00:17:13Z</time>
      </trkpt>
      <trkpt lat="42.91148220" lon="12.60910770">
        <ele>335.27900</ele>
        <time>2010-01-01T00:17:21Z</time>
      </trkpt>
      <trkpt lat="42.91193490" lon="12.60926940">
        <ele>333.46300</ele>
        <time>2010-01-01T00:17:29Z</time>
      </trkpt>
      <trkpt lat="42.91234710" lon="12.60914330">
        <ele>332.13400</ele>
        <time>2010-01-01T00:17:36Z</time>
      </trkpt>
      <trkpt lat="42.91271290" lon="12.60890350">
        <ele>329.92300</ele>
        <time>2010-01-01T00:17:42Z</time>
      </trkpt>
      <trkpt lat="42.91302440" lon="12.60890070">
        <ele>325.67200</ele>
        <time>2010-01-01T00:17:47Z</time>
      </trkpt>
      <trkpt lat="42.91314400" lon="12.60910590">
        <ele>320.18500</ele>
        <time>2010-01-01T00:17:50Z</time>
      </trkpt>
      <trkpt lat="42.91328220" lon="12.60966750">
        <ele>315.66600</ele>
        <time>2010-01-01T00:17:57Z</time>
      </trkpt>
      <trkpt lat="42.91337060" lon="12.61009990">
        <ele>313.28600</ele>
        <time>2010-01-01T00:18:02Z</time>
      </trkpt>
      <trkpt lat="42.91351230" lon="12.61076620">
        <ele>312.10900</ele>
        <time>2010-01-01T00:18:10Z</time>
      </trkpt>
      <trkpt lat="42.91362870" lon="12.61118600">
        <ele>310.80800</ele>
        <time>2010-01-01T00:18:16Z</time>
      </trkpt>
      <trkpt lat="42.91394480" lon="12.61165100">
        <ele>309.07900</ele>
        <time>2010-01-01T00:18:23Z</time>
      </trkpt>
      <trkpt lat="42.91424630" lon="12.61185320">
        <ele>307.40200</ele>
        <time>2010-01-01T00:18:29Z</time>
      </trkpt>
      <trkpt lat="42.91450910" lon="12.61206480">
        <ele>306.30900</ele>
        <time>2010-01-01T00:18:33Z</time>
      </trkpt>
      <trkpt lat="42.91473500" lon="12.61222740">
        <ele>305.96500</ele>
        <time>2010-01-01T00:18:38Z</time>
      </trkpt>
      <trkpt lat="42.91505640" lon="12.61218700">
        <ele>306.00600</ele>
        <time>2010-01-01T00:18:43Z</time>
      </trkpt>
      <trkpt lat="42.91525010" lon="12.61178540">
        <ele>306.06400</ele>
        <time>2010-01-01T00:18:48Z</time>
      </trkpt>
      <trkpt lat="42.91525280" lon="12.61144580">
        <ele>305.61600</ele>
        <time>2010-01-01T00:18:52Z</time>
      </trkpt>
      <trkpt lat="42.91517470" lon="12.61084710">
        <ele>302.79800</ele>
        <time>2010-01-01T00:18:59Z</time>
      </trkpt>
      <trkpt lat="42.91511190" lon="12.61045420">
        <ele>296.76500</ele>
        <time>2010-01-01T00:19:04Z</time>
      </trkpt>
      <trkpt lat="42.91513130" lon="12.61000990">
        <ele>290.40700</ele>
        <time>2010-01-01T00:19:09Z</time>
      </trkpt>
      <trkpt lat="42.91535190" lon="12.60988150">
        <ele>286.28200</ele>
        <time>2010-01-01T00:19:13Z</time>
      </trkpt>
      <trkpt lat="42.91554170" lon="12.61009020">
        <ele>283.77100</ele>
        <time>2010-01-01T00:19:17Z</time>
      </trkpt>
      <trkpt lat="42.91567160" lon="12.61045920">
        <ele>281.99100</ele>
        <time>2010-01-01T00:19:22Z</time>
      </trkpt>
      <trkpt lat="42.91577110" lon="12.61078320">
        <ele>280.62500</ele>
        <time>2010-01-01T00:19:26Z</time>
      </trkpt>
      <trkpt lat="42.91605600" lon="12.61109140">
        <ele>279.47500</ele>
        <time>2010-01-01T00:19:32Z</time>
      </trkpt>
      <trkpt lat="42.91642270" lon="12.61129470">
        <ele>278.39600</ele>
        <time>2010-01-01T00:19:38Z</time>
      </trkpt>
      <trkpt lat="42.91669680" lon="12.61173810">
        <ele>277.18500</ele>
        <time>2010-01-01T00:19:45Z</time>
      </trkpt>
      <trkpt lat="42.91684880" lon="12.61210290">
        <ele>275.99500</ele>
        <time>2010-01-01T00:19:50Z</time>
      </trkpt>
      <trkpt lat="42.91702560" lon="12.61275110">
        <ele>275.09800</ele>
        <time>2010-01-01T00:19:58Z</time>
      </trkpt>
      <trkpt lat="42.91713080" lon="12.61316930">
        <ele>274.05400</ele>
        <time>2010-01-01T00:20:03Z</time>
      </trkpt>
      <trkpt lat="42.91724830" lon="12.61360280">
        <ele>272.09600</ele>
        <time>2010-01-01T00:20:09Z</time>
      </trkpt>
      <trkpt lat="42.91736320" lon="12.61396490">
        <ele>269.18200</ele>
        <time>2010-01-01T00:20:13Z</time>
      </trkpt>
      <trkpt lat="42.91769490" lon="12.61428270">
        <ele>266.00400</ele>
        <time>2010-01-01T00:20:20Z</time>
      </trkpt>
      <trkpt lat="42.91817180" lon="12.61432890">
        <ele>262.92300</ele>
        <time>2010-01-01T00:20:27Z</time>
      </trkpt>
      <trkpt lat="42.91850600" lon="12.61434160">
        <ele>260.25800</ele>
        <time>2010-01-01T00:20:33Z</time>
      </trkpt>
      <trkpt lat="42.91886160" lon="12.61436430">
        <ele>258.44400</ele>
        <time>2010-01-01T00:20:38Z</time>
      </trkpt>
      <trkpt lat="42.91923470" lon="12.61435120">
        <ele>256.07700</ele>
        <time>2010-01-01T00:20:44Z</time>
      </trkpt>
      <trkpt lat="42.91977900" lon="12.61418660">
        <ele>251.95200</ele>
        <time>2010-01-01T00:20:53Z</time>
      </trkpt>
      <trkpt lat="42.92013350" lon="12.61405560">
        <ele>247.85800</ele>
        <time>2010-01-01T00:20:59Z</time>
      </trkpt>
      <trkpt lat="42.92049650" lon="12.61393090">
        <ele>245.47100</ele>
        <time>2010-01-01T00:21:05Z</time>
      </trkpt>
      <trkpt lat="42.92086810" lon="12.61383830">
        <ele>244.07200</ele>
        <time>2010-01-01T00:21:11Z</time>
      </trkpt>
      <trkpt lat="42.92145440" lon="12.61374650">
        <ele>242.30900</ele>
        <time>2010-01-01T00:21:21Z</time>
      </trkpt>
      <trkpt lat="42.92185280" lon="12.61378930">
        <ele>239.59900</ele>
        <time>2010-01-01T00:21:27Z</time>
      </trkpt>
      <trkpt lat="42.92240480" lon="12.61405910">
        <ele>236.77700</ele>
        <time>2010-01-01T00:21:37Z</time>
      </trkpt>
      <trkpt lat="42.92295260" lon="12.61443810">
        <ele>234.45700</ele>
        <time>2010-01-01T00:21:46Z</time>
      </trkpt>
      <trkpt lat="42.92331130" lon="12.61470570">
        <ele>232.45000</ele>
        <time>2010-01-01T00:21:53Z</time>
      </trkpt>
      <trkpt lat="42.92383080" lon="12.61511790">
        <ele>230.64500</ele>
        <time>2010-01-01T00:22:03Z</time>
      </trkpt>
      <trkpt lat="42.92413330" lon="12.61534430">
        <ele>228.91400</ele>
        <time>2010-01-01T00:22:08Z</time>
      </trkpt>
      <trkpt lat="42.92458250" lon="12.61548090">
        <ele>227.26400</ele>
        <time>2010-01-01T00:22:15Z</time>
      </trkpt>
      <trkpt lat="42.92501860" lon="12.61527500">
        <ele>226.09700</ele>
        <time>2010-01-01T00:22:23Z</time>
      </trkpt>
      <trkpt lat="42.92543660" lon="12.61487370">
        <ele>225.17100</ele>
        <time>2010-01-01T00:22:31Z</time>
      </trkpt>
      <trkpt lat="42.92587650" lon="12.61444560">
        <ele>223.35000</ele>
        <time>2010-01-01T00:22:40Z</time>
      </trkpt>
      <trkpt lat="42.92616200" lon="12.61416400">
        <ele>220.18700</ele>
        <time>2010-01-01T00:22:45Z</time>
      </trkpt>
      <trkpt lat="42.92646070" lon="12.61388110">
        <ele>215.95100</ele>
        <time>2010-01-01T00:22:51Z</time>
      </trkpt>
      <trkpt lat="42.92686690" lon="12.61350560">
        <ele>211.10800</ele>
        <time>2010-01-01T00:22:59Z</time>
      </trkpt>
      <trkpt lat="42.92727240" lon="12.61313860">
        <ele>207.05100</ele>
        <time>2010-01-01T00:23:07Z</time>
      </trkpt>
      <trkpt lat="42.92765890" lon="12.61279430">
        <ele>204.99500</ele>
        <time>2010-01-01T00:23:14Z</time>
      </trkpt>
      <trkpt lat="42.92800170" lon="12.61247320">
        <ele>204.50700</ele>
        <time>2010-01-01T00:23:21Z</time>
      </trkpt>
      <trkpt lat="42.92837190" lon="12.61212740">
        <ele>204.68700</ele>
        <time>2010-01-01T00:23:28Z</time>
      </trkpt>
      <trkpt lat="42.92874380" lon="12.61179960">
        <ele>204.80900</ele>
        <time>2010-01-01T00:23:35Z</time>
      </trkpt>
      <trkpt lat="42.92909690" lon="12.61149120">
        <ele>204.51300</ele>
        <time>2010-01-01T00:23:42Z</time>
      </trkpt>
      <trkpt lat="42.92932550" lon="12.61128530">
        <ele>203.92300</ele>
        <time>2010-01-01T00:23:46Z</time>
      </trkpt>
      <trkpt lat="42.92965810" lon="12.61099650">
        <ele>203.36300</ele>
        <time>2010-01-01T00:23:52Z</time>
      </trkpt>
      <trkpt lat="42.92987160" lon="12.61080380">
        <ele>203.03100</ele>
        <time>2010-01-01T00:23:57Z</time>
      </trkpt>
      <trkpt lat="42.93016800" lon="12.61057340">
        <ele>203.02000</ele>
        <time>2010-01-01T00:24:02Z</time>
      </trkpt>
      <trkpt lat="42.93033610" lon="12.61042310">
        <ele>203.25100</ele>
        <time>2010-01-01T00:24:05Z</time>
      </trkpt>
      <trkpt lat="42.93059390" lon="12.61018890">
        <ele>203.70800</ele>
        <time>2010-01-01T00:24:10Z</time>
      </trkpt>
      <trkpt lat="42.93077660" lon="12.61006990">
        <ele>204.55800</ele>
        <time>2010-01-01T00:24:13Z</time>
      </trkpt>
      <trkpt lat="42.93099420" lon="12.60998210">
        <ele>205.67300</ele>
        <time>2010-01-01T00:24:17Z</time>
      </trkpt>
      <trkpt lat="42.93132010" lon="12.61014950">
        <ele>206.52800</ele>
        <time>2010-01-01T00:24:23Z</time>
      </trkpt>
      <trkpt lat="42.93154520" lon="12.61030560">
        <ele>206.88500</ele>
        <time>2010-01-01T00:24:27Z</time>
      </trkpt>
      <trkpt lat="42.93178090" lon="12.61045730">
        <ele>206.90900</ele>
        <time>2010-01-01T00:24:31Z</time>
      </trkpt>
      <trkpt lat="42.93216820" lon="12.61068740">
        <ele>206.79300</ele>
        <time>2010-01-01T00:24:38Z</time>
      </trkpt>
      <trkpt lat="42.93259550" lon="12.61095290">
        <ele>206.15500</ele>
        <time>2010-01-01T00:24:45Z</time>
      </trkpt>
      <trkpt lat="42.93305510" lon="12.61122650">
        <ele>204.77400</ele>
        <time>2010-01-01T00:24:53Z</time>
      </trkpt>
      <trkpt lat="42.93336870" lon="12.61140330">
        <ele>203.43200</ele>
        <time>2010-01-01T00:24:59Z</time>
      </trkpt>
      <trkpt lat="42.93384430" lon="12.61166610">
        <ele>202.81500</ele>
        <time>2010-01-01T00:25:07Z</time>
      </trkpt>
      <trkpt lat="42.93414620" lon="12.61184070">
        <ele>203.22300</ele>
        <time>2010-01-01T00:25:12Z</time>
      </trkpt>
      <trkpt lat="42.93442610" lon="12.61199930">
        <ele>204.66900</ele>
        <time>2010-01-01T00:25:17Z</time>
      </trkpt>
      <trkpt lat="42.93480430" lon="12.61222720">
        <ele>206.25600</ele>
        <time>2010-01-01T00:25:24Z</time>
      </trkpt>
      <trkpt lat="42.93495840" lon="12.61232570">
        <ele>207.28200</ele>
        <time>2010-01-01T00:25:26Z</time>
      </trkpt>
      <trkpt lat="42.93509570" lon="12.61234780">
        <ele>208.02400</ele>
        <time>2010-01-01T00:25:28Z</time>
      </trkpt>
      <trkpt lat="42.93523130" lon="12.61220510">
        <ele>208.69000</ele>
        <time>2010-01-01T00:25:31Z</time>
      </trkpt>
      <trkpt lat="42.93537910" lon="12.61199680">
        <ele>209.17100</ele>
        <time>2010-01-01T00:25:35Z</time>
      </trkpt>
      <trkpt lat="42.93559340" lon="12.61173020">
        <ele>209.56000</ele>
        <time>2010-01-01T00:25:39Z</time>
      </trkpt>
      <trkpt lat="42.93584570" lon="12.61131150">
        <ele>210.31900</ele>
        <time>2010-01-01T00:25:46Z</time>
      </trkpt>
      <trkpt lat="42.93600700" lon="12.61099840">
        <ele>211.53300</ele>
        <time>2010-01-01T00:25:50Z</time>
      </trkpt>
      <trkpt lat="42.93613910" lon="12.61069070">
        <ele>212.78600</ele>
        <time>2010-01-01T00:25:54Z</time>
      </trkpt>
      <trkpt lat="42.93629900" lon="12.61020770">
        <ele>213.75500</ele>
        <time>2010-01-01T00:26:01Z</time>
      </trkpt>
      <trkpt lat="42.93640940" lon="12.60976960">
        <ele>214.12600</ele>
        <time>2010-01-01T00:26:06Z</time>
      </trkpt>
      <trkpt lat="42.93651760" lon="12.60957430">
        <ele>213.75700</ele>
        <time>2010-01-01T00:26:09Z</time>
      </trkpt>
      <trkpt lat="42.93677200" lon="12.60943320">
        <ele>213.03200</ele>
        <time>2010-01-01T00:26:13Z</time>
      </trkpt>
      <trkpt lat="42.93700870" lon="12.60939310">
        <ele>212.29400</ele>
        <time>2010-01-01T00:26:17Z</time>
      </trkpt>
      <trkpt lat="42.93723610" lon="12.60934460">
        <ele>211.66300</ele>
        <time>2010-01-01T00:26:21Z</time>
      </trkpt>
      <trkpt lat="42.93764920" lon="12.60928810">
        <ele>211.24400</ele>
        <time>2010-01-01T00:26:27Z</time>
      </trkpt>
      <trkpt lat="42.93793680" lon="12.60925070">
        <ele>211.10800</ele>
        <time>2010-01-01T00:26:32Z</time>
      </trkpt>
      <trkpt lat="42.93824140" lon="12.60922180">
        <ele>211.21300</ele>
        <time>2010-01-01T00:26:37Z</time>
      </trkpt>
      <trkpt lat="42.93854320" lon="12.60918850">
        <ele>211.84100</ele>
        <time>2010-01-01T00:26:42Z</time>
      </trkpt>
      <trkpt lat="42.93900930" lon="12.60915040">
        <ele>213.23900</ele>
        <time>2010-01-01T00:26:49Z</time>
      </trkpt>
      <trkpt lat="42.93946700" lon="12.60911560">
        <ele>214.78100</ele>
        <time>2010-01-01T00:26:57Z</time>
      </trkpt>
      <trkpt lat="42.93978460" lon="12.60910340">
        <ele>215.79300</ele>
        <time>2010-01-01T00:27:02Z</time>
      </trkpt>
      <trkpt lat="42.94027270" lon="12.60906180">
        <ele>216.74900</ele>
        <time>2010-01-01T00:27:09Z</time>
      </trkpt>
      <trkpt lat="42.94063010" lon="12.60902310">
        <ele>218.17800</ele>
        <time>2010-01-01T00:27:15Z</time>
      </trkpt>
      <trkpt lat="42.94116370" lon="12.60895120">
        <ele>219.79400</ele>
        <time>2010-01-01T00:27:24Z</time>
      </trkpt>
      <trkpt lat="42.94167930" lon="12.60888220">
        <ele>221.03500</ele>
        <time>2010-01-01T00:27:32Z</time>
      </trkpt>
      <trkpt lat="42.94219500" lon="12.60881860">
        <ele>221.77600</ele>
        <time>2010-01-01T00:27:40Z</time>
      </trkpt>
      <trkpt lat="42.94271890" lon="12.60875540">
        <ele>222.16700</ele>
        <time>2010-01-01T00:27:49Z</time>
      </trkpt>
      <trkpt lat="42.94308390" lon="12.60870890">
        <ele>222.25000</ele>
        <time>2010-01-01T00:27:55Z</time>
      </trkpt>
      <trkpt lat="42.94360140" lon="12.60857560">
        <ele>221.72000</ele>
        <time>2010-01-01T00:28:03Z</time>
      </trkpt>
      <trkpt lat="42.94394150" lon="12.60842820">
        <ele>220.64400</ele>
        <time>2010-01-01T00:28:09Z</time>
      </trkpt>
      <trkpt lat="42.94422540" lon="12.60819590">
        <ele>219.58100</ele>
        <time>2010-01-01T00:28:14Z</time>
      </trkpt>
      <trkpt lat="42.94451190" lon="12.60794270">
        <ele>218.53800</ele>
        <time>2010-01-01T00:28:20Z</time>
      </trkpt>
      <trkpt lat="42.94500740" lon="12.60749860">
        <ele>217.02500</ele>
        <time>2010-01-01T00:28:29Z</time>
      </trkpt>
      <trkpt lat="42.94549370" lon="12.60703870">
        <ele>215.30700</ele>
        <time>2010-01-01T00:28:39Z</time>
      </trkpt>
      <trkpt lat="42.94597670" lon="12.60658660">
        <ele>214.07300</ele>
        <time>2010-01-01T00:28:48Z</time>
      </trkpt>
      <trkpt lat="42.94628860" lon="12.60631580">
        <ele>213.49600</ele>
        <time>2010-01-01T00:28:54Z</time>
      </trkpt>
      <trkpt lat="42.94675400" lon="12.60589670">
        <ele>213.35500</ele>
        <time>2010-01-01T00:29:03Z</time>
      </trkpt>
      <trkpt lat="42.94706070" lon="12.60561550">
        <ele>213.44600</ele>
        <time>2010-01-01T00:29:09Z</time>
      </trkpt>
      <trkpt lat="42.94750140" lon="12.60519010">
        <ele>213.61600</ele>
        <time>2010-01-01T00:29:17Z</time>
      </trkpt>
      <trkpt lat="42.94777850" lon="12.60491430">
        <ele>214.20900</ele>
        <time>2010-01-01T00:29:23Z</time>
      </trkpt>
      <trkpt lat="42.94809960" lon="12.60433120">
        <ele>215.45200</ele>
        <time>2010-01-01T00:29:31Z</time>
      </trkpt>
      <trkpt lat="42.94834490" lon="12.60370190">
        <ele>216.67500</ele>
        <time>2010-01-01T00:29:40Z</time>
      </trkpt>
      <trkpt lat="42.94846310" lon="12.60326150">
        <ele>217.24100</ele>
        <time>2010-01-01T00:29:45Z</time>
      </trkpt>
      <trkpt lat="42.94864520" lon="12.60261570">
        <ele>216.83300</ele>
        <time>2010-01-01T00:29:53Z</time>
      </trkpt>
      <trkpt lat="42.94882690" lon="12.60194640">
        <ele>215.37000</ele>
        <time>2010-01-01T00:30:02Z</time>
      </trkpt>
      <trkpt lat="42.94896100" lon="12.60150410">
        <ele>213.71900</ele>
        <time>2010-01-01T00:30:07Z</time>
      </trkpt>
      <trkpt lat="42.94918450" lon="12.60085070">
        <ele>212.79600</ele>
        <time>2010-01-01T00:30:16Z</time>
      </trkpt>
      <trkpt lat="42.94956120" lon="12.60033950">
        <ele>212.48500</ele>
        <time>2010-01-01T00:30:24Z</time>
      </trkpt>
      <trkpt lat="42.95003570" lon="12.59998290">
        <ele>212.44000</ele>
        <time>2010-01-01T00:30:33Z</time>
      </trkpt>
      <trkpt lat="42.95057520" lon="12.59963030">
        <ele>212.86800</ele>
        <time>2010-01-01T00:30:42Z</time>
      </trkpt>
      <trkpt lat="42.95094600" lon="12.59940250">
        <ele>214.06900</ele>
        <time>2010-01-01T00:30:49Z</time>
      </trkpt>
      <trkpt lat="42.95151810" lon="12.59919830">
        <ele>215.56500</ele>
        <time>2010-01-01T00:30:58Z</time>
      </trkpt>
      <trkpt lat="42.95209030" lon="12.59927100">
        <ele>216.57200</ele>
        <time>2010-01-01T00:31:08Z</time>
      </trkpt>
      <trkpt lat="42.95246650" lon="12.59940700">
        <ele>216.78800</ele>
        <time>2010-01-01T00:31:14Z</time>
      </trkpt>
      <trkpt lat="42.95283470" lon="12.59953550">
        <ele>216.45300</ele>
        <time>2010-01-01T00:31:20Z</time>
      </trkpt>
      <trkpt lat="42.95335000" lon="12.59956870">
        <ele>215.26800</ele>
        <time>2010-01-01T00:31:28Z</time>
      </trkpt>
      <trkpt lat="42.95384310" lon="12.59930060">
        <ele>212.72400</ele>
        <time>2010-01-01T00:31:37Z</time>
      </trkpt>
      <trkpt lat="42.95414180" lon="12.59900970">
        <ele>209.37500</ele>
        <time>2010-01-01T00:31:43Z</time>
      </trkpt>
      <trkpt lat="42.95461630" lon="12.59852700">
        <ele>206.25900</ele>
        <time>2010-01-01T00:31:52Z</time>
      </trkpt>
      <trkpt lat="42.95506140" lon="12.59809950">
        <ele>203.97600</ele>
        <time>2010-01-01T00:32:01Z</time>
      </trkpt>
      <trkpt lat="42.95533830" lon="12.59784370">
        <ele>202.85400</ele>
        <time>2010-01-01T00:32:06Z</time>
      </trkpt>
      <trkpt lat="42.95570990" lon="12.59749820">
        <ele>202.34100</ele>
        <time>2010-01-01T00:32:13Z</time>
      </trkpt>
      <trkpt lat="42.95604060" lon="12.59718130">
        <ele>201.65500</ele>
        <time>2010-01-01T00:32:20Z</time>
      </trkpt>
      <trkpt lat="42.95621060" lon="12.59701830">
        <ele>200.93900</ele>
        <time>2010-01-01T00:32:23Z</time>
      </trkpt>
      <trkpt lat="42.95633500" lon="12.59689530">
        <ele>200.73700</ele>
        <time>2010-01-01T00:32:26Z</time>
      </trkpt>
      <trkpt lat="42.95641960" lon="12.59674910">
        <ele>201.16100</ele>
        <time>2010-01-01T00:32:28Z</time>
      </trkpt>
      <trkpt lat="42.95633610" lon="12.59640640">
        <ele>201.94400</ele>
        <time>2010-01-01T00:32:32Z</time>
      </trkpt>
      <trkpt lat="42.95608180" lon="12.59591660">
        <ele>201.77700</ele>
        <time>2010-01-01T00:32:39Z</time>
      </trkpt>
      <trkpt lat="42.95589210" lon="12.59536530">
        <ele>201.59500</ele>
        <time>2010-01-01T00:32:46Z</time>
      </trkpt>
      <trkpt lat="42.95570680" lon="12.59473760">
        <ele>201.42400</ele>
        <time>2010-01-01T00:32:54Z</time>
      </trkpt>
      <trkpt lat="42.95558800" lon="12.59432410">
        <ele>200.84300</ele>
        <time>2010-01-01T00:32:59Z</time>
      </trkpt>
      <trkpt lat="42.95542330" lon="12.59367050">
        <ele>199.72400</ele>
        <time>2010-01-01T00:33:07Z</time>
      </trkpt>
      <trkpt lat="42.95531980" lon="12.59322810">
        <ele>198.69600</ele>
        <time>2010-01-01T00:33:13Z</time>
      </trkpt>
      <trkpt lat="42.95515550" lon="12.59258020">
        <ele>198.24200</ele>
        <time>2010-01-01T00:33:21Z</time>
      </trkpt>
      <trkpt lat="42.95500040" lon="12.59194810">
        <ele>198.29300</ele>
        <time>2010-01-01T00:33:29Z</time>
      </trkpt>
      <trkpt lat="42.95483890" lon="12.59136600">
        <ele>198.71900</ele>
        <time>2010-01-01T00:33:36Z</time>
      </trkpt>
      <trkpt lat="42.95467180" lon="12.59082290">
        <ele>199.31400</ele>
        <time>2010-01-01T00:33:43Z</time>
      </trkpt>
      <trkpt lat="42.95448450" lon="12.59028490">
        <ele>200.14700</ele>
        <time>2010-01-01T00:33:50Z</time>
      </trkpt>
      <trkpt lat="42.95433910" lon="12.58994270">
        <ele>201.38600</ele>
        <time>2010-01-01T00:33:55Z</time>
      </trkpt>
      <trkpt lat="42.95405360" lon="12.58948800">
        <ele>202.89000</ele>
        <time>2010-01-01T00:34:02Z</time>
      </trkpt>
      <trkpt lat="42.95372500" lon="12.58909760">
        <ele>204.80600</ele>
        <time>2010-01-01T00:34:09Z</time>
      </trkpt>
      <trkpt lat="42.95340870" lon="12.58873240">
        <ele>207.57800</ele>
        <time>2010-01-01T00:34:15Z</time>
      </trkpt>
      <trkpt lat="42.95319330" lon="12.58849800">
        <ele>211.35500</ele>
        <time>2010-01-01T00:34:20Z</time>
      </trkpt>
      <trkpt lat="42.95284990" lon="12.58813870">
        <ele>215.65500</ele>
        <time>2010-01-01T00:34:27Z</time>
      </trkpt>
      <trkpt lat="42.95248140" lon="12.58780570">
        <ele>219.34700</ele>
        <time>2010-01-01T00:34:34Z</time>
      </trkpt>
      <trkpt lat="42.95224370" lon="12.58759570">
        <ele>221.56000</ele>
        <time>2010-01-01T00:34:38Z</time>
      </trkpt>
      <trkpt lat="42.95188550" lon="12.58727720">
        <ele>222.69200</ele>
        <time>2010-01-01T00:34:45Z</time>
      </trkpt>
      <trkpt lat="42.95152890" lon="12.58696210">
        <ele>224.39900</ele>
        <time>2010-01-01T00:34:52Z</time>
      </trkpt>
      <trkpt lat="42.95128690" lon="12.58674360">
        <ele>227.48000</ele>
        <time>2010-01-01T00:34:56Z</time>
      </trkpt>
      <trkpt lat="42.95091430" lon="12.58635360">
        <ele>230.72400</ele>
        <time>2010-01-01T00:35:04Z</time>
      </trkpt>
      <trkpt lat="42.95058700" lon="12.58596180">
        <ele>232.99300</ele>
        <time>2010-01-01T00:35:11Z</time>
      </trkpt>
      <trkpt lat="42.95026860" lon="12.58554330">
        <ele>234.68700</ele>
        <time>2010-01-01T00:35:18Z</time>
      </trkpt>
      <trkpt lat="42.94993060" lon="12.58506060">
        <ele>236.35700</ele>
        <time>2010-01-01T00:35:26Z</time>
      </trkpt>
      <trkpt lat="42.94968060" lon="12.58478950">
        <ele>238.52300</ele>
        <time>2010-01-01T00:35:31Z</time>
      </trkpt>
      <trkpt lat="42.94941900" lon="12.58451650">
        <ele>241.80300</ele>
        <time>2010-01-01T00:35:36Z</time>
      </trkpt>
      <trkpt lat="42.94915740" lon="12.58424150">
        <ele>245.57200</ele>
        <time>2010-01-01T00:35:41Z</time>
      </trkpt>
      <trkpt lat="42.94888860" lon="12.58400240">
        <ele>248.24600</ele>
        <time>2010-01-01T00:35:47Z</time>
      </trkpt>
      <trkpt lat="42.94845150" lon="12.58380500">
        <ele>249.76700</ele>
        <time>2010-01-01T00:35:54Z</time>
      </trkpt>
      <trkpt lat="42.94816380" lon="12.58377180">
        <ele>251.24400</ele>
        <time>2010-01-01T00:35:59Z</time>
      </trkpt>
      <trkpt lat="42.94770790" lon="12.58383710">
        <ele>253.14900</ele>
        <time>2010-01-01T00:36:06Z</time>
      </trkpt>
      <trkpt lat="42.94740170" lon="12.58387050">
        <ele>255.05900</ele>
        <time>2010-01-01T00:36:11Z</time>
      </trkpt>
      <trkpt lat="42.94693050" lon="12.58376590">
        <ele>256.52800</ele>
        <time>2010-01-01T00:36:18Z</time>
      </trkpt>
      <trkpt lat="42.94642920" lon="12.58361810">
        <ele>257.45100</ele>
        <time>2010-01-01T00:36:27Z</time>
      </trkpt>
      <trkpt lat="42.94609740" lon="12.58349220">
        <ele>257.92600</ele>
        <time>2010-01-01T00:36:32Z</time>
      </trkpt>
      <trkpt lat="42.94559470" lon="12.58331950">
        <ele>258.50100</ele>
        <time>2010-01-01T00:36:41Z</time>
      </trkpt>
      <trkpt lat="42.94525380" lon="12.58326660">
        <ele>259.54600</ele>
        <time>2010-01-01T00:36:46Z</time>
      </trkpt>
      <trkpt lat="42.94492600" lon="12.58331690">
        <ele>260.55100</ele>
        <time>2010-01-01T00:36:51Z</time>
      </trkpt>
      <trkpt lat="42.94445070" lon="12.58341900">
        <ele>260.99600</ele>
        <time>2010-01-01T00:36:59Z</time>
      </trkpt>
      <trkpt lat="42.94402120" lon="12.58350240">
        <ele>261.02200</ele>
        <time>2010-01-01T00:37:06Z</time>
      </trkpt>
      <trkpt lat="42.94381480" lon="12.58354380">
        <ele>260.75500</ele>
        <time>2010-01-01T00:37:09Z</time>
      </trkpt>
      <trkpt lat="42.94364050" lon="12.58358640">
        <ele>260.08900</ele>
        <time>2010-01-01T00:37:12Z</time>
      </trkpt>
      <trkpt lat="42.94344860" lon="12.58366110">
        <ele>259.02900</ele>
        <time>2010-01-01T00:37:15Z</time>
      </trkpt>
      <trkpt lat="42.94329080" lon="12.58375120">
        <ele>257.83000</ele>
        <time>2010-01-01T00:37:18Z</time>
      </trkpt>
      <trkpt lat="42.94310480" lon="12.58384390">
        <ele>256.72900</ele>
        <time>2010-01-01T00:37:21Z</time>
      </trkpt>
      <trkpt lat="42.94286450" lon="12.58402380">
        <ele>255.90300</ele>
        <time>2010-01-01T00:37:26Z</time>
      </trkpt>
      <trkpt lat="42.94259210" lon="12.58418330">
        <ele>255.48200</ele>
        <time>2010-01-01T00:37:30Z</time>
      </trkpt>
      <trkpt lat="42.94238020" lon="12.58421930">
        <ele>255.40100</ele>
        <time>2010-01-01T00:37:34Z</time>
      </trkpt>
      <trkpt lat="42.94205450" lon="12.58414610">
        <ele>255.75000</ele>
        <time>2010-01-01T00:37:39Z</time>
      </trkpt>
      <trkpt lat="42.94182610" lon="12.58401090">
        <ele>256.68000</ele>
        <time>2010-01-01T00:37:43Z</time>
      </trkpt>
      <trkpt lat="42.94152270" lon="12.58369860">
        <ele>257.77000</ele>
        <time>2010-01-01T00:37:49Z</time>
      </trkpt>
      <trkpt lat="42.94126180" lon="12.58346240">
        <ele>258.43300</ele>
        <time>2010-01-01T00:37:54Z</time>
      </trkpt>
      <trkpt lat="42.94087960" lon="12.58331210">
        <ele>258.66200</ele>
        <time>2010-01-01T00:38:00Z</time>
      </trkpt>
      <trkpt lat="42.94048660" lon="12.58327520">
        <ele>258.77000</ele>
        <time>2010-01-01T00:38:07Z</time>
      </trkpt>
      <trkpt lat="42.94022190" lon="12.58327470">
        <ele>259.39700</ele>
        <time>2010-01-01T00:38:11Z</time>
      </trkpt>
      <trkpt lat="42.93984530" lon="12.58322900">
        <ele>261.47200</ele>
        <time>2010-01-01T00:38:17Z</time>
      </trkpt>
      <trkpt lat="42.93948080" lon="12.58314550">
        <ele>264.89900</ele>
        <time>2010-01-01T00:38:23Z</time>
      </trkpt>
      <trkpt lat="42.93909340" lon="12.58305600">
        <ele>268.11800</ele>
        <time>2010-01-01T00:38:29Z</time>
      </trkpt>
      <trkpt lat="42.93872520" lon="12.58298500">
        <ele>270.61200</ele>
        <time>2010-01-01T00:38:35Z</time>
      </trkpt>
      <trkpt lat="42.93848950" lon="12.58294630">
        <ele>273.03200</ele>
        <time>2010-01-01T00:38:39Z</time>
      </trkpt>
      <trkpt lat="42.93811800" lon="12.58287290">
        <ele>275.94100</ele>
        <time>2010-01-01T00:38:45Z</time>
      </trkpt>
      <trkpt lat="42.93787460" lon="12.58278410">
        <ele>279.61800</ele>
        <time>2010-01-01T00:38:49Z</time>
      </trkpt>
      <trkpt lat="42.93758620" lon="12.58249500">
        <ele>283.42400</ele>
        <time>2010-01-01T00:38:55Z</time>
      </trkpt>
      <trkpt lat="42.93736790" lon="12.58232170">
        <ele>286.63200</ele>
        <time>2010-01-01T00:38:59Z</time>
      </trkpt>
      <trkpt lat="42.93714550" lon="12.58213780">
        <ele>289.95800</ele>
        <time>2010-01-01T00:39:03Z</time>
      </trkpt>
      <trkpt lat="42.93692390" lon="12.58196750">
        <ele>293.86400</ele>
        <time>2010-01-01T00:39:07Z</time>
      </trkpt>
      <trkpt lat="42.93657580" lon="12.58176750">
        <ele>297.47800</ele>
        <time>2010-01-01T00:39:13Z</time>
      </trkpt>
      <trkpt lat="42.93618740" lon="12.58165170">
        <ele>300.01400</ele>
        <time>2010-01-01T00:39:20Z</time>
      </trkpt>
      <trkpt lat="42.93575870" lon="12.58186050">
        <ele>302.35100</ele>
        <time>2010-01-01T00:39:27Z</time>
      </trkpt>
      <trkpt lat="42.93535500" lon="12.58220700">
        <ele>305.93900</ele>
        <time>2010-01-01T00:39:34Z</time>
      </trkpt>
      <trkpt lat="42.93513050" lon="12.58247580">
        <ele>310.21800</ele>
        <time>2010-01-01T00:39:39Z</time>
      </trkpt>
      <trkpt lat="42.93474730" lon="12.58277480">
        <ele>313.62900</ele>
        <time>2010-01-01T00:39:46Z</time>
      </trkpt>
      <trkpt lat="42.93427820" lon="12.58280340">
        <ele>315.70300</ele>
        <time>2010-01-01T00:39:54Z</time>
      </trkpt>
      <trkpt lat="42.93396050" lon="12.58279610">
        <ele>316.37400</ele>
        <time>2010-01-01T00:39:59Z</time>
      </trkpt>
      <trkpt lat="42.93365490" lon="12.58281010">
        <ele>315.77100</ele>
        <time>2010-01-01T00:40:04Z</time>
      </trkpt>
      <trkpt lat="42.93338580" lon="12.58279280">
        <ele>315.01700</ele>
        <time>2010-01-01T00:40:08Z</time>
      </trkpt>
      <trkpt lat="42.93303710" lon="12.58257960">
        <ele>315.04400</ele>
        <time>2010-01-01T00:40:14Z</time>
      </trkpt>
      <trkpt lat="42.93274440" lon="12.58227410">
        <ele>315.69800</ele>
        <time>2010-01-01T00:40:20Z</time>
      </trkpt>
      <trkpt lat="42.93256260" lon="12.58202780">
        <ele>316.22000</ele>
        <time>2010-01-01T00:40:24Z</time>
      </trkpt>
      <trkpt lat="42.93236920" lon="12.58179720">
        <ele>316.18500</ele>
        <time>2010-01-01T00:40:28Z</time>
      </trkpt>
      <trkpt lat="42.93204290" lon="12.58158620">
        <ele>316.00900</ele>
        <time>2010-01-01T00:40:34Z</time>
      </trkpt>
      <trkpt lat="42.93170460" lon="12.58159070">
        <ele>316.19000</ele>
        <time>2010-01-01T00:40:40Z</time>
      </trkpt>
      <trkpt lat="42.93142840" lon="12.58177180">
        <ele>316.55800</ele>
        <time>2010-01-01T00:40:44Z</time>
      </trkpt>
      <trkpt lat="42.93106200" lon="12.58217530">
        <ele>316.79800</ele>
        <time>2010-01-01T00:40:52Z</time>
      </trkpt>
      <trkpt lat="42.93080060" lon="12.58264250">
        <ele>316.50800</ele>
        <time>2010-01-01T00:40:59Z</time>
      </trkpt>
      <trkpt lat="42.93060480" lon="12.58304730">
        <ele>315.54500</ele>
        <time>2010-01-01T00:41:05Z</time>
      </trkpt>
      <trkpt lat="42.93037850" lon="12.58349750">
        <ele>314.53700</ele>
        <time>2010-01-01T00:41:11Z</time>
      </trkpt>
      <trkpt lat="42.93023980" lon="12.58381380">
        <ele>313.06800</ele>
        <time>2010-01-01T00:41:15Z</time>
      </trkpt>
      <trkpt lat="42.93012630" lon="12.58419890">
        <ele>309.31500</ele>
        <time>2010-01-01T00:41:20Z</time>
      </trkpt>
      <trkpt lat="42.93025410" lon="12.58509420">
        <ele>303.87300</ele>
        <time>2010-01-01T00:41:31Z</time>
      </trkpt>
      <trkpt lat="42.93030190" lon="12.58577130">
        <ele>299.74200</ele>
        <time>2010-01-01T00:41:39Z</time>
      </trkpt>
      <trkpt lat="42.93023290" lon="12.58615420">
        <ele>298.18600</ele>
        <time>2010-01-01T00:41:43Z</time>
      </trkpt>
      <trkpt lat="42.92999450" lon="12.58661740">
        <ele>298.81000</ele>
        <time>2010-01-01T00:41:50Z</time>
      </trkpt>
      <trkpt lat="42.92980730" lon="12.58655010">
        <ele>300.92100</ele>
        <time>2010-01-01T00:41:53Z</time>
      </trkpt>
      <trkpt lat="42.92941900" lon="12.58635790">
        <ele>303.29000</ele>
        <time>2010-01-01T00:42:00Z</time>
      </trkpt>
      <trkpt lat="42.92910940" lon="12.58631670">
        <ele>305.86600</ele>
        <time>2010-01-01T00:42:05Z</time>
      </trkpt>
      <trkpt lat="42.92879870" lon="12.58636460">
        <ele>309.58600</ele>
        <time>2010-01-01T00:42:10Z</time>
      </trkpt>
      <trkpt lat="42.92854720" lon="12.58651290">
        <ele>314.15100</ele>
        <time>2010-01-01T00:42:14Z</time>
      </trkpt>
      <trkpt lat="42.92840370" lon="12.58676950">
        <ele>318.46200</ele>
        <time>2010-01-01T00:42:18Z</time>
      </trkpt>
      <trkpt lat="42.92863340" lon="12.58735390">
        <ele>321.64700</ele>
        <time>2010-01-01T00:42:26Z</time>
      </trkpt>
      <trkpt lat="42.92882120" lon="12.58785910">
        <ele>323.50900</ele>
        <time>2010-01-01T00:42:32Z</time>
      </trkpt>
      <trkpt lat="42.92882340" lon="12.58833480">
        <ele>324.75800</ele>
        <time>2010-01-01T00:42:38Z</time>
      </trkpt>
      <trkpt lat="42.92866410" lon="12.58881030">
        <ele>325.86400</ele>
        <time>2010-01-01T00:42:44Z</time>
      </trkpt>
      <trkpt lat="42.92851090" lon="12.58910310">
        <ele>326.75400</ele>
        <time>2010-01-01T00:42:48Z</time>
      </trkpt>
      <trkpt lat="42.92829520" lon="12.58936850">
        <ele>328.30400</ele>
        <time>2010-01-01T00:42:53Z</time>
      </trkpt>
      <trkpt lat="42.92807650" lon="12.58958870">
        <ele>331.05100</ele>
        <time>2010-01-01T00:42:57Z</time>
      </trkpt>
      <trkpt lat="42.92773170" lon="12.58991910">
        <ele>333.62600</ele>
        <time>2010-01-01T00:43:04Z</time>
      </trkpt>
      <trkpt lat="42.92750370" lon="12.59013240">
        <ele>335.81200</ele>
        <time>2010-01-01T00:43:08Z</time>
      </trkpt>
      <trkpt lat="42.92716360" lon="12.59044560">
        <ele>339.02600</ele>
        <time>2010-01-01T00:43:15Z</time>
      </trkpt>
      <trkpt lat="42.92682340" lon="12.59072060">
        <ele>342.89900</ele>
        <time>2010-01-01T00:43:21Z</time>
      </trkpt>
      <trkpt lat="42.92656300" lon="12.59085860">
        <ele>345.99500</ele>
        <time>2010-01-01T00:43:26Z</time>
      </trkpt>
      <trkpt lat="42.92629720" lon="12.59099950">
        <ele>347.98200</ele>
        <time>2010-01-01T00:43:30Z</time>
      </trkpt>
      <trkpt lat="42.92583860" lon="12.59110090">
        <ele>349.84700</ele>
        <time>2010-01-01T00:43:38Z</time>
      </trkpt>
      <trkpt lat="42.92547860" lon="12.59110730">
        <ele>353.01600</ele>
        <time>2010-01-01T00:43:44Z</time>
      </trkpt>
      <trkpt lat="42.92490820" lon="12.59108310">
        <ele>357.06300</ele>
        <time>2010-01-01T00:43:53Z</time>
      </trkpt>
      <trkpt lat="42.92454640" lon="12.59118090">
        <ele>360.04000</ele>
        <time>2010-01-01T00:43:59Z</time>
      </trkpt>
      <trkpt lat="42.92409450" lon="12.59157110">
        <ele>361.25900</ele>
        <time>2010-01-01T00:44:07Z</time>
      </trkpt>
      <trkpt lat="42.92389140" lon="12.59197420">
        <ele>361.40700</ele>
        <time>2010-01-01T00:44:13Z</time>
      </trkpt>
      <trkpt lat="42.92373030" lon="12.59236440">
        <ele>361.17800</ele>
        <time>2010-01-01T00:44:18Z</time>
      </trkpt>
      <trkpt lat="42.92349750" lon="12.59293460">
        <ele>361.05400</ele>
        <time>2010-01-01T00:44:26Z</time>
      </trkpt>
      <trkpt lat="42.92326080" lon="12.59349030">
        <ele>361.19200</ele>
        <time>2010-01-01T00:44:33Z</time>
      </trkpt>
      <trkpt lat="42.92311580" lon="12.59383350">
        <ele>361.48900</ele>
        <time>2010-01-01T00:44:38Z</time>
      </trkpt>
      <trkpt lat="42.92283060" lon="12.59427340">
        <ele>362.47200</ele>
        <time>2010-01-01T00:44:45Z</time>
      </trkpt>
      <trkpt lat="42.92251200" lon="12.59462320">
        <ele>365.56400</ele>
        <time>2010-01-01T00:44:51Z</time>
      </trkpt>
      <trkpt lat="42.92211240" lon="12.59463560">
        <ele>370.35600</ele>
        <time>2010-01-01T00:44:58Z</time>
      </trkpt>
      <trkpt lat="42.92168190" lon="12.59461320">
        <ele>374.19600</ele>
        <time>2010-01-01T00:45:05Z</time>
      </trkpt>
      <trkpt lat="42.92109000" lon="12.59445970">
        <ele>375.71900</ele>
        <time>2010-01-01T00:45:14Z</time>
      </trkpt>
      <trkpt lat="42.92058780" lon="12.59425700">
        <ele>375.19300</ele>
        <time>2010-01-01T00:45:23Z</time>
      </trkpt>
      <trkpt lat="42.92018140" lon="12.59413380">
        <ele>373.13500</ele>
        <time>2010-01-01T00:45:29Z</time>
      </trkpt>
      <trkpt lat="42.91989640" lon="12.59408380">
        <ele>370.86700</ele>
        <time>2010-01-01T00:45:34Z</time>
      </trkpt>
      <trkpt lat="42.91945110" lon="12.59402860">
        <ele>369.54300</ele>
        <time>2010-01-01T00:45:41Z</time>
      </trkpt>
      <trkpt lat="42.91915280" lon="12.59401340">
        <ele>369.02800</ele>
        <time>2010-01-01T00:45:46Z</time>
      </trkpt>
      <trkpt lat="42.91870810" lon="12.59406030">
        <ele>368.86900</ele>
        <time>2010-01-01T00:45:53Z</time>
      </trkpt>
      <trkpt lat="42.91828830" lon="12.59430430">
        <ele>368.90200</ele>
        <time>2010-01-01T00:46:00Z</time>
      </trkpt>
      <trkpt lat="42.91802600" lon="12.59453740">
        <ele>369.01900</ele>
        <time>2010-01-01T00:46:05Z</time>
      </trkpt>
      <trkpt lat="42.91779520" lon="12.59485630">
        <ele>369.09800</ele>
        <time>2010-01-01T00:46:11Z</time>
      </trkpt>
      <trkpt lat="42.91744000" lon="12.59530820">
        <ele>369.12300</ele>
        <time>2010-01-01T00:46:18Z</time>
      </trkpt>
      <trkpt lat="42.91709140" lon="12.59578600">
        <ele>369.29800</ele>
        <time>2010-01-01T00:46:26Z</time>
      </trkpt>
      <trkpt lat="42.91675170" lon="12.59633910">
        <ele>370.02200</ele>
        <time>2010-01-01T00:46:35Z</time>
      </trkpt>
      <trkpt lat="42.91651370" lon="12.59674780">
        <ele>371.28600</ele>
        <time>2010-01-01T00:46:41Z</time>
      </trkpt>
      <trkpt lat="42.91618780" lon="12.59739580">
        <ele>372.47600</ele>
        <time>2010-01-01T00:46:50Z</time>
      </trkpt>
      <trkpt lat="42.91586820" lon="12.59799560">
        <ele>373.10400</ele>
        <time>2010-01-01T00:46:59Z</time>
      </trkpt>
      <trkpt lat="42.91565000" lon="12.59834750">
        <ele>373.23800</ele>
        <time>2010-01-01T00:47:04Z</time>
      </trkpt>
      <trkpt lat="42.91526880" lon="12.59867650">
        <ele>373.16000</ele>
        <time>2010-01-01T00:47:12Z</time>
      </trkpt>
      <trkpt lat="42.91496580" lon="12.59881800">
        <ele>372.96800</ele>
        <time>2010-01-01T00:47:17Z</time>
      </trkpt>
      <trkpt lat="42.91455150" lon="12.59908810">
        <ele>372.68300</ele>
        <time>2010-01-01T00:47:24Z</time>
      </trkpt>
      <trkpt lat="42.91431790" lon="12.59940430">
        <ele>372.34900</ele>
        <time>2010-01-01T00:47:29Z</time>
      </trkpt>
      <trkpt lat="42.91409580" lon="12.59973750">
        <ele>372.10400</ele>
        <time>2010-01-01T00:47:35Z</time>
      </trkpt>
      <trkpt lat="42.91386300" lon="12.60029720">
        <ele>372.10300</ele>
        <time>2010-01-01T00:47:42Z</time>
      </trkpt>
      <trkpt lat="42.91376760" lon="12.60072940">
        <ele>372.17100</ele>
        <time>2010-01-01T00:47:47Z</time>
      </trkpt>
      <trkpt lat="42.91359080" lon="12.60140820">
        <ele>372.02000</ele>
        <time>2010-01-01T00:47:56Z</time>
      </trkpt>
      <trkpt lat="42.91345110" lon="12.60183570">
        <ele>371.77300</ele>
        <time>2010-01-01T00:48:01Z</time>
      </trkpt>
      <trkpt lat="42.91328930" lon="12.60223170">
        <ele>371.64200</ele>
        <time>2010-01-01T00:48:07Z</time>
      </trkpt>
      <trkpt lat="42.91310770" lon="12.60262800">
        <ele>371.71000</ele>
        <time>2010-01-01T00:48:12Z</time>
      </trkpt>
      <trkpt lat="42.91291890" lon="12.60300940">
        <ele>371.95500</ele>
        <time>2010-01-01T00:48:18Z</time>
      </trkpt>
      <trkpt lat="42.91272750" lon="12.60337080">
        <ele>372.27200</ele>
        <time>2010-01-01T00:48:23Z</time>
      </trkpt>
      <trkpt lat="42.91245640" lon="12.60393260">
        <ele>372.84400</ele>
        <time>2010-01-01T00:48:31Z</time>
      </trkpt>
      <trkpt lat="42.91222530" lon="12.60449650">
        <ele>373.83000</ele>
        <time>2010-01-01T00:48:38Z</time>
      </trkpt>
      <trkpt lat="42.91195730" lon="12.60506430">
        <ele>374.74100</ele>
        <time>2010-01-01T00:48:46Z</time>
      </trkpt>
      <trkpt lat="42.91156310" lon="12.60553410">
        <ele>375.09200</ele>
        <time>2010-01-01T00:48:55Z</time>
      </trkpt>
      <trkpt lat="42.91129940" lon="12.60584090">
        <ele>375.03600</ele>
        <time>2010-01-01T00:49:00Z</time>
      </trkpt>
      <trkpt lat="42.91090340" lon="12.60627320">
        <ele>374.72600</ele>
        <time>2010-01-01T00:49:08Z</time>
      </trkpt>
      <trkpt lat="42.91061450" lon="12.60650640">
        <ele>373.99400</ele>
        <time>2010-01-01T00:49:14Z</time>
      </trkpt>
      <trkpt lat="42.91012010" lon="12.60671990">
        <ele>372.89100</ele>
        <time>2010-01-01T00:49:22Z</time>
      </trkpt>
      <trkpt lat="42.90959840" lon="12.60673650">
        <ele>371.86300</ele>
        <time>2010-01-01T00:49:30Z</time>
      </trkpt>
      <trkpt lat="42.90909860" lon="12.60657940">
        <ele>371.25300</ele>
        <time>2010-01-01T00:49:38Z</time>
      </trkpt>
      <trkpt lat="42.90880060" lon="12.60655090">
        <ele>371.03200</ele>
        <time>2010-01-01T00:49:43Z</time>
      </trkpt>
      <trkpt lat="42.90831570" lon="12.60663410">
        <ele>370.68500</ele>
        <time>2010-01-01T00:49:51Z</time>
      </trkpt>
      <trkpt lat="42.90796370" lon="12.60683750">
        <ele>369.88000</ele>
        <time>2010-01-01T00:49:57Z</time>
      </trkpt>
      <trkpt lat="42.90771910" lon="12.60681850">
        <ele>368.59300</ele>
        <time>2010-01-01T00:50:01Z</time>
      </trkpt>
      <trkpt lat="42.90729760" lon="12.60674460">
        <ele>365.85600</ele>
        <time>2010-01-01T00:50:08Z</time>
      </trkpt>
      <trkpt lat="42.90698140" lon="12.60674140">
        <ele>361.57900</ele>
        <time>2010-01-01T00:50:13Z</time>
      </trkpt>
      <trkpt lat="42.90648310" lon="12.60693450">
        <ele>357.85400</ele>
        <time>2010-01-01T00:50:21Z</time>
      </trkpt>
      <trkpt lat="42.90618410" lon="12.60718770">
        <ele>355.71400</ele>
        <time>2010-01-01T00:50:27Z</time>
      </trkpt>
      <trkpt lat="42.90576990" lon="12.60761940">
        <ele>354.40300</ele>
        <time>2010-01-01T00:50:35Z</time>
      </trkpt>
      <trkpt lat="42.90533820" lon="12.60794000">
        <ele>353.66500</ele>
        <time>2010-01-01T00:50:43Z</time>
      </trkpt>
      <trkpt lat="42.90486910" lon="12.60810060">
        <ele>353.84500</ele>
        <time>2010-01-01T00:50:51Z</time>
      </trkpt>
      <trkpt lat="42.90436820" lon="12.60769070">
        <ele>354.83000</ele>
        <time>2010-01-01T00:51:00Z</time>
      </trkpt>
      <trkpt lat="42.90407840" lon="12.60734280">
        <ele>356.30800</ele>
        <time>2010-01-01T00:51:06Z</time>
      </trkpt>
      <trkpt lat="42.90379410" lon="12.60699360">
        <ele>358.17300</ele>
        <time>2010-01-01T00:51:13Z</time>
      </trkpt>
      <trkpt lat="42.90334070" lon="12.60660450">
        <ele>360.11400</ele>
        <time>2010-01-01T00:51:21Z</time>
      </trkpt>
      <trkpt lat="42.90300530" lon="12.60652300">
        <ele>361.61200</ele>
        <time>2010-01-01T00:51:27Z</time>
      </trkpt>
      <trkpt lat="42.90265020" lon="12.60658280">
        <ele>362.49400</ele>
        <time>2010-01-01T00:51:32Z</time>
      </trkpt>
      <trkpt lat="42.90227850" lon="12.60665630">
        <ele>362.88100</ele>
        <time>2010-01-01T00:51:38Z</time>
      </trkpt>
      <trkpt lat="42.90170310" lon="12.60677580">
        <ele>363.65800</ele>
        <time>2010-01-01T00:51:48Z</time>
      </trkpt>
      <trkpt lat="42.90113880" lon="12.60691950">
        <ele>365.60200</ele>
        <time>2010-01-01T00:51:57Z</time>
      </trkpt>
      <trkpt lat="42.90060380" lon="12.60724320">
        <ele>368.00400</ele>
        <time>2010-01-01T00:52:06Z</time>
      </trkpt>
      <trkpt lat="42.90027920" lon="12.60754830">
        <ele>370.40100</ele>
        <time>2010-01-01T00:52:12Z</time>
      </trkpt>
      <trkpt lat="42.89996930" lon="12.60785250">
        <ele>373.26700</ele>
        <time>2010-01-01T00:52:19Z</time>
      </trkpt>
      <trkpt lat="42.89949470" lon="12.60825390">
        <ele>376.13800</ele>
        <time>2010-01-01T00:52:28Z</time>
      </trkpt>
      <trkpt lat="42.89919660" lon="12.60853960">
        <ele>378.03800</ele>
        <time>2010-01-01T00:52:33Z</time>
      </trkpt>
      <trkpt lat="42.89869850" lon="12.60897120">
        <ele>379.12500</ele>
        <time>2010-01-01T00:52:43Z</time>
      </trkpt>
      <trkpt lat="42.89837370" lon="12.60925510">
        <ele>380.66600</ele>
        <time>2010-01-01T00:52:49Z</time>
      </trkpt>
      <trkpt lat="42.89790330" lon="12.60965830">
        <ele>383.67000</ele>
        <time>2010-01-01T00:52:58Z</time>
      </trkpt>
      <trkpt lat="42.89745430" lon="12.60992880">
        <ele>387.48300</ele>
        <time>2010-01-01T00:53:06Z</time>
      </trkpt>
      <trkpt lat="42.89717810" lon="12.61000690">
        <ele>390.62000</ele>
        <time>2010-01-01T00:53:10Z</time>
      </trkpt>
      <trkpt lat="42.89685520" lon="12.60984760">
        <ele>392.29200</ele>
        <time>2010-01-01T00:53:16Z</time>
      </trkpt>
      <trkpt lat="42.89632450" lon="12.60953620">
        <ele>392.73100</ele>
        <time>2010-01-01T00:53:25Z</time>
      </trkpt>
      <trkpt lat="42.89597530" lon="12.60937180">
        <ele>392.82700</ele>
        <time>2010-01-01T00:53:31Z</time>
      </trkpt>
      <trkpt lat="42.89545370" lon="12.60903020">
        <ele>393.35200</ele>
        <time>2010-01-01T00:53:40Z</time>
      </trkpt>
      <trkpt lat="42.89513020" lon="12.60879020">
        <ele>394.91800</ele>
        <time>2010-01-01T00:53:46Z</time>
      </trkpt>
      <trkpt lat="42.89466760" lon="12.60832730">
        <ele>397.44800</ele>
        <time>2010-01-01T00:53:55Z</time>
      </trkpt>
      <trkpt lat="42.89425240" lon="12.60777910">
        <ele>399.74000</ele>
        <time>2010-01-01T00:54:05Z</time>
      </trkpt>
      <trkpt lat="42.89402640" lon="12.60736120">
        <ele>400.83400</ele>
        <time>2010-01-01T00:54:11Z</time>
      </trkpt>
      <trkpt lat="42.89380870" lon="12.60693480">
        <ele>401.00400</ele>
        <time>2010-01-01T00:54:17Z</time>
      </trkpt>
      <trkpt lat="42.89352240" lon="12.60634350">
        <ele>400.57500</ele>
        <time>2010-01-01T00:54:25Z</time>
      </trkpt>
      <trkpt lat="42.89339670" lon="12.60571230">
        <ele>399.53200</ele>
        <time>2010-01-01T00:54:33Z</time>
      </trkpt>
      <trkpt lat="42.89341150" lon="12.60526250">
        <ele>397.92300</ele>
        <time>2010-01-01T00:54:38Z</time>
      </trkpt>
      <trkpt lat="42.89374120" lon="12.60464250">
        <ele>396.24100</ele>
        <time>2010-01-01T00:54:47Z</time>
      </trkpt>
      <trkpt lat="42.89390250" lon="12.60419970">
        <ele>394.57500</ele>
        <time>2010-01-01T00:54:53Z</time>
      </trkpt>
      <trkpt lat="42.89404830" lon="12.60344240">
        <ele>392.73100</ele>
        <time>2010-01-01T00:55:02Z</time>
      </trkpt>
      <trkpt lat="42.89410000" lon="12.60260300">
        <ele>391.00800</ele>
        <time>2010-01-01T00:55:12Z</time>
      </trkpt>
      <trkpt lat="42.89411570" lon="12.60201560">
        <ele>389.70700</ele>
        <time>2010-01-01T00:55:19Z</time>
      </trkpt>
      <trkpt lat="42.89413830" lon="12.60143430">
        <ele>388.55500</ele>
        <time>2010-01-01T00:55:26Z</time>
      </trkpt>
      <trkpt lat="42.89410910" lon="12.60069320">
        <ele>387.39700</ele>
        <time>2010-01-01T00:55:34Z</time>
      </trkpt>
      <trkpt lat="42.89416720" lon="12.60015540">
        <ele>386.28200</ele>
        <time>2010-01-01T00:55:41Z</time>
      </trkpt>
      <trkpt lat="42.89435800" lon="12.59946940">
        <ele>385.41800</ele>
        <time>2010-01-01T00:55:49Z</time>
      </trkpt>
      <trkpt lat="42.89450620" lon="12.59882580">
        <ele>383.39400</ele>
        <time>2010-01-01T00:55:57Z</time>
      </trkpt>
      <trkpt lat="42.89446680" lon="12.59835290">
        <ele>379.12900</ele>
        <time>2010-01-01T00:56:03Z</time>
      </trkpt>
      <trkpt lat="42.89440600" lon="12.59766250">
        <ele>374.17600</ele>
        <time>2010-01-01T00:56:11Z</time>
      </trkpt>
      <trkpt lat="42.89424860" lon="12.59710750">
        <ele>370.34800</ele>
        <time>2010-01-01T00:56:18Z</time>
      </trkpt>
      <trkpt lat="42.89404130" lon="12.59688170">
        <ele>366.96800</ele>
        <time>2010-01-01T00:56:22Z</time>
      </trkpt>
      <trkpt lat="42.89353240" lon="12.59679910">
        <ele>362.55900</ele>
        <time>2010-01-01T00:56:30Z</time>
      </trkpt>
      <trkpt lat="42.89313710" lon="12.59677380">
        <ele>357.49800</ele>
        <time>2010-01-01T00:56:37Z</time>
      </trkpt>
      <trkpt lat="42.89275720" lon="12.59676510">
        <ele>353.80800</ele>
        <time>2010-01-01T00:56:43Z</time>
      </trkpt>
      <trkpt lat="42.89241570" lon="12.59670860">
        <ele>351.44900</ele>
        <time>2010-01-01T00:56:48Z</time>
      </trkpt>
      <trkpt lat="42.89187150" lon="12.59643330">
        <ele>348.76100</ele>
        <time>2010-01-01T00:56:58Z</time>
      </trkpt>
      <trkpt lat="42.89135460" lon="12.59596810">
        <ele>345.40600</ele>
        <time>2010-01-01T00:57:07Z</time>
      </trkpt>
      <trkpt lat="42.89096080" lon="12.59534400">
        <ele>342.41300</ele>
        <time>2010-01-01T00:57:17Z</time>
      </trkpt>
      <trkpt lat="42.89056510" lon="12.59488350">
        <ele>340.43000</ele>
        <time>2010-01-01T00:57:25Z</time>
      </trkpt>
      <trkpt lat="42.89021220" lon="12.59464950">
        <ele>339.27800</ele>
        <time>2010-01-01T00:57:32Z</time>
      </trkpt>
      <trkpt lat="42.88959860" lon="12.59454280">
        <ele>338.49000</ele>
        <time>2010-01-01T00:57:42Z</time>
      </trkpt>
      <trkpt lat="42.88904230" lon="12.59437550">
        <ele>337.86500</ele>
        <time>2010-01-01T00:57:51Z</time>
      </trkpt>
      <trkpt lat="42.88848340" lon="12.59427660">
        <ele>337.47600</ele>
        <time>2010-01-01T00:58:00Z</time>
      </trkpt>
      <trkpt lat="42.88793780" lon="12.59436320">
        <ele>336.78200</ele>
        <time>2010-01-01T00:58:09Z</time>
      </trkpt>
      <trkpt lat="42.88757960" lon="12.59461810">
        <ele>334.93700</ele>
        <time>2010-01-01T00:58:15Z</time>
      </trkpt>
      <trkpt lat="42.88722380" lon="12.59510990">
        <ele>331.64600</ele>
        <time>2010-01-01T00:58:23Z</time>
      </trkpt>
      <trkpt lat="42.88723170" lon="12.59566610">
        <ele>327.76100</ele>
        <time>2010-01-01T00:58:30Z</time>
      </trkpt>
      <trkpt lat="42.88745980" lon="12.59660450">
        <ele>324.55900</ele>
        <time>2010-01-01T00:58:41Z</time>
      </trkpt>
      <trkpt lat="42.88753910" lon="12.59712290">
        <ele>322.25100</ele>
        <time>2010-01-01T00:58:47Z</time>
      </trkpt>
      <trkpt lat="42.88751260" lon="12.59769020">
        <ele>319.11800</ele>
        <time>2010-01-01T00:58:54Z</time>
      </trkpt>
      <trkpt lat="42.88739400" lon="12.59792180">
        <ele>313.92000</ele>
        <time>2010-01-01T00:58:57Z</time>
      </trkpt>
      <trkpt lat="42.88717600" lon="12.59797970">
        <ele>308.27000</ele>
        <time>2010-01-01T00:59:01Z</time>
      </trkpt>
      <trkpt lat="42.88694370" lon="12.59777070">
        <ele>304.63800</ele>
        <time>2010-01-01T00:59:05Z</time>
      </trkpt>
      <trkpt lat="42.88666560" lon="12.59718010">
        <ele>303.23800</ele>
        <time>2010-01-01T00:59:14Z</time>
      </trkpt>
      <trkpt lat="42.88637950" lon="12.59642330">
        <ele>302.80400</ele>
        <time>2010-01-01T00:59:24Z</time>
      </trkpt>
      <trkpt lat="42.88613990" lon="12.59565050">
        <ele>301.80400</ele>
        <time>2010-01-01T00:59:34Z</time>
      </trkpt>
      <trkpt lat="42.88596930" lon="12.59513660">
        <ele>299.80100</ele>
        <time>2010-01-01T00:59:40Z</time>
      </trkpt>
      <trkpt lat="42.88567980" lon="12.59446040">
        <ele>297.80200</ele>
        <time>2010-01-01T00:59:49Z</time>
      </trkpt>
      <trkpt lat="42.88542040" lon="12.59408050">
        <ele>296.46200</ele>
        <time>2010-01-01T00:59:55Z</time>
      </trkpt>
      <trkpt lat="42.88510040" lon="12.59377490">
        <ele>295.30200</ele>
        <time>2010-01-01T01:00:02Z</time>
      </trkpt>
      <trkpt lat="42.88456580" lon="12.59344850">
        <ele>293.68100</ele>
        <time>2010-01-01T01:00:11Z</time>
      </trkpt>
      <trkpt lat="42.88422390" lon="12.59331440">
        <ele>291.58600</ele>
        <time>2010-01-01T01:00:17Z</time>
      </trkpt>
      <trkpt lat="42.88368560" lon="12.59349710">
        <ele>289.70200</ele>
        <time>2010-01-01T01:00:26Z</time>
      </trkpt>
      <trkpt lat="42.88344740" lon="12.59386580">
        <ele>288.56200</ele>
        <time>2010-01-01T01:00:31Z</time>
      </trkpt>
      <trkpt lat="42.88317220" lon="12.59441880">
        <ele>288.11700</ele>
        <time>2010-01-01T01:00:39Z</time>
      </trkpt>
      <trkpt lat="42.88287410" lon="12.59479660">
        <ele>287.85300</ele>
        <time>2010-01-01T01:00:46Z</time>
      </trkpt>
      <trkpt lat="42.88262700" lon="12.59485470">
        <ele>287.37700</ele>
        <time>2010-01-01T01:00:50Z</time>
      </trkpt>
      <trkpt lat="42.88226100" lon="12.59448960">
        <ele>286.88400</ele>
        <time>2010-01-01T01:00:57Z</time>
      </trkpt>
      <trkpt lat="42.88203910" lon="12.59418040">
        <ele>286.61100</ele>
        <time>2010-01-01T01:01:02Z</time>
      </trkpt>
      <trkpt lat="42.88191720" lon="12.59390680">
        <ele>286.47700</ele>
        <time>2010-01-01T01:01:06Z</time>
      </trkpt>
      <trkpt lat="42.88191840" lon="12.59327740">
        <ele>286.41600</ele>
        <time>2010-01-01T01:01:13Z</time>
      </trkpt>
      <trkpt lat="42.88204840" lon="12.59256670">
        <ele>286.40900</ele>
        <time>2010-01-01T01:01:22Z</time>
      </trkpt>
      <trkpt lat="42.88219080" lon="12.59187290">
        <ele>286.59600</ele>
        <time>2010-01-01T01:01:30Z</time>
      </trkpt>
      <trkpt lat="42.88227840" lon="12.59119480">
        <ele>287.31400</ele>
        <time>2010-01-01T01:01:38Z</time>
      </trkpt>
      <trkpt lat="42.88237570" lon="12.59050360">
        <ele>288.63700</ele>
        <time>2010-01-01T01:01:47Z</time>
      </trkpt>
      <trkpt lat="42.88250380" lon="12.58988670">
        <ele>290.96200</ele>
        <time>2010-01-01T01:01:54Z</time>
      </trkpt>
      <trkpt lat="42.88262730" lon="12.58947540">
        <ele>294.29000</ele>
        <time>2010-01-01T01:01:59Z</time>
      </trkpt>
      <trkpt lat="42.88289360" lon="12.58928710">
        <ele>297.35000</ele>
        <time>2010-01-01T01:02:04Z</time>
      </trkpt>
      <trkpt lat="42.88316750" lon="12.58905550">
        <ele>299.33000</ele>
        <time>2010-01-01T01:02:09Z</time>
      </trkpt>
      <trkpt lat="42.88334280" lon="12.58889460">
        <ele>300.66200</ele>
        <time>2010-01-01T01:02:13Z</time>
      </trkpt>
      <trkpt lat="42.88363510" lon="12.58861040">
        <ele>301.62400</ele>
        <time>2010-01-01T01:02:18Z</time>
      </trkpt>
      <trkpt lat="42.88384530" lon="12.58837790">
        <ele>302.58700</ele>
        <time>2010-01-01T01:02:23Z</time>
      </trkpt>
      <trkpt lat="42.88417580" lon="12.58802090">
        <ele>304.02600</ele>
        <time>2010-01-01T01:02:30Z</time>
      </trkpt>
      <trkpt lat="42.88439360" lon="12.58774710">
        <ele>305.96800</ele>
        <time>2010-01-01T01:02:34Z</time>
      </trkpt>
      <trkpt lat="42.88466040" lon="12.58722820">
        <ele>308.61200</ele>
        <time>2010-01-01T01:02:42Z</time>
      </trkpt>
      <trkpt lat="42.88479020" lon="12.58687580">
        <ele>311.91400</ele>
        <time>2010-01-01T01:02:46Z</time>
      </trkpt>
      <trkpt lat="42.88498150" lon="12.58661810">
        <ele>314.70400</ele>
        <time>2010-01-01T01:02:51Z</time>
      </trkpt>
      <trkpt lat="42.88538820" lon="12.58646870">
        <ele>316.11300</ele>
        <time>2010-01-01T01:02:57Z</time>
      </trkpt>
      <trkpt lat="42.88564430" lon="12.58659530">
        <ele>316.69900</ele>
        <time>2010-01-01T01:03:02Z</time>
      </trkpt>
      <trkpt lat="42.88613130" lon="12.58667630">
        <ele>317.16900</ele>
        <time>2010-01-01T01:03:10Z</time>
      </trkpt>
      <trkpt lat="42.88641040" lon="12.58663720">
        <ele>317.63200</ele>
        <time>2010-01-01T01:03:14Z</time>
      </trkpt>
      <trkpt lat="42.88667760" lon="12.58651850">
        <ele>318.25600</ele>
        <time>2010-01-01T01:03:19Z</time>
      </trkpt>
      <trkpt lat="42.88697480" lon="12.58636320">
        <ele>319.21300</ele>
        <time>2010-01-01T01:03:24Z</time>
      </trkpt>
      <trkpt lat="42.88728490" lon="12.58619280">
        <ele>320.77100</ele>
        <time>2010-01-01T01:03:29Z</time>
      </trkpt>
      <trkpt lat="42.88776050" lon="12.58591470">
        <ele>323.10000</ele>
        <time>2010-01-01T01:03:37Z</time>
      </trkpt>
      <trkpt lat="42.88809600" lon="12.58576710">
        <ele>325.46500</ele>
        <time>2010-01-01T01:03:43Z</time>
      </trkpt>
      <trkpt lat="42.88857930" lon="12.58558030">
        <ele>326.95600</ele>
        <time>2010-01-01T01:03:51Z</time>
      </trkpt>
      <trkpt lat="42.88910030" lon="12.58536260">
        <ele>327.80800</ele>
        <time>2010-01-01T01:04:00Z</time>
      </trkpt>
      <trkpt lat="42.88962500" lon="12.58512270">
        <ele>328.79700</ele>
        <time>2010-01-01T01:04:09Z</time>
      </trkpt>
      <trkpt lat="42.88997150" lon="12.58496100">
        <ele>330.75800</ele>
        <time>2010-01-01T01:04:15Z</time>
      </trkpt>
      <trkpt lat="42.89052350" lon="12.58470200">
        <ele>334.09600</ele>
        <time>2010-01-01T01:04:24Z</time>
      </trkpt>
      <trkpt lat="42.89089610" lon="12.58455830">
        <ele>338.29200</ele>
        <time>2010-01-01T01:04:30Z</time>
      </trkpt>
      <trkpt lat="42.89147330" lon="12.58440580">
        <ele>342.15800</ele>
        <time>2010-01-01T01:04:39Z</time>
      </trkpt>
      <trkpt lat="42.89204040" lon="12.58432170">
        <ele>345.22600</ele>
        <time>2010-01-01T01:04:49Z</time>
      </trkpt>
      <trkpt lat="42.89257100" lon="12.58421760">
        <ele>347.67800</ele>
        <time>2010-01-01T01:04:57Z</time>
      </trkpt>
      <trkpt lat="42.89292100" lon="12.58408770">
        <ele>349.34700</ele>
        <time>2010-01-01T01:05:03Z</time>
      </trkpt>
      <trkpt lat="42.89340050" lon="12.58370460">
        <ele>350.03300</ele>
        <time>2010-01-01T01:05:12Z</time>
      </trkpt>
      <trkpt lat="42.89370990" lon="12.58341750">
        <ele>350.07300</ele>
        <time>2010-01-01T01:05:18Z</time>
      </trkpt>
      <trkpt lat="42.89415170" lon="12.58299310">
        <ele>349.73100</ele>
        <time>2010-01-01T01:05:27Z</time>
      </trkpt>
      <trkpt lat="42.89454900" lon="12.58261770">
        <ele>348.66300</ele>
        <time>2010-01-01T01:05:34Z</time>
      </trkpt>
      <trkpt lat="42.89492080" lon="12.58227900">
        <ele>346.90700</ele>
        <time>2010-01-01T01:05:41Z</time>
      </trkpt>
      <trkpt lat="42.89516820" lon="12.58204470">
        <ele>345.41700</ele>
        <time>2010-01-01T01:05:46Z</time>
      </trkpt>
      <trkpt lat="42.89542710" lon="12.58181510">
        <ele>344.79800</ele>
        <time>2010-01-01T01:05:51Z</time>
      </trkpt>
      <trkpt lat="42.89584620" lon="12.58146760">
        <ele>344.96800</ele>
        <time>2010-01-01T01:05:59Z</time>
      </trkpt>
      <trkpt lat="42.89627290" lon="12.58105130">
        <ele>345.94700</ele>
        <time>2010-01-01T01:06:07Z</time>
      </trkpt>
      <trkpt lat="42.89667950" lon="12.58060560">
        <ele>347.40000</ele>
        <time>2010-01-01T01:06:16Z</time>
      </trkpt>
      <trkpt lat="42.89707390" lon="12.58006730">
        <ele>348.57500</ele>
        <time>2010-01-01T01:06:25Z</time>
      </trkpt>
      <trkpt lat="42.89754070" lon="12.57954480">
        <ele>349.11600</ele>
        <time>2010-01-01T01:06:34Z</time>
      </trkpt>
      <trkpt lat="42.89786560" lon="12.57923000">
        <ele>349.18800</ele>
        <time>2010-01-01T01:06:41Z</time>
      </trkpt>
      <trkpt lat="42.89839110" lon="12.57886030">
        <ele>349.23500</ele>
        <time>2010-01-01T01:06:50Z</time>
      </trkpt>
      <trkpt lat="42.89892810" lon="12.57854230">
        <ele>349.62800</ele>
        <time>2010-01-01T01:07:00Z</time>
      </trkpt>
      <trkpt lat="42.89924910" lon="12.57834040">
        <ele>350.19100</ele>
        <time>2010-01-01T01:07:05Z</time>
      </trkpt>
      <trkpt lat="42.89964250" lon="12.57789990">
        <ele>350.81000</ele>
        <time>2010-01-01T01:07:13Z</time>
      </trkpt>
      <trkpt lat="42.89987450" lon="12.57753240">
        <ele>351.87000</ele>
        <time>2010-01-01T01:07:19Z</time>
      </trkpt>
      <trkpt lat="42.90023870" lon="12.57701800">
        <ele>353.25800</ele>
        <time>2010-01-01T01:07:27Z</time>
      </trkpt>
      <trkpt lat="42.90053170" lon="12.57652170">
        <ele>354.51000</ele>
        <time>2010-01-01T01:07:35Z</time>
      </trkpt>
      <trkpt lat="42.90058150" lon="12.57610430">
        <ele>355.67800</ele>
        <time>2010-01-01T01:07:40Z</time>
      </trkpt>
      <trkpt lat="42.90057910" lon="12.57536890">
        <ele>356.95000</ele>
        <time>2010-01-01T01:07:49Z</time>
      </trkpt>
      <trkpt lat="42.90058670" lon="12.57488000">
        <ele>358.43600</ele>
        <time>2010-01-01T01:07:54Z</time>
      </trkpt>
      <trkpt lat="42.90061760" lon="12.57439090">
        <ele>360.17900</ele>
        <time>2010-01-01T01:08:00Z</time>
      </trkpt>
      <trkpt lat="42.90069500" lon="12.57392890">
        <ele>361.71500</ele>
        <time>2010-01-01T01:08:06Z</time>
      </trkpt>
      <trkpt lat="42.90081160" lon="12.57347860">
        <ele>362.53200</ele>
        <time>2010-01-01T01:08:11Z</time>
      </trkpt>
      <trkpt lat="42.90103350" lon="12.57293620">
        <ele>362.65100</ele>
        <time>2010-01-01T01:08:18Z</time>
      </trkpt>
      <trkpt lat="42.90125440" lon="12.57251530">
        <ele>362.36300</ele>
        <time>2010-01-01T01:08:25Z</time>
      </trkpt>
      <trkpt lat="42.90142090" lon="12.57224480">
        <ele>361.92200</ele>
        <time>2010-01-01T01:08:29Z</time>
      </trkpt>
      <trkpt lat="42.90172920" lon="12.57188400">
        <ele>361.58300</ele>
        <time>2010-01-01T01:08:35Z</time>
      </trkpt>
      <trkpt lat="42.90192840" lon="12.57159780">
        <ele>361.50700</ele>
        <time>2010-01-01T01:08:40Z</time>
      </trkpt>
      <trkpt lat="42.90214140" lon="12.57134160">
        <ele>361.56800</ele>
        <time>2010-01-01T01:08:44Z</time>
      </trkpt>
      <trkpt lat="42.90250510" lon="12.57103320">
        <ele>361.55800</ele>
        <time>2010-01-01T01:08:51Z</time>
      </trkpt>
      <trkpt lat="42.90275210" lon="12.57084530">
        <ele>361.61100</ele>
        <time>2010-01-01T01:08:56Z</time>
      </trkpt>
      <trkpt lat="42.90299330" lon="12.57063870">
        <ele>361.87700</ele>
        <time>2010-01-01T01:09:00Z</time>
      </trkpt>
      <trkpt lat="42.90337000" lon="12.57031640">
        <ele>362.24700</ele>
        <time>2010-01-01T01:09:07Z</time>
      </trkpt>
      <trkpt lat="42.90377810" lon="12.57000080">
        <ele>362.56900</ele>
        <time>2010-01-01T01:09:15Z</time>
      </trkpt>
      <trkpt lat="42.90417290" lon="12.56973700">
        <ele>362.78900</ele>
        <time>2010-01-01T01:09:22Z</time>
      </trkpt>
      <trkpt lat="42.90456470" lon="12.56950490">
        <ele>362.98800</ele>
        <time>2010-01-01T01:09:29Z</time>
      </trkpt>
      <trkpt lat="42.90480120" lon="12.56943970">
        <ele>363.86900</ele>
        <time>2010-01-01T01:09:33Z</time>
      </trkpt>
      <trkpt lat="42.90505170" lon="12.56941590">
        <ele>366.01000</ele>
        <time>2010-01-01T01:09:37Z</time>
      </trkpt>
      <trkpt lat="42.90541480" lon="12.56934620">
        <ele>369.01400</ele>
        <time>2010-01-01T01:09:43Z</time>
      </trkpt>
      <trkpt lat="42.90564860" lon="12.56928520">
        <ele>371.93500</ele>
        <time>2010-01-01T01:09:46Z</time>
      </trkpt>
      <trkpt lat="42.90588850" lon="12.56921570">
        <ele>374.24000</ele>
        <time>2010-01-01T01:09:50Z</time>
      </trkpt>
      <trkpt lat="42.90621550" lon="12.56912800">
        <ele>376.09500</ele>
        <time>2010-01-01T01:09:56Z</time>
      </trkpt>
      <trkpt lat="42.90642560" lon="12.56907100">
        <ele>378.47900</ele>
        <time>2010-01-01T01:09:59Z</time>
      </trkpt>
      <trkpt lat="42.90678170" lon="12.56896570">
        <ele>381.69200</ele>
        <time>2010-01-01T01:10:05Z</time>
      </trkpt>
      <trkpt lat="42.90702280" lon="12.56894460">
        <ele>384.64900</ele>
        <time>2010-01-01T01:10:09Z</time>
      </trkpt>
      <trkpt lat="42.90739790" lon="12.56904770">
        <ele>386.36500</ele>
        <time>2010-01-01T01:10:15Z</time>
      </trkpt>
      <trkpt lat="42.90766680" lon="12.56915370">
        <ele>387.28500</ele>
        <time>2010-01-01T01:10:19Z</time>
      </trkpt>
      <trkpt lat="42.90807660" lon="12.56931450">
        <ele>388.20300</ele>
        <time>2010-01-01T01:10:26Z</time>
      </trkpt>
      <trkpt lat="42.90849570" lon="12.56948500">
        <ele>389.22000</ele>
        <time>2010-01-01T01:10:33Z</time>
      </trkpt>
      <trkpt lat="42.90877310" lon="12.56961360">
        <ele>389.97800</ele>
        <time>2010-01-01T01:10:38Z</time>
      </trkpt>
      <trkpt lat="42.90916810" lon="12.56969600">
        <ele>391.01400</ele>
        <time>2010-01-01T01:10:44Z</time>
      </trkpt>
      <trkpt lat="42.90956640" lon="12.56971570">
        <ele>393.24000</ele>
        <time>2010-01-01T01:10:51Z</time>
      </trkpt>
      <trkpt lat="42.90982170" lon="12.56964790">
        <ele>396.51500</ele>
        <time>2010-01-01T01:10:55Z</time>
      </trkpt>
      <trkpt lat="42.91018120" lon="12.56931930">
        <ele>399.58800</ele>
        <time>2010-01-01T01:11:02Z</time>
      </trkpt>
      <trkpt lat="42.91046310" lon="12.56891130">
        <ele>401.53200</ele>
        <time>2010-01-01T01:11:08Z</time>
      </trkpt>
      <trkpt lat="42.91070300" lon="12.56849300">
        <ele>402.51500</ele>
        <time>2010-01-01T01:11:15Z</time>
      </trkpt>
      <trkpt lat="42.91093680" lon="12.56810620">
        <ele>403.24200</ele>
        <time>2010-01-01T01:11:20Z</time>
      </trkpt>
      <trkpt lat="42.91113880" lon="12.56777400">
        <ele>404.20100</ele>
        <time>2010-01-01T01:11:26Z</time>
      </trkpt>
      <trkpt lat="42.91132870" lon="12.56743450">
        <ele>405.77600</ele>
        <time>2010-01-01T01:11:31Z</time>
      </trkpt>
      <trkpt lat="42.91155190" lon="12.56719590">
        <ele>407.91200</ele>
        <time>2010-01-01T01:11:35Z</time>
      </trkpt>
      <trkpt lat="42.91183840" lon="12.56713160">
        <ele>409.97500</ele>
        <time>2010-01-01T01:11:40Z</time>
      </trkpt>
      <trkpt lat="42.91218840" lon="12.56699040">
        <ele>411.34500</ele>
        <time>2010-01-01T01:11:46Z</time>
      </trkpt>
      <trkpt lat="42.91240680" lon="12.56685370">
        <ele>411.92200</ele>
        <time>2010-01-01T01:11:49Z</time>
      </trkpt>
      <trkpt lat="42.91272110" lon="12.56661650">
        <ele>412.00500</ele>
        <time>2010-01-01T01:11:55Z</time>
      </trkpt>
      <trkpt lat="42.91303860" lon="12.56637100">
        <ele>411.92300</ele>
        <time>2010-01-01T01:12:01Z</time>
      </trkpt>
      <trkpt lat="42.91331700" lon="12.56613710">
        <ele>411.88700</ele>
        <time>2010-01-01T01:12:06Z</time>
      </trkpt>
      <trkpt lat="42.91343040" lon="12.56578680">
        <ele>412.43500</ele>
        <time>2010-01-01T01:12:11Z</time>
      </trkpt>
      <trkpt lat="42.91343060" lon="12.56531690">
        <ele>414.05300</ele>
        <time>2010-01-01T01:12:16Z</time>
      </trkpt>
      <trkpt lat="42.91339570" lon="12.56483830">
        <ele>416.50200</ele>
        <time>2010-01-01T01:12:22Z</time>
      </trkpt>
      <trkpt lat="42.91343440" lon="12.56453280">
        <ele>419.33500</ele>
        <time>2010-01-01T01:12:26Z</time>
      </trkpt>
      <trkpt lat="42.91351780" lon="12.56424150">
        <ele>422.05300</ele>
        <time>2010-01-01T01:12:29Z</time>
      </trkpt>
      <trkpt lat="42.91372860" lon="12.56387970">
        <ele>423.87400</ele>
        <time>2010-01-01T01:12:35Z</time>
      </trkpt>
      <trkpt lat="42.91391220" lon="12.56382210">
        <ele>424.54800</ele>
        <time>2010-01-01T01:12:38Z</time>
      </trkpt>
      <trkpt lat="42.91407630" lon="12.56375790">
        <ele>424.56800</ele>
        <time>2010-01-01T01:12:40Z</time>
      </trkpt>
      <trkpt lat="42.91414450" lon="12.56357330">
        <ele>424.41800</ele>
        <time>2010-01-01T01:12:43Z</time>
      </trkpt>
      <trkpt lat="42.91403830" lon="12.56344860">
        <ele>424.18500</ele>
        <time>2010-01-01T01:12:45Z</time>
      </trkpt>
      <trkpt lat="42.91387750" lon="12.56334820">
        <ele>423.84600</ele>
        <time>2010-01-01T01:12:48Z</time>
      </trkpt>
      <trkpt lat="42.91358510" lon="12.56327080">
        <ele>423.52600</ele>
        <time>2010-01-01T01:12:53Z</time>
      </trkpt>
      <trkpt lat="42.91320170" lon="12.56323290">
        <ele>423.35200</ele>
        <time>2010-01-01T01:12:59Z</time>
      </trkpt>
      <trkpt lat="42.91274240" lon="12.56322110">
        <ele>423.33000</ele>
        <time>2010-01-01T01:13:06Z</time>
      </trkpt>
      <trkpt lat="42.91247910" lon="12.56327220">
        <ele>423.38400</ele>
        <time>2010-01-01T01:13:10Z</time>
      </trkpt>
      <trkpt lat="42.91220840" lon="12.56339090">
        <ele>423.76800</ele>
        <time>2010-01-01T01:13:15Z</time>
      </trkpt>
      <trkpt lat="42.91180870" lon="12.56367260">
        <ele>424.66500</ele>
        <time>2010-01-01T01:13:22Z</time>
      </trkpt>
      <trkpt lat="42.91156550" lon="12.56364930">
        <ele>425.56700</ele>
        <time>2010-01-01T01:13:26Z</time>
      </trkpt>
      <trkpt lat="42.91121580" lon="12.56342000">
        <ele>425.99000</ele>
        <time>2010-01-01T01:13:32Z</time>
      </trkpt>
      <trkpt lat="42.91100520" lon="12.56324530">
        <ele>425.87000</ele>
        <time>2010-01-01T01:13:36Z</time>
      </trkpt>
      <trkpt lat="42.91081140" lon="12.56304770">
        <ele>424.51700</ele>
        <time>2010-01-01T01:13:40Z</time>
      </trkpt>
      <trkpt lat="42.91058610" lon="12.56273970">
        <ele>421.85500</ele>
        <time>2010-01-01T01:13:45Z</time>
      </trkpt>
      <trkpt lat="42.91044370" lon="12.56234120">
        <ele>419.43000</ele>
        <time>2010-01-01T01:13:50Z</time>
      </trkpt>
      <trkpt lat="42.91042330" lon="12.56201760">
        <ele>418.36500</ele>
        <time>2010-01-01T01:13:54Z</time>
      </trkpt>
      <trkpt lat="42.91041900" lon="12.56146590">
        <ele>418.32900</ele>
        <time>2010-01-01T01:14:01Z</time>
      </trkpt>
      <trkpt lat="42.91031790" lon="12.56099100">
        <ele>418.85100</ele>
        <time>2010-01-01T01:14:06Z</time>
      </trkpt>
      <trkpt lat="42.91018810" lon="12.56055410">
        <ele>419.87000</ele>
        <time>2010-01-01T01:14:12Z</time>
      </trkpt>
      <trkpt lat="42.91017960" lon="12.56010200">
        <ele>421.97700</ele>
        <time>2010-01-01T01:14:17Z</time>
      </trkpt>
      <trkpt lat="42.91022140" lon="12.55981100">
        <ele>424.99600</ele>
        <time>2010-01-01T01:14:21Z</time>
      </trkpt>
      <trkpt lat="42.91046000" lon="12.55964580">
        <ele>427.41200</ele>
        <time>2010-01-01T01:14:25Z</time>
      </trkpt>
      <trkpt lat="42.91083000" lon="12.55955670">
        <ele>428.36800</ele>
        <time>2010-01-01T01:14:31Z</time>
      </trkpt>
      <trkpt lat="42.91119000" lon="12.55941710">
        <ele>428.15800</ele>
        <time>2010-01-01T01:14:37Z</time>
      </trkpt>
      <trkpt lat="42.91157470" lon="12.55939270">
        <ele>427.09800</ele>
        <time>2010-01-01T01:14:43Z</time>
      </trkpt>
      <trkpt lat="42.91182020" lon="12.55936050">
        <ele>425.76100</ele>
        <time>2010-01-01T01:14:47Z</time>
      </trkpt>
      <trkpt lat="42.91216480" lon="12.55921910">
        <ele>424.84100</ele>
        <time>2010-01-01T01:14:53Z</time>
      </trkpt>
      <trkpt lat="42.91246820" lon="12.55890840">
        <ele>424.51300</ele>
        <time>2010-01-01T01:14:59Z</time>
      </trkpt>
      <trkpt lat="42.91262410" lon="12.55869920">
        <ele>424.54500</ele>
        <time>2010-01-01T01:15:03Z</time>
      </trkpt>
      <trkpt lat="42.91279350" lon="12.55832000">
        <ele>425.12100</ele>
        <time>2010-01-01T01:15:08Z</time>
      </trkpt>
      <trkpt lat="42.91288500" lon="12.55788450">
        <ele>427.17500</ele>
        <time>2010-01-01T01:15:13Z</time>
      </trkpt>
      <trkpt lat="42.91271780" lon="12.55745030">
        <ele>430.89700</ele>
        <time>2010-01-01T01:15:19Z</time>
      </trkpt>
      <trkpt lat="42.91246190" lon="12.55720400">
        <ele>434.65000</ele>
        <time>2010-01-01T01:15:24Z</time>
      </trkpt>
      <trkpt lat="42.91217990" lon="12.55700460">
        <ele>436.79800</ele>
        <time>2010-01-01T01:15:29Z</time>
      </trkpt>
      <trkpt lat="42.91190800" lon="12.55679660">
        <ele>436.95700</ele>
        <time>2010-01-01T01:15:34Z</time>
      </trkpt>
      <trkpt lat="42.91177050" lon="12.55670410">
        <ele>435.72500</ele>
        <time>2010-01-01T01:15:36Z</time>
      </trkpt>
      <trkpt lat="42.91162710" lon="12.55657230">
        <ele>434.31800</ele>
        <time>2010-01-01T01:15:39Z</time>
      </trkpt>
      <trkpt lat="42.91165290" lon="12.55648270">
        <ele>433.58400</ele>
        <time>2010-01-01T01:15:40Z</time>
      </trkpt>
      <trkpt lat="42.91170910" lon="12.55640640">
        <ele>433.43400</ele>
        <time>2010-01-01T01:15:42Z</time>
      </trkpt>
      <trkpt lat="42.91180920" lon="12.55634400">
        <ele>434.18100</ele>
        <time>2010-01-01T01:15:43Z</time>
      </trkpt>
      <trkpt lat="42.91200300" lon="12.55627090">
        <ele>436.01000</ele>
        <time>2010-01-01T01:15:47Z</time>
      </trkpt>
      <trkpt lat="42.91232250" lon="12.55611230">
        <ele>437.85600</ele>
        <time>2010-01-01T01:15:52Z</time>
      </trkpt>
      <trkpt lat="42.91257240" lon="12.55598780">
        <ele>438.74100</ele>
        <time>2010-01-01T01:15:56Z</time>
      </trkpt>
      <trkpt lat="42.91293250" lon="12.55569180">
        <ele>438.88000</ele>
        <time>2010-01-01T01:16:03Z</time>
      </trkpt>
      <trkpt lat="42.91304580" lon="12.55540290">
        <ele>438.78600</ele>
        <time>2010-01-01T01:16:07Z</time>
      </trkpt>
      <trkpt lat="42.91296660" lon="12.55497420">
        <ele>438.77400</ele>
        <time>2010-01-01T01:16:12Z</time>
      </trkpt>
      <trkpt lat="42.91288460" lon="12.55476630">
        <ele>438.84400</ele>
        <time>2010-01-01T01:16:15Z</time>
      </trkpt>
      <trkpt lat="42.91265880" lon="12.55465230">
        <ele>438.89500</ele>
        <time>2010-01-01T01:16:19Z</time>
      </trkpt>
      <trkpt lat="42.91214670" lon="12.55458980">
        <ele>438.90200</ele>
        <time>2010-01-01T01:16:27Z</time>
      </trkpt>
      <trkpt lat="42.91167630" lon="12.55453280">
        <ele>438.88700</ele>
        <time>2010-01-01T01:16:34Z</time>
      </trkpt>
      <trkpt lat="42.91140710" lon="12.55443180">
        <ele>437.93700</ele>
        <time>2010-01-01T01:16:39Z</time>
      </trkpt>
      <trkpt lat="42.91107480" lon="12.55412150">
        <ele>434.71400</ele>
        <time>2010-01-01T01:16:45Z</time>
      </trkpt>
      <trkpt lat="42.91086270" lon="12.55388450">
        <ele>429.98900</ele>
        <time>2010-01-01T01:16:50Z</time>
      </trkpt>
      <trkpt lat="42.91067430" lon="12.55326920">
        <ele>426.21200</ele>
        <time>2010-01-01T01:16:58Z</time>
      </trkpt>
      <trkpt lat="42.91054870" lon="12.55251520">
        <ele>424.52000</ele>
        <time>2010-01-01T01:17:07Z</time>
      </trkpt>
      <trkpt lat="42.91059960" lon="12.55182720">
        <ele>424.32400</ele>
        <time>2010-01-01T01:17:15Z</time>
      </trkpt>
      <trkpt lat="42.91049970" lon="12.55144590">
        <ele>424.65900</ele>
        <time>2010-01-01T01:17:19Z</time>
      </trkpt>
      <trkpt lat="42.91021100" lon="12.55095700">
        <ele>424.76600</ele>
        <time>2010-01-01T01:17:27Z</time>
      </trkpt>
      <trkpt lat="42.90997550" lon="12.55056750">
        <ele>423.31700</ele>
        <time>2010-01-01T01:17:33Z</time>
      </trkpt>
      <trkpt lat="42.90972730" lon="12.54995590">
        <ele>419.92000</ele>
        <time>2010-01-01T01:17:41Z</time>
      </trkpt>
      <trkpt lat="42.90931090" lon="12.54936130">
        <ele>415.88100</ele>
        <time>2010-01-01T01:17:51Z</time>
      </trkpt>
      <trkpt lat="42.90900600" lon="12.54884600">
        <ele>412.25300</ele>
        <time>2010-01-01T01:17:58Z</time>
      </trkpt>
      <trkpt lat="42.90897930" lon="12.54832690">
        <ele>408.65400</ele>
        <time>2010-01-01T01:18:04Z</time>
      </trkpt>
      <trkpt lat="42.90919760" lon="12.54785320">
        <ele>404.22800</ele>
        <time>2010-01-01T01:18:11Z</time>
      </trkpt>
      <trkpt lat="42.90941250" lon="12.54781530">
        <ele>399.13900</ele>
        <time>2010-01-01T01:18:14Z</time>
      </trkpt>
      <trkpt lat="42.90975370" lon="12.54799080">
        <ele>395.05200</ele>
        <time>2010-01-01T01:18:20Z</time>
      </trkpt>
      <trkpt lat="42.91019950" lon="12.54807100">
        <ele>392.98300</ele>
        <time>2010-01-01T01:18:28Z</time>
      </trkpt>
      <trkpt lat="42.91057430" lon="12.54791300">
        <ele>392.37500</ele>
        <time>2010-01-01T01:18:34Z</time>
      </trkpt>
      <trkpt lat="42.91065690" lon="12.54757640">
        <ele>391.75900</ele>
        <time>2010-01-01T01:18:38Z</time>
      </trkpt>
      <trkpt lat="42.91055590" lon="12.54718840">
        <ele>390.17300</ele>
        <time>2010-01-01T01:18:43Z</time>
      </trkpt>
      <trkpt lat="42.91026110" lon="12.54689400">
        <ele>387.69000</ele>
        <time>2010-01-01T01:18:49Z</time>
      </trkpt>
      <trkpt lat="42.90995710" lon="12.54657480">
        <ele>384.33800</ele>
        <time>2010-01-01T01:18:55Z</time>
      </trkpt>
      <trkpt lat="42.90956030" lon="12.54599780">
        <ele>380.55600</ele>
        <time>2010-01-01T01:19:04Z</time>
      </trkpt>
      <trkpt lat="42.90913240" lon="12.54549100">
        <ele>377.61900</ele>
        <time>2010-01-01T01:19:13Z</time>
      </trkpt>
      <trkpt lat="42.90882550" lon="12.54522280">
        <ele>375.44500</ele>
        <time>2010-01-01T01:19:19Z</time>
      </trkpt>
      <trkpt lat="42.90849690" lon="12.54508830">
        <ele>373.21900</ele>
        <time>2010-01-01T01:19:24Z</time>
      </trkpt>
      <trkpt lat="42.90800070" lon="12.54502330">
        <ele>371.43800</ele>
        <time>2010-01-01T01:19:32Z</time>
      </trkpt>
      <trkpt lat="42.90734590" lon="12.54510950">
        <ele>370.65000</ele>
        <time>2010-01-01T01:19:43Z</time>
      </trkpt>
      <trkpt lat="42.90673720" lon="12.54513470">
        <ele>370.28600</ele>
        <time>2010-01-01T01:19:53Z</time>
      </trkpt>
      <trkpt lat="42.90644680" lon="12.54513050">
        <ele>369.21100</ele>
        <time>2010-01-01T01:19:57Z</time>
      </trkpt>
      <trkpt lat="42.90614070" lon="12.54498890">
        <ele>366.91800</ele>
        <time>2010-01-01T01:20:03Z</time>
      </trkpt>
      <trkpt lat="42.90613480" lon="12.54455630">
        <ele>364.39000</ele>
        <time>2010-01-01T01:20:08Z</time>
      </trkpt>
      <trkpt lat="42.90633750" lon="12.54416580">
        <ele>362.67900</ele>
        <time>2010-01-01T01:20:13Z</time>
      </trkpt>
      <trkpt lat="42.90656960" lon="12.54361720">
        <ele>361.46200</ele>
        <time>2010-01-01T01:20:21Z</time>
      </trkpt>
      <trkpt lat="42.90667780" lon="12.54320330">
        <ele>360.24100</ele>
        <time>2010-01-01T01:20:26Z</time>
      </trkpt>
      <trkpt lat="42.90688060" lon="12.54262820">
        <ele>359.24400</ele>
        <time>2010-01-01T01:20:33Z</time>
      </trkpt>
      <trkpt lat="42.90734480" lon="12.54245990">
        <ele>358.67500</ele>
        <time>2010-01-01T01:20:41Z</time>
      </trkpt>
      <trkpt lat="42.90767550" lon="12.54240010">
        <ele>358.39400</ele>
        <time>2010-01-01T01:20:46Z</time>
      </trkpt>
      <trkpt lat="42.90808890" lon="12.54224860">
        <ele>357.38500</ele>
        <time>2010-01-01T01:20:53Z</time>
      </trkpt>
      <trkpt lat="42.90832060" lon="12.54191130">
        <ele>354.89700</ele>
        <time>2010-01-01T01:20:59Z</time>
      </trkpt>
      <trkpt lat="42.90832630" lon="12.54155230">
        <ele>352.16300</ele>
        <time>2010-01-01T01:21:03Z</time>
      </trkpt>
      <trkpt lat="42.90798930" lon="12.54109100">
        <ele>350.54600</ele>
        <time>2010-01-01T01:21:10Z</time>
      </trkpt>
      <trkpt lat="42.90765800" lon="12.54081280">
        <ele>349.82100</ele>
        <time>2010-01-01T01:21:17Z</time>
      </trkpt>
      <trkpt lat="42.90729960" lon="12.54055120">
        <ele>349.46300</ele>
        <time>2010-01-01T01:21:23Z</time>
      </trkpt>
      <trkpt lat="42.90675140" lon="12.54026830">
        <ele>348.20200</ele>
        <time>2010-01-01T01:21:33Z</time>
      </trkpt>
      <trkpt lat="42.90634820" lon="12.54013500">
        <ele>345.19100</ele>
        <time>2010-01-01T01:21:39Z</time>
      </trkpt>
      <trkpt lat="42.90592100" lon="12.54004090">
        <ele>341.89100</ele>
        <time>2010-01-01T01:21:46Z</time>
      </trkpt>
      <trkpt lat="42.90533730" lon="12.53980070">
        <ele>340.08100</ele>
        <time>2010-01-01T01:21:56Z</time>
      </trkpt>
      <trkpt lat="42.90477180" lon="12.53954840">
        <ele>339.66000</ele>
        <time>2010-01-01T01:22:05Z</time>
      </trkpt>
      <trkpt lat="42.90442620" lon="12.53932220">
        <ele>339.85900</ele>
        <time>2010-01-01T01:22:12Z</time>
      </trkpt>
      <trkpt lat="42.90400730" lon="12.53888250">
        <ele>340.12800</ele>
        <time>2010-01-01T01:22:20Z</time>
      </trkpt>
      <trkpt lat="42.90353000" lon="12.53858500">
        <ele>340.27400</ele>
        <time>2010-01-01T01:22:28Z</time>
      </trkpt>
      <trkpt lat="42.90298360" lon="12.53839260">
        <ele>339.79300</ele>
        <time>2010-01-01T01:22:37Z</time>
      </trkpt>
      <trkpt lat="42.90266150" lon="12.53830640">
        <ele>337.25100</ele>
        <time>2010-01-01T01:22:43Z</time>
      </trkpt>
      <trkpt lat="42.90230950" lon="12.53805130">
        <ele>331.86200</ele>
        <time>2010-01-01T01:22:49Z</time>
      </trkpt>
      <trkpt lat="42.90208450" lon="12.53778110">
        <ele>325.10700</ele>
        <time>2010-01-01T01:22:54Z</time>
      </trkpt>
      <trkpt lat="42.90201800" lon="12.53721250">
        <ele>319.26500</ele>
        <time>2010-01-01T01:23:01Z</time>
      </trkpt>
      <trkpt lat="42.90205050" lon="12.53680920">
        <ele>315.20300</ele>
        <time>2010-01-01T01:23:05Z</time>
      </trkpt>
      <trkpt lat="42.90249240" lon="12.53640360">
        <ele>312.22200</ele>
        <time>2010-01-01T01:23:14Z</time>
      </trkpt>
      <trkpt lat="42.90283310" lon="12.53637470">
        <ele>308.91500</ele>
        <time>2010-01-01T01:23:19Z</time>
      </trkpt>
      <trkpt lat="42.90307690" lon="12.53630480">
        <ele>305.12800</ele>
        <time>2010-01-01T01:23:23Z</time>
      </trkpt>
      <trkpt lat="42.90316870" lon="12.53596140">
        <ele>301.66000</ele>
        <time>2010-01-01T01:23:28Z</time>
      </trkpt>
      <trkpt lat="42.90315250" lon="12.53577220">
        <ele>298.43900</ele>
        <time>2010-01-01T01:23:30Z</time>
      </trkpt>
      <trkpt lat="42.90311490" lon="12.53569340">
        <ele>294.99700</ele>
        <time>2010-01-01T01:23:31Z</time>
      </trkpt>
      <trkpt lat="42.90276160" lon="12.53587830">
        <ele>291.51000</ele>
        <time>2010-01-01T01:23:37Z</time>
      </trkpt>
      <trkpt lat="42.90237780" lon="12.53603800">
        <ele>288.07900</ele>
        <time>2010-01-01T01:23:44Z</time>
      </trkpt>
      <trkpt lat="42.90200250" lon="12.53610680">
        <ele>284.51600</ele>
        <time>2010-01-01T01:23:50Z</time>
      </trkpt>
      <trkpt lat="42.90155440" lon="12.53612190">
        <ele>281.08300</ele>
        <time>2010-01-01T01:23:57Z</time>
      </trkpt>
      <trkpt lat="42.90128760" lon="12.53616250">
        <ele>277.90000</ele>
        <time>2010-01-01T01:24:01Z</time>
      </trkpt>
      <trkpt lat="42.90101670" lon="12.53650640">
        <ele>274.78300</ele>
        <time>2010-01-01T01:24:07Z</time>
      </trkpt>
      <trkpt lat="42.90091640" lon="12.53674550">
        <ele>272.34700</ele>
        <time>2010-01-01T01:24:10Z</time>
      </trkpt>
      <trkpt lat="42.90069670" lon="12.53694050">
        <ele>271.14400</ele>
        <time>2010-01-01T01:24:14Z</time>
      </trkpt>
      <trkpt lat="42.90045010" lon="12.53672780">
        <ele>270.11200</ele>
        <time>2010-01-01T01:24:19Z</time>
      </trkpt>
      <trkpt lat="42.90049540" lon="12.53643570">
        <ele>268.46400</ele>
        <time>2010-01-01T01:24:23Z</time>
      </trkpt>
      <trkpt lat="42.90068620" lon="12.53616510">
        <ele>266.75600</ele>
        <time>2010-01-01T01:24:27Z</time>
      </trkpt>
      <trkpt lat="42.90088520" lon="12.53594240">
        <ele>265.35600</ele>
        <time>2010-01-01T01:24:31Z</time>
      </trkpt>
      <trkpt lat="42.90106560" lon="12.53569150">
        <ele>263.72900</ele>
        <time>2010-01-01T01:24:35Z</time>
      </trkpt>
      <trkpt lat="42.90137310" lon="12.53523630">
        <ele>261.29600</ele>
        <time>2010-01-01T01:24:42Z</time>
      </trkpt>
      <trkpt lat="42.90179720" lon="12.53482790">
        <ele>258.34900</ele>
        <time>2010-01-01T01:24:51Z</time>
      </trkpt>
      <trkpt lat="42.90226690" lon="12.53456470">
        <ele>256.13800</ele>
        <time>2010-01-01T01:24:59Z</time>
      </trkpt>
      <trkpt lat="42.90246370" lon="12.53430960">
        <ele>255.31100</ele>
        <time>2010-01-01T01:25:03Z</time>
      </trkpt>
      <trkpt lat="42.90259020" lon="12.53397970">
        <ele>255.31900</ele>
        <time>2010-01-01T01:25:08Z</time>
      </trkpt>
      <trkpt lat="42.90260970" lon="12.53391910">
        <ele>255.62100</ele>
        <time>2010-01-01T01:25:08Z</time>
      </trkpt>
      <trkpt lat="42.90265240" lon="12.53371360">
        <ele>255.95900</ele>
        <time>2010-01-01T01:25:11Z</time>
      </trkpt>
      <trkpt lat="42.90265540" lon="12.53359330">
        <ele>256.18700</ele>
        <time>2010-01-01T01:25:12Z</time>
      </trkpt>
      <trkpt lat="42.90261830" lon="12.53348940">
        <ele>256.26300</ele>
        <time>2010-01-01T01:25:14Z</time>
      </trkpt>
      <trkpt lat="42.90255120" lon="12.53341890">
        <ele>256.01000</ele>
        <time>2010-01-01T01:25:15Z</time>
      </trkpt>
      <trkpt lat="42.90237020" lon="12.53346430">
        <ele>255.24400</ele>
        <time>2010-01-01T01:25:18Z</time>
      </trkpt>
      <trkpt lat="42.90213660" lon="12.53366170">
        <ele>254.29500</ele>
        <time>2010-01-01T01:25:22Z</time>
      </trkpt>
      <trkpt lat="42.90184430" lon="12.53395580">
        <ele>253.39100</ele>
        <time>2010-01-01T01:25:28Z</time>
      </trkpt>
      <trkpt lat="42.90153210" lon="12.53425660">
        <ele>252.11800</ele>
        <time>2010-01-01T01:25:34Z</time>
      </trkpt>
      <trkpt lat="42.90116900" lon="12.53460530">
        <ele>250.13900</ele>
        <time>2010-01-01T01:25:41Z</time>
      </trkpt>
      <trkpt lat="42.90059930" lon="12.53523120">
        <ele>247.75700</ele>
        <time>2010-01-01T01:25:53Z</time>
      </trkpt>
      <trkpt lat="42.90027030" lon="12.53561400">
        <ele>245.76000</ele>
        <time>2010-01-01T01:26:00Z</time>
      </trkpt>
      <trkpt lat="42.89999710" lon="12.53602100">
        <ele>244.76200</ele>
        <time>2010-01-01T01:26:07Z</time>
      </trkpt>
      <trkpt lat="42.89980720" lon="12.53651290">
        <ele>244.63900</ele>
        <time>2010-01-01T01:26:13Z</time>
      </trkpt>
      <trkpt lat="42.89957680" lon="12.53727970">
        <ele>244.86300</ele>
        <time>2010-01-01T01:26:23Z</time>
      </trkpt>
      <trkpt lat="42.89927190" lon="12.53792410">
        <ele>245.86400</ele>
        <time>2010-01-01T01:26:32Z</time>
      </trkpt>
      <trkpt lat="42.89887380" lon="12.53839780">
        <ele>248.03100</ele>
        <time>2010-01-01T01:26:40Z</time>
      </trkpt>
      <trkpt lat="42.89841220" lon="12.53884740">
        <ele>250.24800</ele>
        <time>2010-01-01T01:26:49Z</time>
      </trkpt>
      <trkpt lat="42.89795160" lon="12.53941330">
        <ele>251.64000</ele>
        <time>2010-01-01T01:26:59Z</time>
      </trkpt>
      <trkpt lat="42.89753630" lon="12.54006260">
        <ele>252.94300</ele>
        <time>2010-01-01T01:27:09Z</time>
      </trkpt>
      <trkpt lat="42.89725590" lon="12.54049940">
        <ele>254.10300</ele>
        <time>2010-01-01T01:27:16Z</time>
      </trkpt>
      <trkpt lat="42.89700030" lon="12.54094090">
        <ele>254.21000</ele>
        <time>2010-01-01T01:27:23Z</time>
      </trkpt>
      <trkpt lat="42.89659490" lon="12.54162780">
        <ele>253.48800</ele>
        <time>2010-01-01T01:27:33Z</time>
      </trkpt>
      <trkpt lat="42.89632950" lon="12.54206640">
        <ele>252.91400</ele>
        <time>2010-01-01T01:27:40Z</time>
      </trkpt>
      <trkpt lat="42.89596200" lon="12.54269380">
        <ele>252.97800</ele>
        <time>2010-01-01T01:27:49Z</time>
      </trkpt>
      <trkpt lat="42.89562370" lon="12.54335320">
        <ele>253.70800</ele>
        <time>2010-01-01T01:27:59Z</time>
      </trkpt>
      <trkpt lat="42.89525510" lon="12.54398040">
        <ele>254.51700</ele>
        <time>2010-01-01T01:28:08Z</time>
      </trkpt>
      <trkpt lat="42.89502710" lon="12.54438650">
        <ele>254.92100</ele>
        <time>2010-01-01T01:28:14Z</time>
      </trkpt>
      <trkpt lat="42.89476380" lon="12.54506800">
        <ele>255.06000</ele>
        <time>2010-01-01T01:28:23Z</time>
      </trkpt>
      <trkpt lat="42.89452600" lon="12.54580610">
        <ele>255.16100</ele>
        <time>2010-01-01T01:28:33Z</time>
      </trkpt>
      <trkpt lat="42.89430980" lon="12.54623600">
        <ele>255.27900</ele>
        <time>2010-01-01T01:28:39Z</time>
      </trkpt>
      <trkpt lat="42.89387200" lon="12.54672490">
        <ele>255.49200</ele>
        <time>2010-01-01T01:28:48Z</time>
      </trkpt>
      <trkpt lat="42.89351380" lon="12.54732100">
        <ele>256.09500</ele>
        <time>2010-01-01T01:28:57Z</time>
      </trkpt>
      <trkpt lat="42.89336190" lon="12.54782330">
        <ele>257.26800</ele>
        <time>2010-01-01T01:29:03Z</time>
      </trkpt>
      <trkpt lat="42.89322090" lon="12.54834300">
        <ele>258.66900</ele>
        <time>2010-01-01T01:29:10Z</time>
      </trkpt>
      <trkpt lat="42.89303530" lon="12.54902720">
        <ele>259.80000</ele>
        <time>2010-01-01T01:29:18Z</time>
      </trkpt>
      <trkpt lat="42.89296750" lon="12.54979170">
        <ele>260.48000</ele>
        <time>2010-01-01T01:29:27Z</time>
      </trkpt>
      <trkpt lat="42.89297550" lon="12.55063520">
        <ele>260.75300</ele>
        <time>2010-01-01T01:29:37Z</time>
      </trkpt>
      <trkpt lat="42.89292230" lon="12.55116570">
        <ele>260.89200</ele>
        <time>2010-01-01T01:29:43Z</time>
      </trkpt>
      <trkpt lat="42.89271080" lon="12.55191580">
        <ele>261.14000</ele>
        <time>2010-01-01T01:29:53Z</time>
      </trkpt>
      <trkpt lat="42.89236200" lon="12.55262250">
        <ele>261.63700</ele>
        <time>2010-01-01T01:30:03Z</time>
      </trkpt>
      <trkpt lat="42.89212250" lon="12.55309710">
        <ele>262.38000</ele>
        <time>2010-01-01T01:30:10Z</time>
      </trkpt>
      <trkpt lat="42.89177760" lon="12.55386900">
        <ele>263.25700</ele>
        <time>2010-01-01T01:30:20Z</time>
      </trkpt>
      <trkpt lat="42.89153210" lon="12.55439110">
        <ele>264.11000</ele>
        <time>2010-01-01T01:30:28Z</time>
      </trkpt>
      <trkpt lat="42.89126630" lon="12.55491710">
        <ele>264.64400</ele>
        <time>2010-01-01T01:30:35Z</time>
      </trkpt>
      <trkpt lat="42.89095400" lon="12.55567040">
        <ele>264.52600</ele>
        <time>2010-01-01T01:30:45Z</time>
      </trkpt>
      <trkpt lat="42.89074530" lon="12.55614110">
        <ele>263.94200</ele>
        <time>2010-01-01T01:30:52Z</time>
      </trkpt>
      <trkpt lat="42.89046930" lon="12.55690320">
        <ele>263.01700</ele>
        <time>2010-01-01T01:31:02Z</time>
      </trkpt>
      <trkpt lat="42.89024190" lon="12.55768130">
        <ele>261.80600</ele>
        <time>2010-01-01T01:31:11Z</time>
      </trkpt>
      <trkpt lat="42.89007600" lon="12.55815130">
        <ele>260.79300</ele>
        <time>2010-01-01T01:31:18Z</time>
      </trkpt>
      <trkpt lat="42.88983560" lon="12.55889030">
        <ele>260.37600</ele>
        <time>2010-01-01T01:31:27Z</time>
      </trkpt>
      <trkpt lat="42.88959270" lon="12.55962570">
        <ele>260.39400</ele>
        <time>2010-01-01T01:31:36Z</time>
      </trkpt>
      <trkpt lat="42.88937330" lon="12.56004550">
        <ele>260.88400</ele>
        <time>2010-01-01T01:31:43Z</time>
      </trkpt>
      <trkpt lat="42.88894980" lon="12.56058230">
        <ele>262.55100</ele>
        <time>2010-01-01T01:31:52Z</time>
      </trkpt>
      <trkpt lat="42.88848590" lon="12.56114050">
        <ele>265.32500</ele>
        <time>2010-01-01T01:32:02Z</time>
      </trkpt>
      <trkpt lat="42.88798900" lon="12.56173260">
        <ele>267.68200</ele>
        <time>2010-01-01T01:32:12Z</time>
      </trkpt>
      <trkpt lat="42.88750660" lon="12.56229420">
        <ele>268.66400</ele>
        <time>2010-01-01T01:32:22Z</time>
      </trkpt>
      <trkpt lat="42.88718820" lon="12.56267080">
        <ele>268.73100</ele>
        <time>2010-01-01T01:32:29Z</time>
      </trkpt>
      <trkpt lat="42.88670860" lon="12.56323350">
        <ele>268.35400</ele>
        <time>2010-01-01T01:32:39Z</time>
      </trkpt>
      <trkpt lat="42.88640970" lon="12.56360320">
        <ele>267.64200</ele>
        <time>2010-01-01T01:32:46Z</time>
      </trkpt>
      <trkpt lat="42.88595770" lon="12.56414080">
        <ele>266.68200</ele>
        <time>2010-01-01T01:32:55Z</time>
      </trkpt>
      <trkpt lat="42.88548260" lon="12.56469090">
        <ele>265.78100</ele>
        <time>2010-01-01T01:33:05Z</time>
      </trkpt>
      <trkpt lat="42.88517890" lon="12.56507130">
        <ele>265.24300</ele>
        <time>2010-01-01T01:33:12Z</time>
      </trkpt>
      <trkpt lat="42.88475510" lon="12.56559420">
        <ele>265.22800</ele>
        <time>2010-01-01T01:33:21Z</time>
      </trkpt>
      <trkpt lat="42.88437380" lon="12.56609870">
        <ele>266.54300</ele>
        <time>2010-01-01T01:33:30Z</time>
      </trkpt>
      <trkpt lat="42.88409730" lon="12.56672020">
        <ele>269.41800</ele>
        <time>2010-01-01T01:33:38Z</time>
      </trkpt>
      <trkpt lat="42.88378280" lon="12.56725000">
        <ele>272.20400</ele>
        <time>2010-01-01T01:33:46Z</time>
      </trkpt>
      <trkpt lat="42.88351150" lon="12.56743360">
        <ele>273.64700</ele>
        <time>2010-01-01T01:33:51Z</time>
      </trkpt>
      <trkpt lat="42.88301610" lon="12.56756140">
        <ele>274.25600</ele>
        <time>2010-01-01T01:33:59Z</time>
      </trkpt>
      <trkpt lat="42.88257610" lon="12.56767120">
        <ele>275.04400</ele>
        <time>2010-01-01T01:34:06Z</time>
      </trkpt>
      <trkpt lat="42.88238860" lon="12.56772340">
        <ele>276.83600</ele>
        <time>2010-01-01T01:34:09Z</time>
      </trkpt>
      <trkpt lat="42.88215160" lon="12.56773120">
        <ele>279.39100</ele>
        <time>2010-01-01T01:34:13Z</time>
      </trkpt>
      <trkpt lat="42.88184530" lon="12.56756530">
        <ele>281.66500</ele>
        <time>2010-01-01T01:34:18Z</time>
      </trkpt>
      <trkpt lat="42.88147370" lon="12.56726740">
        <ele>283.08000</ele>
        <time>2010-01-01T01:34:25Z</time>
      </trkpt>
      <trkpt lat="42.88122860" lon="12.56706920">
        <ele>283.83900</ele>
        <time>2010-01-01T01:34:30Z</time>
      </trkpt>
      <trkpt lat="42.88082560" lon="12.56679630">
        <ele>284.76100</ele>
        <time>2010-01-01T01:34:37Z</time>
      </trkpt>
      <trkpt lat="42.88055790" lon="12.56668350">
        <ele>286.67500</ele>
        <time>2010-01-01T01:34:41Z</time>
      </trkpt>
      <trkpt lat="42.88010790" lon="12.56665100">
        <ele>289.31800</ele>
        <time>2010-01-01T01:34:49Z</time>
      </trkpt>
      <trkpt lat="42.87977240" lon="12.56669150">
        <ele>291.60700</ele>
        <time>2010-01-01T01:34:54Z</time>
      </trkpt>
      <trkpt lat="42.87940020" lon="12.56674040">
        <ele>292.88800</ele>
        <time>2010-01-01T01:35:00Z</time>
      </trkpt>
      <trkpt lat="42.87881990" lon="12.56685430">
        <ele>293.28200</ele>
        <time>2010-01-01T01:35:09Z</time>
      </trkpt>
      <trkpt lat="42.87829500" lon="12.56691130">
        <ele>293.21400</ele>
        <time>2010-01-01T01:35:18Z</time>
      </trkpt>
      <trkpt lat="42.87783410" lon="12.56692610">
        <ele>293.05200</ele>
        <time>2010-01-01T01:35:25Z</time>
      </trkpt>
      <trkpt lat="42.87751590" lon="12.56689530">
        <ele>292.65700</ele>
        <time>2010-01-01T01:35:30Z</time>
      </trkpt>
      <trkpt lat="42.87720950" lon="12.56668960">
        <ele>291.78000</ele>
        <time>2010-01-01T01:35:36Z</time>
      </trkpt>
      <trkpt lat="42.87700790" lon="12.56622480">
        <ele>290.76400</ele>
        <time>2010-01-01T01:35:42Z</time>
      </trkpt>
      <trkpt lat="42.87676220" lon="12.56578800">
        <ele>290.05000</ele>
        <time>2010-01-01T01:35:49Z</time>
      </trkpt>
      <trkpt lat="42.87642960" lon="12.56515950">
        <ele>289.40200</ele>
        <time>2010-01-01T01:35:58Z</time>
      </trkpt>
      <trkpt lat="42.87619510" lon="12.56481510">
        <ele>288.61000</ele>
        <time>2010-01-01T01:36:03Z</time>
      </trkpt>
      <trkpt lat="42.87585880" lon="12.56429390">
        <ele>287.96700</ele>
        <time>2010-01-01T01:36:11Z</time>
      </trkpt>
      <trkpt lat="42.87563070" lon="12.56393620">
        <ele>287.71000</ele>
        <time>2010-01-01T01:36:17Z</time>
      </trkpt>
      <trkpt lat="42.87528340" lon="12.56343000">
        <ele>287.71800</ele>
        <time>2010-01-01T01:36:25Z</time>
      </trkpt>
      <trkpt lat="42.87507540" lon="12.56312240">
        <ele>287.83200</ele>
        <time>2010-01-01T01:36:30Z</time>
      </trkpt>
      <trkpt lat="42.87473050" lon="12.56266160">
        <ele>288.07400</ele>
        <time>2010-01-01T01:36:38Z</time>
      </trkpt>
      <trkpt lat="42.87448490" lon="12.56239630">
        <ele>288.54400</ele>
        <time>2010-01-01T01:36:43Z</time>
      </trkpt>
      <trkpt lat="42.87405890" lon="12.56210070">
        <ele>289.08100</ele>
        <time>2010-01-01T01:36:50Z</time>
      </trkpt>
      <trkpt lat="42.87377940" lon="12.56189130">
        <ele>289.47200</ele>
        <time>2010-01-01T01:36:56Z</time>
      </trkpt>
      <trkpt lat="42.87333610" lon="12.56159550">
        <ele>289.62400</ele>
        <time>2010-01-01T01:37:03Z</time>
      </trkpt>
      <trkpt lat="42.87288880" lon="12.56128400">
        <ele>289.47800</ele>
        <time>2010-01-01T01:37:11Z</time>
      </trkpt>
      <trkpt lat="42.87259430" lon="12.56109240">
        <ele>289.18700</ele>
        <time>2010-01-01T01:37:17Z</time>
      </trkpt>
      <trkpt lat="42.87234410" lon="12.56089230">
        <ele>288.63800</ele>
        <time>2010-01-01T01:37:21Z</time>
      </trkpt>
      <trkpt lat="42.87208550" lon="12.56068130">
        <ele>287.59400</ele>
        <time>2010-01-01T01:37:26Z</time>
      </trkpt>
      <trkpt lat="42.87189880" lon="12.56057900">
        <ele>286.40400</ele>
        <time>2010-01-01T01:37:29Z</time>
      </trkpt>
      <trkpt lat="42.87166540" lon="12.56043610">
        <ele>285.44100</ele>
        <time>2010-01-01T01:37:33Z</time>
      </trkpt>
      <trkpt lat="42.87136600" lon="12.56023380">
        <ele>284.85300</ele>
        <time>2010-01-01T01:37:39Z</time>
      </trkpt>
      <trkpt lat="42.87116460" lon="12.56008110">
        <ele>284.79200</ele>
        <time>2010-01-01T01:37:43Z</time>
      </trkpt>
      <trkpt lat="42.87082220" lon="12.55977380">
        <ele>285.13400</ele>
        <time>2010-01-01T01:37:49Z</time>
      </trkpt>
      <trkpt lat="42.87048150" lon="12.55938000">
        <ele>285.83200</ele>
        <time>2010-01-01T01:37:56Z</time>
      </trkpt>
      <trkpt lat="42.87026660" lon="12.55905890">
        <ele>287.04100</ele>
        <time>2010-01-01T01:38:01Z</time>
      </trkpt>
      <trkpt lat="42.87013480" lon="12.55839880">
        <ele>288.45900</ele>
        <time>2010-01-01T01:38:09Z</time>
      </trkpt>
      <trkpt lat="42.87014770" lon="12.55800450">
        <ele>289.54200</ele>
        <time>2010-01-01T01:38:14Z</time>
      </trkpt>
      <trkpt lat="42.87019310" lon="12.55747850">
        <ele>290.13100</ele>
        <time>2010-01-01T01:38:20Z</time>
      </trkpt>
      <trkpt lat="42.87019540" lon="12.55720700">
        <ele>290.60700</ele>
        <time>2010-01-01T01:38:23Z</time>
      </trkpt>
      <trkpt lat="42.87017890" lon="12.55702320">
        <ele>291.80800</ele>
        <time>2010-01-01T01:38:26Z</time>
      </trkpt>
      <trkpt lat="42.87013200" lon="12.55681810">
        <ele>293.92700</ele>
        <time>2010-01-01T01:38:28Z</time>
      </trkpt>
      <trkpt lat="42.87008650" lon="12.55678820">
        <ele>295.89200</ele>
        <time>2010-01-01T01:38:29Z</time>
      </trkpt>
      <trkpt lat="42.86991260" lon="12.55706830">
        <ele>296.84800</ele>
        <time>2010-01-01T01:38:33Z</time>
      </trkpt>
      <trkpt lat="42.86966040" lon="12.55742100">
        <ele>297.15300</ele>
        <time>2010-01-01T01:38:39Z</time>
      </trkpt>
      <trkpt lat="42.86937560" lon="12.55780230">
        <ele>297.55100</ele>
        <time>2010-01-01T01:38:45Z</time>
      </trkpt>
      <trkpt lat="42.86906910" lon="12.55818660">
        <ele>298.30100</ele>
        <time>2010-01-01T01:38:52Z</time>
      </trkpt>
      <trkpt lat="42.86869950" lon="12.55861210">
        <ele>299.07800</ele>
        <time>2010-01-01T01:39:00Z</time>
      </trkpt>
      <trkpt lat="42.86824800" lon="12.55889400">
        <ele>299.55100</ele>
        <time>2010-01-01T01:39:08Z</time>
      </trkpt>
      <trkpt lat="42.86779210" lon="12.55912720">
        <ele>299.84700</ele>
        <time>2010-01-01T01:39:16Z</time>
      </trkpt>
      <trkpt lat="42.86730180" lon="12.55932850">
        <ele>300.24200</ele>
        <time>2010-01-01T01:39:24Z</time>
      </trkpt>
      <trkpt lat="42.86691710" lon="12.55942520">
        <ele>300.69700</ele>
        <time>2010-01-01T01:39:30Z</time>
      </trkpt>
      <trkpt lat="42.86653730" lon="12.55948290">
        <ele>301.13700</ele>
        <time>2010-01-01T01:39:36Z</time>
      </trkpt>
      <trkpt lat="42.86598860" lon="12.55953100">
        <ele>301.79700</ele>
        <time>2010-01-01T01:39:45Z</time>
      </trkpt>
      <trkpt lat="42.86564390" lon="12.55947980">
        <ele>302.72700</ele>
        <time>2010-01-01T01:39:50Z</time>
      </trkpt>
      <trkpt lat="42.86513590" lon="12.55934220">
        <ele>303.60800</ele>
        <time>2010-01-01T01:39:59Z</time>
      </trkpt>
      <trkpt lat="42.86482580" lon="12.55921950">
        <ele>304.65800</ele>
        <time>2010-01-01T01:40:04Z</time>
      </trkpt>
      <trkpt lat="42.86451670" lon="12.55902060">
        <ele>306.27900</ele>
        <time>2010-01-01T01:40:09Z</time>
      </trkpt>
      <trkpt lat="42.86427300" lon="12.55868390">
        <ele>308.60100</ele>
        <time>2010-01-01T01:40:15Z</time>
      </trkpt>
      <trkpt lat="42.86401620" lon="12.55810810">
        <ele>311.34100</ele>
        <time>2010-01-01T01:40:23Z</time>
      </trkpt>
      <trkpt lat="42.86384920" lon="12.55776610">
        <ele>313.67900</ele>
        <time>2010-01-01T01:40:28Z</time>
      </trkpt>
      <trkpt lat="42.86362640" lon="12.55746710">
        <ele>314.98300</ele>
        <time>2010-01-01T01:40:33Z</time>
      </trkpt>
      <trkpt lat="42.86316080" lon="12.55718760">
        <ele>315.47000</ele>
        <time>2010-01-01T01:40:41Z</time>
      </trkpt>
      <trkpt lat="42.86271900" lon="12.55710840">
        <ele>316.44000</ele>
        <time>2010-01-01T01:40:48Z</time>
      </trkpt>
      <trkpt lat="42.86226770" lon="12.55708410">
        <ele>318.77100</ele>
        <time>2010-01-01T01:40:55Z</time>
      </trkpt>
      <trkpt lat="42.86184130" lon="12.55677330">
        <ele>321.17000</ele>
        <time>2010-01-01T01:41:03Z</time>
      </trkpt>
      <trkpt lat="42.86161310" lon="12.55622610">
        <ele>322.37100</ele>
        <time>2010-01-01T01:41:10Z</time>
      </trkpt>
      <trkpt lat="42.86138270" lon="12.55565170">
        <ele>322.71500</ele>
        <time>2010-01-01T01:41:18Z</time>
      </trkpt>
      <trkpt lat="42.86104880" lon="12.55517290">
        <ele>323.43200</ele>
        <time>2010-01-01T01:41:26Z</time>
      </trkpt>
      <trkpt lat="42.86084150" lon="12.55482690">
        <ele>325.72200</ele>
        <time>2010-01-01T01:41:31Z</time>
      </trkpt>
      <trkpt lat="42.86067770" lon="12.55422090">
        <ele>329.00800</ele>
        <time>2010-01-01T01:41:39Z</time>
      </trkpt>
      <trkpt lat="42.86058780" lon="12.55382790">
        <ele>331.60100</ele>
        <time>2010-01-01T01:41:43Z</time>
      </trkpt>
      <trkpt lat="42.86050520" lon="12.55344960">
        <ele>333.35800</ele>
        <time>2010-01-01T01:41:48Z</time>
      </trkpt>
      <trkpt lat="42.86042400" lon="12.55306670">
        <ele>336.25800</ele>
        <time>2010-01-01T01:41:53Z</time>
      </trkpt>
      <trkpt lat="42.86032050" lon="12.55248230">
        <ele>341.68100</ele>
        <time>2010-01-01T01:42:00Z</time>
      </trkpt>
      <trkpt lat="42.86025240" lon="12.55210020">
        <ele>347.77900</ele>
        <time>2010-01-01T01:42:04Z</time>
      </trkpt>
      <trkpt lat="42.86018040" lon="12.55171980">
        <ele>351.76000</ele>
        <time>2010-01-01T01:42:09Z</time>
      </trkpt>
      <trkpt lat="42.86003920" lon="12.55119470">
        <ele>353.20500</ele>
        <time>2010-01-01T01:42:16Z</time>
      </trkpt>
      <trkpt lat="42.85979870" lon="12.55072280">
        <ele>353.38000</ele>
        <time>2010-01-01T01:42:22Z</time>
      </trkpt>
      <trkpt lat="42.85955810" lon="12.55046720">
        <ele>353.84300</ele>
        <time>2010-01-01T01:42:27Z</time>
      </trkpt>
      <trkpt lat="42.85924620" lon="12.55029740">
        <ele>355.32200</ele>
        <time>2010-01-01T01:42:33Z</time>
      </trkpt>
      <trkpt lat="42.85893230" lon="12.55017790">
        <ele>357.33400</ele>
        <time>2010-01-01T01:42:38Z</time>
      </trkpt>
      <trkpt lat="42.85844450" lon="12.55000870">
        <ele>359.15900</ele>
        <time>2010-01-01T01:42:46Z</time>
      </trkpt>
      <trkpt lat="42.85810770" lon="12.54986240">
        <ele>360.33300</ele>
        <time>2010-01-01T01:42:52Z</time>
      </trkpt>
      <trkpt lat="42.85762210" lon="12.54961180">
        <ele>360.77100</ele>
        <time>2010-01-01T01:43:00Z</time>
      </trkpt>
      <trkpt lat="42.85713000" lon="12.54932310">
        <ele>360.86600</ele>
        <time>2010-01-01T01:43:08Z</time>
      </trkpt>
      <trkpt lat="42.85662860" lon="12.54898930">
        <ele>360.86800</ele>
        <time>2010-01-01T01:43:17Z</time>
      </trkpt>
      <trkpt lat="42.85630200" lon="12.54871240">
        <ele>361.16300</ele>
        <time>2010-01-01T01:43:24Z</time>
      </trkpt>
      <trkpt lat="42.85582120" lon="12.54836860">
        <ele>362.60500</ele>
        <time>2010-01-01T01:43:32Z</time>
      </trkpt>
      <trkpt lat="42.85531590" lon="12.54813080">
        <ele>365.13300</ele>
        <time>2010-01-01T01:43:41Z</time>
      </trkpt>
      <trkpt lat="42.85496020" lon="12.54804490">
        <ele>367.58300</ele>
        <time>2010-01-01T01:43:47Z</time>
      </trkpt>
      <trkpt lat="42.85441230" lon="12.54809550">
        <ele>369.78100</ele>
        <time>2010-01-01T01:43:55Z</time>
      </trkpt>
      <trkpt lat="42.85406240" lon="12.54821520">
        <ele>372.56400</ele>
        <time>2010-01-01T01:44:01Z</time>
      </trkpt>
      <trkpt lat="42.85373580" lon="12.54838130">
        <ele>376.06500</ele>
        <time>2010-01-01T01:44:07Z</time>
      </trkpt>
      <trkpt lat="42.85323850" lon="12.54863360">
        <ele>379.48700</ele>
        <time>2010-01-01T01:44:15Z</time>
      </trkpt>
      <trkpt lat="42.85289840" lon="12.54880290">
        <ele>382.21600</ele>
        <time>2010-01-01T01:44:21Z</time>
      </trkpt>
      <trkpt lat="42.85240140" lon="12.54904930">
        <ele>384.39800</ele>
        <time>2010-01-01T01:44:29Z</time>
      </trkpt>
      <trkpt lat="42.85206170" lon="12.54924920">
        <ele>386.20400</ele>
        <time>2010-01-01T01:44:35Z</time>
      </trkpt>
      <trkpt lat="42.85158940" lon="12.54962520">
        <ele>387.69200</ele>
        <time>2010-01-01T01:44:44Z</time>
      </trkpt>
      <trkpt lat="42.85112190" lon="12.55007080">
        <ele>389.14000</ele>
        <time>2010-01-01T01:44:53Z</time>
      </trkpt>
      <trkpt lat="42.85081150" lon="12.55036420">
        <ele>390.85700</ele>
        <time>2010-01-01T01:44:59Z</time>
      </trkpt>
      <trkpt lat="42.85034770" lon="12.55083700">
        <ele>392.80700</ele>
        <time>2010-01-01T01:45:09Z</time>
      </trkpt>
      <trkpt lat="42.84994270" lon="12.55132600">
        <ele>395.33800</ele>
        <time>2010-01-01T01:45:17Z</time>
      </trkpt>
      <trkpt lat="42.84971330" lon="12.55166810">
        <ele>399.06700</ele>
        <time>2010-01-01T01:45:23Z</time>
      </trkpt>
      <trkpt lat="42.84949370" lon="12.55205720">
        <ele>403.23500</ele>
        <time>2010-01-01T01:45:28Z</time>
      </trkpt>
      <trkpt lat="42.84947790" lon="12.55234880">
        <ele>406.16000</ele>
        <time>2010-01-01T01:45:32Z</time>
      </trkpt>
      <trkpt lat="42.84951400" lon="12.55265480">
        <ele>407.49000</ele>
        <time>2010-01-01T01:45:36Z</time>
      </trkpt>
      <trkpt lat="42.84955580" lon="12.55309800">
        <ele>407.93600</ele>
        <time>2010-01-01T01:45:41Z</time>
      </trkpt>
      <trkpt lat="42.84955350" lon="12.55344120">
        <ele>408.12200</ele>
        <time>2010-01-01T01:45:45Z</time>
      </trkpt>
      <trkpt lat="42.84944810" lon="12.55372000">
        <ele>408.35400</ele>
        <time>2010-01-01T01:45:48Z</time>
      </trkpt>
      <trkpt lat="42.84931500" lon="12.55398240">
        <ele>408.95000</ele>
        <time>2010-01-01T01:45:52Z</time>
      </trkpt>
      <trkpt lat="42.84915770" lon="12.55444120">
        <ele>409.90500</ele>
        <time>2010-01-01T01:45:58Z</time>
      </trkpt>
      <trkpt lat="42.84908790" lon="12.55481880">
        <ele>411.02100</ele>
        <time>2010-01-01T01:46:03Z</time>
      </trkpt>
      <trkpt lat="42.84904610" lon="12.55514140">
        <ele>412.26600</ele>
        <time>2010-01-01T01:46:07Z</time>
      </trkpt>
      <trkpt lat="42.84884240" lon="12.55553260">
        <ele>413.38300</ele>
        <time>2010-01-01T01:46:12Z</time>
      </trkpt>
      <trkpt lat="42.84846870" lon="12.55580350">
        <ele>413.98400</ele>
        <time>2010-01-01T01:46:19Z</time>
      </trkpt>
      <trkpt lat="42.84819120" lon="12.55596070">
        <ele>414.04100</ele>
        <time>2010-01-01T01:46:24Z</time>
      </trkpt>
      <trkpt lat="42.84790500" lon="12.55598680">
        <ele>413.76900</ele>
        <time>2010-01-01T01:46:28Z</time>
      </trkpt>
      <trkpt lat="42.84744430" lon="12.55598180">
        <ele>412.93500</ele>
        <time>2010-01-01T01:46:36Z</time>
      </trkpt>
      <trkpt lat="42.84698280" lon="12.55596820">
        <ele>410.98900</ele>
        <time>2010-01-01T01:46:43Z</time>
      </trkpt>
      <trkpt lat="42.84675650" lon="12.55592610">
        <ele>408.43200</ele>
        <time>2010-01-01T01:46:47Z</time>
      </trkpt>
      <trkpt lat="42.84649130" lon="12.55595630">
        <ele>406.47400</ele>
        <time>2010-01-01T01:46:51Z</time>
      </trkpt>
      <trkpt lat="42.84638410" lon="12.55617340">
        <ele>405.48900</ele>
        <time>2010-01-01T01:46:54Z</time>
      </trkpt>
      <trkpt lat="42.84650020" lon="12.55641580">
        <ele>405.14700</ele>
        <time>2010-01-01T01:46:58Z</time>
      </trkpt>
      <trkpt lat="42.84665830" lon="12.55674240">
        <ele>404.62500</ele>
        <time>2010-01-01T01:47:02Z</time>
      </trkpt>
      <trkpt lat="42.84655530" lon="12.55701660">
        <ele>403.42900</ele>
        <time>2010-01-01T01:47:06Z</time>
      </trkpt>
      <trkpt lat="42.84629200" lon="12.55714170">
        <ele>402.21000</ele>
        <time>2010-01-01T01:47:10Z</time>
      </trkpt>
      <trkpt lat="42.84607930" lon="12.55712520">
        <ele>401.63400</ele>
        <time>2010-01-01T01:47:14Z</time>
      </trkpt>
      <trkpt lat="42.84574860" lon="12.55698000">
        <ele>401.76800</ele>
        <time>2010-01-01T01:47:19Z</time>
      </trkpt>
      <trkpt lat="42.84545910" lon="12.55679880">
        <ele>402.99700</ele>
        <time>2010-01-01T01:47:24Z</time>
      </trkpt>
      <trkpt lat="42.84531660" lon="12.55674250">
        <ele>405.22800</ele>
        <time>2010-01-01T01:47:27Z</time>
      </trkpt>
      <trkpt lat="42.84519550" lon="12.55691090">
        <ele>407.38200</ele>
        <time>2010-01-01T01:47:29Z</time>
      </trkpt>
      <trkpt lat="42.84526760" lon="12.55727170">
        <ele>408.90400</ele>
        <time>2010-01-01T01:47:34Z</time>
      </trkpt>
      <trkpt lat="42.84540640" lon="12.55763820">
        <ele>410.22000</ele>
        <time>2010-01-01T01:47:39Z</time>
      </trkpt>
      <trkpt lat="42.84545730" lon="12.55788820">
        <ele>411.45000</ele>
        <time>2010-01-01T01:47:42Z</time>
      </trkpt>
      <trkpt lat="42.84532970" lon="12.55820450">
        <ele>412.35000</ele>
        <time>2010-01-01T01:47:46Z</time>
      </trkpt>
      <trkpt lat="42.84514240" lon="12.55839040">
        <ele>412.88200</ele>
        <time>2010-01-01T01:47:50Z</time>
      </trkpt>
      <trkpt lat="42.84473520" lon="12.55861510">
        <ele>413.19100</ele>
        <time>2010-01-01T01:47:57Z</time>
      </trkpt>
      <trkpt lat="42.84430590" lon="12.55873790">
        <ele>413.70200</ele>
        <time>2010-01-01T01:48:04Z</time>
      </trkpt>
      <trkpt lat="42.84398540" lon="12.55871800">
        <ele>414.63600</ele>
        <time>2010-01-01T01:48:09Z</time>
      </trkpt>
      <trkpt lat="42.84366630" lon="12.55868460">
        <ele>415.51200</ele>
        <time>2010-01-01T01:48:14Z</time>
      </trkpt>
      <trkpt lat="42.84321420" lon="12.55863310">
        <ele>415.90500</ele>
        <time>2010-01-01T01:48:21Z</time>
      </trkpt>
      <trkpt lat="42.84281470" lon="12.55860090">
        <ele>415.75100</ele>
        <time>2010-01-01T01:48:28Z</time>
      </trkpt>
      <trkpt lat="42.84257820" lon="12.55865580">
        <ele>414.95200</ele>
        <time>2010-01-01T01:48:32Z</time>
      </trkpt>
      <trkpt lat="42.84249010" lon="12.55894840">
        <ele>413.80000</ele>
        <time>2010-01-01T01:48:35Z</time>
      </trkpt>
      <trkpt lat="42.84259060" lon="12.55927310">
        <ele>412.66300</ele>
        <time>2010-01-01T01:48:39Z</time>
      </trkpt>
      <trkpt lat="42.84289430" lon="12.55953520">
        <ele>411.44600</ele>
        <time>2010-01-01T01:48:45Z</time>
      </trkpt>
      <trkpt lat="42.84308930" lon="12.55976080">
        <ele>410.13100</ele>
        <time>2010-01-01T01:48:49Z</time>
      </trkpt>
      <trkpt lat="42.84336780" lon="12.56011600">
        <ele>409.04300</ele>
        <time>2010-01-01T01:48:55Z</time>
      </trkpt>
      <trkpt lat="42.84350630" lon="12.56056630">
        <ele>408.40600</ele>
        <time>2010-01-01T01:49:01Z</time>
      </trkpt>
      <trkpt lat="42.84353910" lon="12.56097810">
        <ele>408.23600</ele>
        <time>2010-01-01T01:49:06Z</time>
      </trkpt>
      <trkpt lat="42.84378630" lon="12.56118460">
        <ele>408.37000</ele>
        <time>2010-01-01T01:49:11Z</time>
      </trkpt>
      <trkpt lat="42.84407970" lon="12.56141820">
        <ele>408.56400</ele>
        <time>2010-01-01T01:49:16Z</time>
      </trkpt>
      <trkpt lat="42.84428800" lon="12.56164270">
        <ele>409.29900</ele>
        <time>2010-01-01T01:49:20Z</time>
      </trkpt>
      <trkpt lat="42.84428960" lon="12.56180160">
        <ele>411.15600</ele>
        <time>2010-01-01T01:49:22Z</time>
      </trkpt>
      <trkpt lat="42.84413420" lon="12.56170920">
        <ele>413.52500</ele>
        <time>2010-01-01T01:49:25Z</time>
      </trkpt>
      <trkpt lat="42.84402750" lon="12.56159000">
        <ele>415.49300</ele>
        <time>2010-01-01T01:49:27Z</time>
      </trkpt>
      <trkpt lat="42.84391680" lon="12.56148300">
        <ele>417.24200</ele>
        <time>2010-01-01T01:49:29Z</time>
      </trkpt>
      <trkpt lat="42.84376070" lon="12.56140040">
        <ele>419.40900</ele>
        <time>2010-01-01T01:49:32Z</time>
      </trkpt>
      <trkpt lat="42.84355220" lon="12.56131810">
        <ele>421.80800</ele>
        <time>2010-01-01T01:49:35Z</time>
      </trkpt>
      <trkpt lat="42.84339140" lon="12.56126200">
        <ele>423.88300</ele>
        <time>2010-01-01T01:49:38Z</time>
      </trkpt>
      <trkpt lat="42.84310540" lon="12.56115730">
        <ele>425.67500</ele>
        <time>2010-01-01T01:49:43Z</time>
      </trkpt>
      <trkpt lat="42.84295320" lon="12.56100350">
        <ele>427.11700</ele>
        <time>2010-01-01T01:49:46Z</time>
      </trkpt>
      <trkpt lat="42.84278630" lon="12.56066090">
        <ele>427.85800</ele>
        <time>2010-01-01T01:49:51Z</time>
      </trkpt>
      <trkpt lat="42.84250580" lon="12.56043790">
        <ele>428.00400</ele>
        <time>2010-01-01T01:49:56Z</time>
      </trkpt>
      <trkpt lat="42.84227830" lon="12.56033240">
        <ele>427.85200</ele>
        <time>2010-01-01T01:50:00Z</time>
      </trkpt>
      <trkpt lat="42.84194740" lon="12.56025370">
        <ele>427.60000</ele>
        <time>2010-01-01T01:50:05Z</time>
      </trkpt>
      <trkpt lat="42.84156510" lon="12.56023610">
        <ele>427.40300</ele>
        <time>2010-01-01T01:50:11Z</time>
      </trkpt>
      <trkpt lat="42.84123970" lon="12.56022290">
        <ele>427.32600</ele>
        <time>2010-01-01T01:50:16Z</time>
      </trkpt>
      <trkpt lat="42.84095160" lon="12.56013170">
        <ele>427.33000</ele>
        <time>2010-01-01T01:50:21Z</time>
      </trkpt>
      <trkpt lat="42.84081710" lon="12.56011340">
        <ele>427.88600</ele>
        <time>2010-01-01T01:50:23Z</time>
      </trkpt>
      <trkpt lat="42.84089310" lon="12.56027770">
        <ele>431.91000</ele>
        <time>2010-01-01T01:50:26Z</time>
      </trkpt>
      <trkpt lat="42.84106130" lon="12.56035850">
        <ele>436.44900</ele>
        <time>2010-01-01T01:50:28Z</time>
      </trkpt>
      <trkpt lat="42.84137360" lon="12.56047210">
        <ele>441.64200</ele>
        <time>2010-01-01T01:50:34Z</time>
      </trkpt>
      <trkpt lat="42.84155440" lon="12.56051220">
        <ele>445.16400</ele>
        <time>2010-01-01T01:50:37Z</time>
      </trkpt>
      <trkpt lat="42.84178810" lon="12.56058640">
        <ele>446.69500</ele>
        <time>2010-01-01T01:50:40Z</time>
      </trkpt>
      <trkpt lat="42.84214140" lon="12.56078230">
        <ele>447.10300</ele>
        <time>2010-01-01T01:50:46Z</time>
      </trkpt>
      <trkpt lat="42.84235450" lon="12.56095070">
        <ele>447.59800</ele>
        <time>2010-01-01T01:50:50Z</time>
      </trkpt>
      <trkpt lat="42.84241220" lon="12.56123170">
        <ele>449.03000</ele>
        <time>2010-01-01T01:50:54Z</time>
      </trkpt>
      <trkpt lat="42.84229610" lon="12.56136730">
        <ele>450.83100</ele>
        <time>2010-01-01T01:50:56Z</time>
      </trkpt>
      <trkpt lat="42.84216130" lon="12.56144560">
        <ele>452.04600</ele>
        <time>2010-01-01T01:50:59Z</time>
      </trkpt>
      <trkpt lat="42.84203900" lon="12.56145530">
        <ele>453.03100</ele>
        <time>2010-01-01T01:51:01Z</time>
      </trkpt>
      <trkpt lat="42.84173590" lon="12.56131810">
        <ele>454.81700</ele>
        <time>2010-01-01T01:51:06Z</time>
      </trkpt>
      <trkpt lat="42.84137380" lon="12.56114750">
        <ele>457.33200</ele>
        <time>2010-01-01T01:51:12Z</time>
      </trkpt>
      <trkpt lat="42.84094110" lon="12.56092730">
        <ele>459.46300</ele>
        <time>2010-01-01T01:51:19Z</time>
      </trkpt>
      <trkpt lat="42.84047480" lon="12.56080220">
        <ele>460.61500</ele>
        <time>2010-01-01T01:51:27Z</time>
      </trkpt>
      <trkpt lat="42.84017790" lon="12.56077460">
        <ele>461.13100</ele>
        <time>2010-01-01T01:51:32Z</time>
      </trkpt>
      <trkpt lat="42.83977260" lon="12.56077340">
        <ele>462.17300</ele>
        <time>2010-01-01T01:51:38Z</time>
      </trkpt>
      <trkpt lat="42.83955500" lon="12.56080910">
        <ele>464.77100</ele>
        <time>2010-01-01T01:51:42Z</time>
      </trkpt>
      <trkpt lat="42.83921670" lon="12.56090330">
        <ele>468.11700</ele>
        <time>2010-01-01T01:51:47Z</time>
      </trkpt>
      <trkpt lat="42.83896300" lon="12.56094470">
        <ele>470.72800</ele>
        <time>2010-01-01T01:51:51Z</time>
      </trkpt>
      <trkpt lat="42.83851140" lon="12.56094720">
        <ele>472.24600</ele>
        <time>2010-01-01T01:51:58Z</time>
      </trkpt>
      <trkpt lat="42.83820880" lon="12.56091270">
        <ele>472.90500</ele>
        <time>2010-01-01T01:52:03Z</time>
      </trkpt>
      <trkpt lat="42.83775210" lon="12.56066230">
        <ele>472.96800</ele>
        <time>2010-01-01T01:52:11Z</time>
      </trkpt>
      <trkpt lat="42.83745820" lon="12.56044300">
        <ele>472.30100</ele>
        <time>2010-01-01T01:52:17Z</time>
      </trkpt>
      <trkpt lat="42.83703310" lon="12.56011810">
        <ele>470.73500</ele>
        <time>2010-01-01T01:52:24Z</time>
      </trkpt>
      <trkpt lat="42.83677650" lon="12.55994540">
        <ele>469.00000</ele>
        <time>2010-01-01T01:52:29Z</time>
      </trkpt>
      <trkpt lat="42.83648920" lon="12.55973050">
        <ele>467.86900</ele>
        <time>2010-01-01T01:52:34Z</time>
      </trkpt>
      <trkpt lat="42.83638340" lon="12.55966800">
        <ele>467.39200</ele>
        <time>2010-01-01T01:52:36Z</time>
      </trkpt>
      <trkpt lat="42.83631860" lon="12.55969370">
        <ele>467.44600</ele>
        <time>2010-01-01T01:52:37Z</time>
      </trkpt>
      <trkpt lat="42.83621740" lon="12.55975110">
        <ele>467.76900</ele>
        <time>2010-01-01T01:52:39Z</time>
      </trkpt>
      <trkpt lat="42.83599430" lon="12.56003380">
        <ele>468.05700</ele>
        <time>2010-01-01T01:52:44Z</time>
      </trkpt>
      <trkpt lat="42.83586140" lon="12.56028630">
        <ele>468.63900</ele>
        <time>2010-01-01T01:52:47Z</time>
      </trkpt>
      <trkpt lat="42.83569510" lon="12.56077320">
        <ele>470.01700</ele>
        <time>2010-01-01T01:52:54Z</time>
      </trkpt>
      <trkpt lat="42.83558070" lon="12.56108900">
        <ele>471.69900</ele>
        <time>2010-01-01T01:52:58Z</time>
      </trkpt>
      <trkpt lat="42.83544640" lon="12.56140920">
        <ele>473.14400</ele>
        <time>2010-01-01T01:53:02Z</time>
      </trkpt>
      <trkpt lat="42.83522050" lon="12.56185770">
        <ele>475.12800</ele>
        <time>2010-01-01T01:53:09Z</time>
      </trkpt>
      <trkpt lat="42.83499620" lon="12.56228570">
        <ele>478.16000</ele>
        <time>2010-01-01T01:53:15Z</time>
      </trkpt>
      <trkpt lat="42.83477880" lon="12.56257630">
        <ele>481.76600</ele>
        <time>2010-01-01T01:53:20Z</time>
      </trkpt>
      <trkpt lat="42.83456630" lon="12.56259400">
        <ele>485.16900</ele>
        <time>2010-01-01T01:53:23Z</time>
      </trkpt>
      <trkpt lat="42.83424970" lon="12.56248640">
        <ele>487.56900</ele>
        <time>2010-01-01T01:53:28Z</time>
      </trkpt>
      <trkpt lat="42.83403250" lon="12.56227890">
        <ele>488.63700</ele>
        <time>2010-01-01T01:53:33Z</time>
      </trkpt>
      <trkpt lat="42.83386770" lon="12.56227060">
        <ele>488.93900</ele>
        <time>2010-01-01T01:53:35Z</time>
      </trkpt>
      <trkpt lat="42.83381420" lon="12.56256090">
        <ele>489.07200</ele>
        <time>2010-01-01T01:53:39Z</time>
      </trkpt>
      <trkpt lat="42.83398270" lon="12.56307330">
        <ele>489.31800</ele>
        <time>2010-01-01T01:53:45Z</time>
      </trkpt>
      <trkpt lat="42.83412000" lon="12.56336180">
        <ele>489.72600</ele>
        <time>2010-01-01T01:53:49Z</time>
      </trkpt>
      <trkpt lat="42.83425660" lon="12.56360670">
        <ele>490.20100</ele>
        <time>2010-01-01T01:53:53Z</time>
      </trkpt>
      <trkpt lat="42.83444750" lon="12.56391940">
        <ele>491.09700</ele>
        <time>2010-01-01T01:53:58Z</time>
      </trkpt>
      <trkpt lat="42.83444360" lon="12.56404310">
        <ele>492.88300</ele>
        <time>2010-01-01T01:53:59Z</time>
      </trkpt>
      <trkpt lat="42.83422010" lon="12.56388360">
        <ele>496.19600</ele>
        <time>2010-01-01T01:54:03Z</time>
      </trkpt>
      <trkpt lat="42.83410090" lon="12.56374050">
        <ele>497.23900</ele>
        <time>2010-01-01T01:54:06Z</time>
      </trkpt>
      <trkpt lat="42.83388130" lon="12.56345590">
        <ele>498.74200</ele>
        <time>2010-01-01T01:54:11Z</time>
      </trkpt>
      <trkpt lat="42.83361220" lon="12.56320190">
        <ele>500.42200</ele>
        <time>2010-01-01T01:54:16Z</time>
      </trkpt>
      <trkpt lat="42.83341800" lon="12.56305460">
        <ele>501.65800</ele>
        <time>2010-01-01T01:54:19Z</time>
      </trkpt>
      <trkpt lat="42.83312780" lon="12.56278680">
        <ele>502.94800</ele>
        <time>2010-01-01T01:54:25Z</time>
      </trkpt>
      <trkpt lat="42.83292600" lon="12.56257170">
        <ele>505.22300</ele>
        <time>2010-01-01T01:54:29Z</time>
      </trkpt>
      <trkpt lat="42.83276420" lon="12.56235100">
        <ele>508.25300</ele>
        <time>2010-01-01T01:54:33Z</time>
      </trkpt>
      <trkpt lat="42.83263600" lon="12.56201550">
        <ele>511.23300</ele>
        <time>2010-01-01T01:54:37Z</time>
      </trkpt>
      <trkpt lat="42.83255360" lon="12.56186930">
        <ele>514.33800</ele>
        <time>2010-01-01T01:54:39Z</time>
      </trkpt>
      <trkpt lat="42.83245600" lon="12.56185960">
        <ele>517.76100</ele>
        <time>2010-01-01T01:54:41Z</time>
      </trkpt>
      <trkpt lat="42.83243200" lon="12.56213920">
        <ele>520.92800</ele>
        <time>2010-01-01T01:54:44Z</time>
      </trkpt>
      <trkpt lat="42.83253210" lon="12.56257200">
        <ele>523.24100</ele>
        <time>2010-01-01T01:54:50Z</time>
      </trkpt>
      <trkpt lat="42.83259190" lon="12.56290580">
        <ele>524.55600</ele>
        <time>2010-01-01T01:54:54Z</time>
      </trkpt>
      <trkpt lat="42.83252720" lon="12.56307030">
        <ele>525.14900</ele>
        <time>2010-01-01T01:54:56Z</time>
      </trkpt>
      <trkpt lat="42.83233670" lon="12.56317930">
        <ele>525.49600</ele>
        <time>2010-01-01T01:54:59Z</time>
      </trkpt>
      <trkpt lat="42.83204610" lon="12.56302290">
        <ele>525.73500</ele>
        <time>2010-01-01T01:55:04Z</time>
      </trkpt>
      <trkpt lat="42.83186680" lon="12.56291520">
        <ele>525.81600</ele>
        <time>2010-01-01T01:55:07Z</time>
      </trkpt>
      <trkpt lat="42.83168640" lon="12.56280340">
        <ele>525.79800</ele>
        <time>2010-01-01T01:55:10Z</time>
      </trkpt>
      <trkpt lat="42.83140960" lon="12.56272040">
        <ele>525.75200</ele>
        <time>2010-01-01T01:55:15Z</time>
      </trkpt>
      <trkpt lat="42.83121850" lon="12.56293520">
        <ele>525.73200</ele>
        <time>2010-01-01T01:55:19Z</time>
      </trkpt>
      <trkpt lat="42.83107630" lon="12.56312140">
        <ele>525.84400</ele>
        <time>2010-01-01T01:55:22Z</time>
      </trkpt>
      <trkpt lat="42.83084030" lon="12.56324720">
        <ele>526.63700</ele>
        <time>2010-01-01T01:55:26Z</time>
      </trkpt>
      <trkpt lat="42.83052290" lon="12.56329810">
        <ele>528.25000</ele>
        <time>2010-01-01T01:55:31Z</time>
      </trkpt>
      <trkpt lat="42.83032230" lon="12.56365170">
        <ele>529.99000</ele>
        <time>2010-01-01T01:55:37Z</time>
      </trkpt>
      <trkpt lat="42.83027280" lon="12.56400020">
        <ele>531.37600</ele>
        <time>2010-01-01T01:55:41Z</time>
      </trkpt>
      <trkpt lat="42.83022570" lon="12.56435400">
        <ele>532.33100</ele>
        <time>2010-01-01T01:55:45Z</time>
      </trkpt>
      <trkpt lat="42.83011060" lon="12.56476460">
        <ele>532.74300</ele>
        <time>2010-01-01T01:55:50Z</time>
      </trkpt>
      <trkpt lat="42.82995460" lon="12.56482780">
        <ele>532.90000</ele>
        <time>2010-01-01T01:55:53Z</time>
      </trkpt>
      <trkpt lat="42.82978070" lon="12.56485050">
        <ele>533.60000</ele>
        <time>2010-01-01T01:55:55Z</time>
      </trkpt>
      <trkpt lat="42.82942820" lon="12.56463890">
        <ele>535.18500</ele>
        <time>2010-01-01T01:56:02Z</time>
      </trkpt>
      <trkpt lat="42.82921420" lon="12.56432150">
        <ele>536.89000</ele>
        <time>2010-01-01T01:56:07Z</time>
      </trkpt>
      <trkpt lat="42.82898470" lon="12.56400230">
        <ele>538.27700</ele>
        <time>2010-01-01T01:56:12Z</time>
      </trkpt>
      <trkpt lat="42.82861450" lon="12.56359310">
        <ele>539.71100</ele>
        <time>2010-01-01T01:56:20Z</time>
      </trkpt>
      <trkpt lat="42.82828360" lon="12.56323670">
        <ele>541.12700</ele>
        <time>2010-01-01T01:56:26Z</time>
      </trkpt>
      <trkpt lat="42.82804020" lon="12.56302310">
        <ele>542.26800</ele>
        <time>2010-01-01T01:56:31Z</time>
      </trkpt>
      <trkpt lat="42.82789380" lon="12.56304530">
        <ele>543.13000</ele>
        <time>2010-01-01T01:56:33Z</time>
      </trkpt>
      <trkpt lat="42.82783030" lon="12.56344430">
        <ele>544.24600</ele>
        <time>2010-01-01T01:56:38Z</time>
      </trkpt>
      <trkpt lat="42.82787780" lon="12.56380400">
        <ele>545.98300</ele>
        <time>2010-01-01T01:56:42Z</time>
      </trkpt>
      <trkpt lat="42.82796510" lon="12.56436130">
        <ele>547.58300</ele>
        <time>2010-01-01T01:56:49Z</time>
      </trkpt>
      <trkpt lat="42.82803660" lon="12.56470140">
        <ele>548.29100</ele>
        <time>2010-01-01T01:56:53Z</time>
      </trkpt>
      <trkpt lat="42.82810940" lon="12.56518640">
        <ele>548.36800</ele>
        <time>2010-01-01T01:56:59Z</time>
      </trkpt>
      <trkpt lat="42.82801760" lon="12.56560710">
        <ele>548.12200</ele>
        <time>2010-01-01T01:57:04Z</time>
      </trkpt>
      <trkpt lat="42.82784470" lon="12.56588080">
        <ele>547.72600</ele>
        <time>2010-01-01T01:57:08Z</time>
      </trkpt>
      <trkpt lat="42.82765760" lon="12.56617220">
        <ele>547.39700</ele>
        <time>2010-01-01T01:57:13Z</time>
      </trkpt>
      <trkpt lat="42.82750800" lon="12.56644570">
        <ele>547.33000</ele>
        <time>2010-01-01T01:57:17Z</time>
      </trkpt>
      <trkpt lat="42.82758840" lon="12.56671070">
        <ele>547.59700</ele>
        <time>2010-01-01T01:57:20Z</time>
      </trkpt>
      <trkpt lat="42.82776090" lon="12.56685220">
        <ele>548.15200</ele>
        <time>2010-01-01T01:57:24Z</time>
      </trkpt>
      <trkpt lat="42.82807190" lon="12.56719900">
        <ele>548.66600</ele>
        <time>2010-01-01T01:57:30Z</time>
      </trkpt>
      <trkpt lat="42.82838430" lon="12.56765710">
        <ele>548.82100</ele>
        <time>2010-01-01T01:57:37Z</time>
      </trkpt>
      <trkpt lat="42.82861160" lon="12.56794700">
        <ele>548.70400</ele>
        <time>2010-01-01T01:57:42Z</time>
      </trkpt>
      <trkpt lat="42.82892650" lon="12.56831940">
        <ele>548.25500</ele>
        <time>2010-01-01T01:57:49Z</time>
      </trkpt>
      <trkpt lat="42.82907760" lon="12.56852330">
        <ele>547.35100</ele>
        <time>2010-01-01T01:57:52Z</time>
      </trkpt>
      <trkpt lat="42.82927010" lon="12.56869090">
        <ele>546.04300</ele>
        <time>2010-01-01T01:57:56Z</time>
      </trkpt>
      <trkpt lat="42.82962640" lon="12.56881810">
        <ele>544.47000</ele>
        <time>2010-01-01T01:58:02Z</time>
      </trkpt>
      <trkpt lat="42.82985530" lon="12.56898330">
        <ele>543.09700</ele>
        <time>2010-01-01T01:58:06Z</time>
      </trkpt>
      <trkpt lat="42.83010740" lon="12.56918870">
        <ele>542.38400</ele>
        <time>2010-01-01T01:58:11Z</time>
      </trkpt>
      <trkpt lat="42.83034030" lon="12.56937550">
        <ele>542.15700</ele>
        <time>2010-01-01T01:58:15Z</time>
      </trkpt>
      <trkpt lat="42.83066490" lon="12.56959060">
        <ele>541.93500</ele>
        <time>2010-01-01T01:58:21Z</time>
      </trkpt>
      <trkpt lat="42.83095240" lon="12.56994730">
        <ele>541.42400</ele>
        <time>2010-01-01T01:58:27Z</time>
      </trkpt>
      <trkpt lat="42.83106090" lon="12.57028760">
        <ele>540.86200</ele>
        <time>2010-01-01T01:58:32Z</time>
      </trkpt>
      <trkpt lat="42.83109230" lon="12.57069350">
        <ele>540.47300</ele>
        <time>2010-01-01T01:58:36Z</time>
      </trkpt>
      <trkpt lat="42.83112140" lon="12.57121590">
        <ele>540.12100</ele>
        <time>2010-01-01T01:58:42Z</time>
      </trkpt>
      <trkpt lat="42.83123000" lon="12.57161590">
        <ele>539.82600</ele>
        <time>2010-01-01T01:58:47Z</time>
      </trkpt>
      <trkpt lat="42.83137970" lon="12.57171370">
        <ele>539.84500</ele>
        <time>2010-01-01T01:58:50Z</time>
      </trkpt>
      <trkpt lat="42.83175940" lon="12.57177030">
        <ele>540.29700</ele>
        <time>2010-01-01T01:58:56Z</time>
      </trkpt>
      <trkpt lat="42.83218610" lon="12.57179550">
        <ele>541.37900</ele>
        <time>2010-01-01T01:59:03Z</time>
      </trkpt>
      <trkpt lat="42.83255020" lon="12.57201800">
        <ele>543.15500</ele>
        <time>2010-01-01T01:59:09Z</time>
      </trkpt>
      <trkpt lat="42.83291520" lon="12.57243280">
        <ele>545.10100</ele>
        <time>2010-01-01T01:59:17Z</time>
      </trkpt>
      <trkpt lat="42.83326560" lon="12.57283570">
        <ele>546.56500</ele>
        <time>2010-01-01T01:59:24Z</time>
      </trkpt>
      <trkpt lat="42.83347120" lon="12.57307710">
        <ele>547.70800</ele>
        <time>2010-01-01T01:59:29Z</time>
      </trkpt>
      <trkpt lat="42.83354130" lon="12.57323570">
        <ele>549.26100</ele>
        <time>2010-01-01T01:59:31Z</time>
      </trkpt>
      <trkpt lat="42.83366440" lon="12.57367150">
        <ele>551.37400</ele>
        <time>2010-01-01T01:59:36Z</time>
      </trkpt>
      <trkpt lat="42.83371160" lon="12.57413770">
        <ele>553.27000</ele>
        <time>2010-01-01T01:59:42Z</time>
      </trkpt>
      <trkpt lat="42.83357590" lon="12.57452300">
        <ele>554.30600</ele>
        <time>2010-01-01T01:59:47Z</time>
      </trkpt>
      <trkpt lat="42.83348370" lon="12.57490690">
        <ele>554.54500</ele>
        <time>2010-01-01T01:59:52Z</time>
      </trkpt>
      <trkpt lat="42.83352670" lon="12.57518920">
        <ele>554.39200</ele>
        <time>2010-01-01T01:59:55Z</time>
      </trkpt>
      <trkpt lat="42.83363550" lon="12.57552920">
        <ele>553.65100</ele>
        <time>2010-01-01T01:59:59Z</time>
      </trkpt>
      <trkpt lat="42.83382520" lon="12.57610870">
        <ele>552.05500</ele>
        <time>2010-01-01T02:00:07Z</time>
      </trkpt>
      <trkpt lat="42.83389450" lon="12.57657020">
        <ele>550.19400</ele>
        <time>2010-01-01T02:00:12Z</time>
      </trkpt>
      <trkpt lat="42.83381560" lon="12.57676870">
        <ele>548.35200</ele>
        <time>2010-01-01T02:00:15Z</time>
      </trkpt>
      <trkpt lat="42.83360770" lon="12.57699510">
        <ele>545.28800</ele>
        <time>2010-01-01T02:00:19Z</time>
      </trkpt>
      <trkpt lat="42.83344280" lon="12.57707970">
        <ele>540.80400</ele>
        <time>2010-01-01T02:00:22Z</time>
      </trkpt>
      <trkpt lat="42.83326780" lon="12.57717710">
        <ele>536.97000</ele>
        <time>2010-01-01T02:00:25Z</time>
      </trkpt>
      <trkpt lat="42.83309610" lon="12.57718860">
        <ele>535.14700</ele>
        <time>2010-01-01T02:00:28Z</time>
      </trkpt>
      <trkpt lat="42.83305430" lon="12.57722550">
        <ele>535.25400</ele>
        <time>2010-01-01T02:00:29Z</time>
      </trkpt>
      <trkpt lat="42.83296860" lon="12.57731510">
        <ele>535.00700</ele>
        <time>2010-01-01T02:00:30Z</time>
      </trkpt>
      <trkpt lat="42.83288350" lon="12.57742500">
        <ele>534.72100</ele>
        <time>2010-01-01T02:00:32Z</time>
      </trkpt>
      <trkpt lat="42.83280010" lon="12.57765400">
        <ele>534.35700</ele>
        <time>2010-01-01T02:00:35Z</time>
      </trkpt>
      <trkpt lat="42.83276650" lon="12.57784400">
        <ele>533.74000</ele>
        <time>2010-01-01T02:00:38Z</time>
      </trkpt>
      <trkpt lat="42.83283250" lon="12.57811760">
        <ele>533.01300</ele>
        <time>2010-01-01T02:00:41Z</time>
      </trkpt>
      <trkpt lat="42.83286480" lon="12.57827220">
        <ele>532.21000</ele>
        <time>2010-01-01T02:00:43Z</time>
      </trkpt>
      <trkpt lat="42.83307450" lon="12.57853000">
        <ele>531.28300</ele>
        <time>2010-01-01T02:00:47Z</time>
      </trkpt>
      <trkpt lat="42.83330960" lon="12.57867030">
        <ele>530.49600</ele>
        <time>2010-01-01T02:00:52Z</time>
      </trkpt>
      <trkpt lat="42.83362700" lon="12.57879010">
        <ele>530.02800</ele>
        <time>2010-01-01T02:00:57Z</time>
      </trkpt>
      <trkpt lat="42.83388490" lon="12.57886180">
        <ele>529.60000</ele>
        <time>2010-01-01T02:01:01Z</time>
      </trkpt>
      <trkpt lat="42.83403310" lon="12.57892060">
        <ele>528.82500</ele>
        <time>2010-01-01T02:01:04Z</time>
      </trkpt>
      <trkpt lat="42.83420590" lon="12.57896150">
        <ele>526.98300</ele>
        <time>2010-01-01T02:01:06Z</time>
      </trkpt>
      <trkpt lat="42.83430880" lon="12.57902410">
        <ele>525.87400</ele>
        <time>2010-01-01T02:01:08Z</time>
      </trkpt>
      <trkpt lat="42.83446010" lon="12.57907840">
        <ele>523.79500</ele>
        <time>2010-01-01T02:01:11Z</time>
      </trkpt>
      <trkpt lat="42.83461120" lon="12.57907260">
        <ele>521.30800</ele>
        <time>2010-01-01T02:01:13Z</time>
      </trkpt>
      <trkpt lat="42.83477140" lon="12.57896280">
        <ele>519.61100</ele>
        <time>2010-01-01T02:01:16Z</time>
      </trkpt>
      <trkpt lat="42.83472040" lon="12.57873450">
        <ele>519.01300</ele>
        <time>2010-01-01T02:01:19Z</time>
      </trkpt>
      <trkpt lat="42.83467810" lon="12.57824430">
        <ele>518.60900</ele>
        <time>2010-01-01T02:01:25Z</time>
      </trkpt>
      <trkpt lat="42.83465680" lon="12.57790320">
        <ele>517.40000</ele>
        <time>2010-01-01T02:01:29Z</time>
      </trkpt>
      <trkpt lat="42.83477900" lon="12.57743540">
        <ele>515.45100</ele>
        <time>2010-01-01T02:01:34Z</time>
      </trkpt>
      <trkpt lat="42.83490280" lon="12.57723270">
        <ele>513.52900</ele>
        <time>2010-01-01T02:01:37Z</time>
      </trkpt>
      <trkpt lat="42.83529000" lon="12.57730160">
        <ele>511.94100</ele>
        <time>2010-01-01T02:01:44Z</time>
      </trkpt>
      <trkpt lat="42.83575160" lon="12.57743070">
        <ele>510.70700</ele>
        <time>2010-01-01T02:01:51Z</time>
      </trkpt>
      <trkpt lat="42.83597010" lon="12.57748830">
        <ele>508.72400</ele>
        <time>2010-01-01T02:01:55Z</time>
      </trkpt>
      <trkpt lat="42.83617330" lon="12.57768800">
        <ele>505.19300</ele>
        <time>2010-01-01T02:01:59Z</time>
      </trkpt>
      <trkpt lat="42.83609090" lon="12.57795340">
        <ele>501.46900</ele>
        <time>2010-01-01T02:02:02Z</time>
      </trkpt>
      <trkpt lat="42.83582530" lon="12.57792630">
        <ele>498.76300</ele>
        <time>2010-01-01T02:02:07Z</time>
      </trkpt>
      <trkpt lat="42.83545010" lon="12.57778610">
        <ele>496.83100</ele>
        <time>2010-01-01T02:02:13Z</time>
      </trkpt>
      <trkpt lat="42.83521180" lon="12.57776310">
        <ele>494.95400</ele>
        <time>2010-01-01T02:02:17Z</time>
      </trkpt>
      <trkpt lat="42.83494830" lon="12.57794440">
        <ele>492.58400</ele>
        <time>2010-01-01T02:02:21Z</time>
      </trkpt>
      <trkpt lat="42.83495950" lon="12.57829160">
        <ele>490.41300</ele>
        <time>2010-01-01T02:02:25Z</time>
      </trkpt>
      <trkpt lat="42.83520430" lon="12.57890990">
        <ele>489.16900</ele>
        <time>2010-01-01T02:02:34Z</time>
      </trkpt>
      <trkpt lat="42.83540440" lon="12.57928150">
        <ele>488.03400</ele>
        <time>2010-01-01T02:02:39Z</time>
      </trkpt>
      <trkpt lat="42.83555220" lon="12.57973580">
        <ele>486.18400</ele>
        <time>2010-01-01T02:02:45Z</time>
      </trkpt>
      <trkpt lat="42.83577210" lon="12.58032340">
        <ele>483.99600</ele>
        <time>2010-01-01T02:02:53Z</time>
      </trkpt>
      <trkpt lat="42.83597790" lon="12.58063910">
        <ele>481.14900</ele>
        <time>2010-01-01T02:02:58Z</time>
      </trkpt>
      <trkpt lat="42.83627350" lon="12.58102470">
        <ele>476.74700</ele>
        <time>2010-01-01T02:03:04Z</time>
      </trkpt>
      <trkpt lat="42.83640120" lon="12.58123790">
        <ele>472.13000</ele>
        <time>2010-01-01T02:03:07Z</time>
      </trkpt>
      <trkpt lat="42.83633880" lon="12.58158890">
        <ele>469.30800</ele>
        <time>2010-01-01T02:03:12Z</time>
      </trkpt>
      <trkpt lat="42.83602090" lon="12.58197760">
        <ele>468.25300</ele>
        <time>2010-01-01T02:03:18Z</time>
      </trkpt>
      <trkpt lat="42.83583460" lon="12.58220590">
        <ele>467.68400</ele>
        <time>2010-01-01T02:03:22Z</time>
      </trkpt>
      <trkpt lat="42.83569640" lon="12.58257630">
        <ele>466.41800</ele>
        <time>2010-01-01T02:03:27Z</time>
      </trkpt>
      <trkpt lat="42.83578460" lon="12.58280950">
        <ele>464.38500</ele>
        <time>2010-01-01T02:03:30Z</time>
      </trkpt>
      <trkpt lat="42.83614860" lon="12.58309240">
        <ele>462.37200</ele>
        <time>2010-01-01T02:03:37Z</time>
      </trkpt>
      <trkpt lat="42.83649890" lon="12.58348250">
        <ele>460.86400</ele>
        <time>2010-01-01T02:03:44Z</time>
      </trkpt>
      <trkpt lat="42.83671210" lon="12.58365110">
        <ele>459.26400</ele>
        <time>2010-01-01T02:03:48Z</time>
      </trkpt>
      <trkpt lat="42.83713170" lon="12.58370900">
        <ele>456.31300</ele>
        <time>2010-01-01T02:03:55Z</time>
      </trkpt>
      <trkpt lat="42.83746040" lon="12.58362270">
        <ele>451.94800</ele>
        <time>2010-01-01T02:04:00Z</time>
      </trkpt>
      <trkpt lat="42.83777740" lon="12.58350030">
        <ele>447.91500</ele>
        <time>2010-01-01T02:04:06Z</time>
      </trkpt>
      <trkpt lat="42.83811900" lon="12.58337720">
        <ele>445.65600</ele>
        <time>2010-01-01T02:04:11Z</time>
      </trkpt>
      <trkpt lat="42.83862640" lon="12.58327550">
        <ele>444.97800</ele>
        <time>2010-01-01T02:04:20Z</time>
      </trkpt>
      <trkpt lat="42.83895470" lon="12.58339200">
        <ele>444.79500</ele>
        <time>2010-01-01T02:04:25Z</time>
      </trkpt>
      <trkpt lat="42.83923070" lon="12.58362160">
        <ele>443.79500</ele>
        <time>2010-01-01T02:04:30Z</time>
      </trkpt>
      <trkpt lat="42.83948710" lon="12.58385590">
        <ele>441.61200</ele>
        <time>2010-01-01T02:04:35Z</time>
      </trkpt>
      <trkpt lat="42.83986190" lon="12.58416760">
        <ele>439.07000</ele>
        <time>2010-01-01T02:04:42Z</time>
      </trkpt>
      <trkpt lat="42.84007990" lon="12.58433000">
        <ele>435.85600</ele>
        <time>2010-01-01T02:04:46Z</time>
      </trkpt>
      <trkpt lat="42.84041540" lon="12.58456650">
        <ele>431.56300</ele>
        <time>2010-01-01T02:04:52Z</time>
      </trkpt>
      <trkpt lat="42.84065500" lon="12.58467440">
        <ele>427.79800</ele>
        <time>2010-01-01T02:04:56Z</time>
      </trkpt>
      <trkpt lat="42.84105770" lon="12.58481410">
        <ele>425.73900</ele>
        <time>2010-01-01T02:05:03Z</time>
      </trkpt>
      <trkpt lat="42.84130830" lon="12.58492350">
        <ele>424.86400</ele>
        <time>2010-01-01T02:05:07Z</time>
      </trkpt>
      <trkpt lat="42.84169170" lon="12.58514850">
        <ele>424.63100</ele>
        <time>2010-01-01T02:05:14Z</time>
      </trkpt>
      <trkpt lat="42.84194380" lon="12.58534160">
        <ele>424.70500</ele>
        <time>2010-01-01T02:05:18Z</time>
      </trkpt>
      <trkpt lat="42.84219830" lon="12.58554320">
        <ele>424.63200</ele>
        <time>2010-01-01T02:05:23Z</time>
      </trkpt>
      <trkpt lat="42.84243790" lon="12.58573360">
        <ele>424.41200</ele>
        <time>2010-01-01T02:05:28Z</time>
      </trkpt>
      <trkpt lat="42.84276120" lon="12.58601270">
        <ele>424.54000</ele>
        <time>2010-01-01T02:05:34Z</time>
      </trkpt>
      <trkpt lat="42.84312260" lon="12.58640790">
        <ele>425.18500</ele>
        <time>2010-01-01T02:05:41Z</time>
      </trkpt>
      <trkpt lat="42.84337680" lon="12.58670830">
        <ele>425.97600</ele>
        <time>2010-01-01T02:05:46Z</time>
      </trkpt>
      <trkpt lat="42.84378920" lon="12.58717360">
        <ele>426.38700</ele>
        <time>2010-01-01T02:05:55Z</time>
      </trkpt>
      <trkpt lat="42.84419440" lon="12.58762160">
        <ele>425.78900</ele>
        <time>2010-01-01T02:06:03Z</time>
      </trkpt>
      <trkpt lat="42.84451270" lon="12.58787490">
        <ele>424.19900</ele>
        <time>2010-01-01T02:06:09Z</time>
      </trkpt>
      <trkpt lat="42.84500950" lon="12.58815600">
        <ele>421.67200</ele>
        <time>2010-01-01T02:06:18Z</time>
      </trkpt>
      <trkpt lat="42.84539350" lon="12.58835510">
        <ele>418.28500</ele>
        <time>2010-01-01T02:06:24Z</time>
      </trkpt>
      <trkpt lat="42.84558990" lon="12.58862260">
        <ele>415.02700</ele>
        <time>2010-01-01T02:06:29Z</time>
      </trkpt>
      <trkpt lat="42.84556930" lon="12.58886070">
        <ele>412.35500</ele>
        <time>2010-01-01T02:06:32Z</time>
      </trkpt>
      <trkpt lat="42.84533740" lon="12.58918920">
        <ele>409.71000</ele>
        <time>2010-01-01T02:06:37Z</time>
      </trkpt>
      <trkpt lat="42.84512150" lon="12.58945440">
        <ele>406.92500</ele>
        <time>2010-01-01T02:06:42Z</time>
      </trkpt>
      <trkpt lat="42.84485560" lon="12.58977600">
        <ele>404.28000</ele>
        <time>2010-01-01T02:06:47Z</time>
      </trkpt>
      <trkpt lat="42.84444320" lon="12.59026510">
        <ele>402.07500</ele>
        <time>2010-01-01T02:06:56Z</time>
      </trkpt>
      <trkpt lat="42.84404150" lon="12.59072700">
        <ele>400.22900</ele>
        <time>2010-01-01T02:07:05Z</time>
      </trkpt>
      <trkpt lat="42.84374300" lon="12.59122960">
        <ele>398.37500</ele>
        <time>2010-01-01T02:07:12Z</time>
      </trkpt>
      <trkpt lat="42.84362200" lon="12.59162770">
        <ele>396.48700</ele>
        <time>2010-01-01T02:07:17Z</time>
      </trkpt>
      <trkpt lat="42.84351670" lon="12.59202320">
        <ele>394.19700</ele>
        <time>2010-01-01T02:07:22Z</time>
      </trkpt>
      <trkpt lat="42.84334410" lon="12.59264350">
        <ele>391.33500</ele>
        <time>2010-01-01T02:07:30Z</time>
      </trkpt>
      <trkpt lat="42.84322770" lon="12.59312370">
        <ele>388.79600</ele>
        <time>2010-01-01T02:07:36Z</time>
      </trkpt>
      <trkpt lat="42.84310890" lon="12.59381500">
        <ele>387.48100</ele>
        <time>2010-01-01T02:07:44Z</time>
      </trkpt>
      <trkpt lat="42.84299510" lon="12.59446020">
        <ele>387.21500</ele>
        <time>2010-01-01T02:07:52Z</time>
      </trkpt>
      <trkpt lat="42.84276980" lon="12.59493290">
        <ele>387.39000</ele>
        <time>2010-01-01T02:07:59Z</time>
      </trkpt>
      <trkpt lat="42.84265470" lon="12.59516370">
        <ele>387.73700</ele>
        <time>2010-01-01T02:08:02Z</time>
      </trkpt>
      <trkpt lat="42.84266560" lon="12.59527530">
        <ele>388.26800</ele>
        <time>2010-01-01T02:08:03Z</time>
      </trkpt>
      <trkpt lat="42.84273480" lon="12.59539010">
        <ele>388.86600</ele>
        <time>2010-01-01T02:08:05Z</time>
      </trkpt>
      <trkpt lat="42.84284740" lon="12.59554870">
        <ele>389.54600</ele>
        <time>2010-01-01T02:08:08Z</time>
      </trkpt>
      <trkpt lat="42.84307670" lon="12.59585280">
        <ele>390.09300</ele>
        <time>2010-01-01T02:08:13Z</time>
      </trkpt>
      <trkpt lat="42.84338850" lon="12.59617420">
        <ele>390.02600</ele>
        <time>2010-01-01T02:08:19Z</time>
      </trkpt>
      <trkpt lat="42.84373920" lon="12.59643900">
        <ele>389.53600</ele>
        <time>2010-01-01T02:08:25Z</time>
      </trkpt>
      <trkpt lat="42.84399660" lon="12.59659700">
        <ele>389.18600</ele>
        <time>2010-01-01T02:08:30Z</time>
      </trkpt>
      <trkpt lat="42.84442210" lon="12.59679940">
        <ele>388.74100</ele>
        <time>2010-01-01T02:08:37Z</time>
      </trkpt>
      <trkpt lat="42.84488310" lon="12.59699220">
        <ele>387.63600</ele>
        <time>2010-01-01T02:08:45Z</time>
      </trkpt>
      <trkpt lat="42.84514370" lon="12.59718530">
        <ele>385.72300</ele>
        <time>2010-01-01T02:08:50Z</time>
      </trkpt>
      <trkpt lat="42.84551220" lon="12.59759530">
        <ele>383.46200</ele>
        <time>2010-01-01T02:08:57Z</time>
      </trkpt>
      <trkpt lat="42.84575210" lon="12.59787320">
        <ele>381.26700</ele>
        <time>2010-01-01T02:09:02Z</time>
      </trkpt>
      <trkpt lat="42.84611960" lon="12.59829730">
        <ele>379.41800</ele>
        <time>2010-01-01T02:09:10Z</time>
      </trkpt>
      <trkpt lat="42.84635600" lon="12.59855560">
        <ele>378.21900</ele>
        <time>2010-01-01T02:09:15Z</time>
      </trkpt>
      <trkpt lat="42.84663690" lon="12.59879560">
        <ele>377.71000</ele>
        <time>2010-01-01T02:09:20Z</time>
      </trkpt>
      <trkpt lat="42.84694460" lon="12.59902230">
        <ele>377.56000</ele>
        <time>2010-01-01T02:09:26Z</time>
      </trkpt>
      <trkpt lat="42.84741440" lon="12.59927070">
        <ele>377.44700</ele>
        <time>2010-01-01T02:09:34Z</time>
      </trkpt>
      <trkpt lat="42.84790430" lon="12.59944660">
        <ele>376.75500</ele>
        <time>2010-01-01T02:09:42Z</time>
      </trkpt>
      <trkpt lat="42.84839400" lon="12.59954620">
        <ele>375.30500</ele>
        <time>2010-01-01T02:09:50Z</time>
      </trkpt>
      <trkpt lat="42.84868910" lon="12.59965460">
        <ele>373.80200</ele>
        <time>2010-01-01T02:09:55Z</time>
      </trkpt>
      <trkpt lat="42.84910140" lon="12.59990490">
        <ele>372.52700</ele>
        <time>2010-01-01T02:10:02Z</time>
      </trkpt>
      <trkpt lat="42.84949660" lon="12.60020100">
        <ele>371.05800</ele>
        <time>2010-01-01T02:10:09Z</time>
      </trkpt>
      <trkpt lat="42.84975220" lon="12.60041070">
        <ele>369.07800</ele>
        <time>2010-01-01T02:10:14Z</time>
      </trkpt>
      <trkpt lat="42.85012120" lon="12.60073610">
        <ele>366.48400</ele>
        <time>2010-01-01T02:10:21Z</time>
      </trkpt>
      <trkpt lat="42.85049920" lon="12.60105080">
        <ele>363.82200</ele>
        <time>2010-01-01T02:10:28Z</time>
      </trkpt>
      <trkpt lat="42.85075090" lon="12.60129080">
        <ele>361.94400</ele>
        <time>2010-01-01T02:10:33Z</time>
      </trkpt>
      <trkpt lat="42.85092710" lon="12.60165330">
        <ele>361.03100</ele>
        <time>2010-01-01T02:10:38Z</time>
      </trkpt>
      <trkpt lat="42.85107370" lon="12.60203970">
        <ele>360.44900</ele>
        <time>2010-01-01T02:10:43Z</time>
      </trkpt>
      <trkpt lat="42.85129830" lon="12.60259430">
        <ele>359.30900</ele>
        <time>2010-01-01T02:10:51Z</time>
      </trkpt>
      <trkpt lat="42.85156730" lon="12.60310530">
        <ele>357.62000</ele>
        <time>2010-01-01T02:10:58Z</time>
      </trkpt>
      <trkpt lat="42.85184590" lon="12.60362210">
        <ele>356.11700</ele>
        <time>2010-01-01T02:11:06Z</time>
      </trkpt>
      <trkpt lat="42.85203190" lon="12.60395270">
        <ele>355.01100</ele>
        <time>2010-01-01T02:11:10Z</time>
      </trkpt>
      <trkpt lat="42.85222520" lon="12.60424330">
        <ele>353.89600</ele>
        <time>2010-01-01T02:11:15Z</time>
      </trkpt>
      <trkpt lat="42.85243900" lon="12.60452470">
        <ele>352.54000</ele>
        <time>2010-01-01T02:11:20Z</time>
      </trkpt>
      <trkpt lat="42.85278940" lon="12.60496550">
        <ele>351.04500</ele>
        <time>2010-01-01T02:11:27Z</time>
      </trkpt>
      <trkpt lat="42.85316480" lon="12.60540820">
        <ele>349.37500</ele>
        <time>2010-01-01T02:11:35Z</time>
      </trkpt>
      <trkpt lat="42.85353300" lon="12.60584910">
        <ele>347.23300</ele>
        <time>2010-01-01T02:11:43Z</time>
      </trkpt>
      <trkpt lat="42.85377540" lon="12.60616850">
        <ele>344.83300</ele>
        <time>2010-01-01T02:11:49Z</time>
      </trkpt>
      <trkpt lat="42.85384710" lon="12.60647540">
        <ele>342.94600</ele>
        <time>2010-01-01T02:11:52Z</time>
      </trkpt>
      <trkpt lat="42.85373110" lon="12.60677730">
        <ele>341.92600</ele>
        <time>2010-01-01T02:11:56Z</time>
      </trkpt>
      <trkpt lat="42.85357540" lon="12.60696680">
        <ele>341.40500</ele>
        <time>2010-01-01T02:12:00Z</time>
      </trkpt>
      <trkpt lat="42.85335380" lon="12.60719990">
        <ele>340.96400</ele>
        <time>2010-01-01T02:12:04Z</time>
      </trkpt>
      <trkpt lat="42.85298260" lon="12.60762220">
        <ele>340.25200</ele>
        <time>2010-01-01T02:12:12Z</time>
      </trkpt>
      <trkpt lat="42.85270370" lon="12.60817740">
        <ele>339.19200</ele>
        <time>2010-01-01T02:12:20Z</time>
      </trkpt>
      <trkpt lat="42.85259820" lon="12.60861570">
        <ele>337.70800</ele>
        <time>2010-01-01T02:12:25Z</time>
      </trkpt>
      <trkpt lat="42.85251130" lon="12.60905980">
        <ele>335.86300</ele>
        <time>2010-01-01T02:12:31Z</time>
      </trkpt>
      <trkpt lat="42.85248830" lon="12.60971070">
        <ele>334.36800</ele>
        <time>2010-01-01T02:12:38Z</time>
      </trkpt>
      <trkpt lat="42.85255050" lon="12.61017570">
        <ele>333.77000</ele>
        <time>2010-01-01T02:12:44Z</time>
      </trkpt>
      <trkpt lat="42.85269370" lon="12.61080580">
        <ele>333.79600</ele>
        <time>2010-01-01T02:12:52Z</time>
      </trkpt>
      <trkpt lat="42.85283070" lon="12.61141320">
        <ele>334.12600</ele>
        <time>2010-01-01T02:12:59Z</time>
      </trkpt>
      <trkpt lat="42.85288620" lon="12.61201070">
        <ele>334.59100</ele>
        <time>2010-01-01T02:13:06Z</time>
      </trkpt>
      <trkpt lat="42.85279760" lon="12.61258640">
        <ele>335.15600</ele>
        <time>2010-01-01T02:13:13Z</time>
      </trkpt>
      <trkpt lat="42.85273550" lon="12.61299330">
        <ele>335.73000</ele>
        <time>2010-01-01T02:13:18Z</time>
      </trkpt>
      <trkpt lat="42.85267030" lon="12.61340370">
        <ele>336.12300</ele>
        <time>2010-01-01T02:13:23Z</time>
      </trkpt>
      <trkpt lat="42.85249830" lon="12.61400620">
        <ele>336.65500</ele>
        <time>2010-01-01T02:13:30Z</time>
      </trkpt>
      <trkpt lat="42.85227560" lon="12.61432850">
        <ele>338.00000</ele>
        <time>2010-01-01T02:13:36Z</time>
      </trkpt>
      <trkpt lat="42.85184260" lon="12.61464180">
        <ele>339.87900</ele>
        <time>2010-01-01T02:13:44Z</time>
      </trkpt>
      <trkpt lat="42.85140770" lon="12.61497730">
        <ele>341.24900</ele>
        <time>2010-01-01T02:13:52Z</time>
      </trkpt>
      <trkpt lat="42.85123840" lon="12.61534300">
        <ele>341.74400</ele>
        <time>2010-01-01T02:13:57Z</time>
      </trkpt>
      <trkpt lat="42.85109750" lon="12.61594990">
        <ele>341.81000</ele>
        <time>2010-01-01T02:14:04Z</time>
      </trkpt>
      <trkpt lat="42.85099170" lon="12.61653330">
        <ele>341.87400</ele>
        <time>2010-01-01T02:14:11Z</time>
      </trkpt>
      <trkpt lat="42.85088800" lon="12.61689730">
        <ele>341.98700</ele>
        <time>2010-01-01T02:14:16Z</time>
      </trkpt>
      <trkpt lat="42.85066990" lon="12.61742200">
        <ele>342.43200</ele>
        <time>2010-01-01T02:14:23Z</time>
      </trkpt>
      <trkpt lat="42.85041110" lon="12.61797620">
        <ele>343.43300</ele>
        <time>2010-01-01T02:14:30Z</time>
      </trkpt>
      <trkpt lat="42.85022990" lon="12.61835590">
        <ele>344.44100</ele>
        <time>2010-01-01T02:14:36Z</time>
      </trkpt>
      <trkpt lat="42.84996720" lon="12.61892590">
        <ele>345.14900</ele>
        <time>2010-01-01T02:14:44Z</time>
      </trkpt>
      <trkpt lat="42.84981640" lon="12.61932850">
        <ele>345.83000</ele>
        <time>2010-01-01T02:14:49Z</time>
      </trkpt>
      <trkpt lat="42.84972390" lon="12.61979730">
        <ele>346.47300</ele>
        <time>2010-01-01T02:14:55Z</time>
      </trkpt>
      <trkpt lat="42.84966840" lon="12.62050370">
        <ele>346.95600</ele>
        <time>2010-01-01T02:15:03Z</time>
      </trkpt>
      <trkpt lat="42.84969250" lon="12.62123510">
        <ele>347.27300</ele>
        <time>2010-01-01T02:15:12Z</time>
      </trkpt>
      <trkpt lat="42.84977050" lon="12.62197310">
        <ele>347.40200</ele>
        <time>2010-01-01T02:15:20Z</time>
      </trkpt>
      <trkpt lat="42.84992210" lon="12.62273110">
        <ele>347.38100</ele>
        <time>2010-01-01T02:15:30Z</time>
      </trkpt>
      <trkpt lat="42.85005050" lon="12.62324400">
        <ele>346.75600</ele>
        <time>2010-01-01T02:15:36Z</time>
      </trkpt>
      <trkpt lat="42.85023530" lon="12.62395890">
        <ele>345.21300</ele>
        <time>2010-01-01T02:15:45Z</time>
      </trkpt>
      <trkpt lat="42.85032360" lon="12.62437180">
        <ele>343.26400</ele>
        <time>2010-01-01T02:15:50Z</time>
      </trkpt>
      <trkpt lat="42.85028890" lon="12.62496230">
        <ele>341.45100</ele>
        <time>2010-01-01T02:15:57Z</time>
      </trkpt>
      <trkpt lat="42.85000530" lon="12.62549610">
        <ele>339.63800</ele>
        <time>2010-01-01T02:16:05Z</time>
      </trkpt>
      <trkpt lat="42.84956110" lon="12.62586530">
        <ele>337.79400</ele>
        <time>2010-01-01T02:16:13Z</time>
      </trkpt>
      <trkpt lat="42.84898440" lon="12.62595870">
        <ele>335.69500</ele>
        <time>2010-01-01T02:16:22Z</time>
      </trkpt>
      <trkpt lat="42.84862520" lon="12.62603690">
        <ele>333.29600</ele>
        <time>2010-01-01T02:16:28Z</time>
      </trkpt>
      <trkpt lat="42.84812220" lon="12.62614810">
        <ele>331.40600</ele>
        <time>2010-01-01T02:16:36Z</time>
      </trkpt>
      <trkpt lat="42.84769090" lon="12.62624580">
        <ele>330.66700</ele>
        <time>2010-01-01T02:16:43Z</time>
      </trkpt>
      <trkpt lat="42.84742980" lon="12.62658160">
        <ele>330.90000</ele>
        <time>2010-01-01T02:16:49Z</time>
      </trkpt>
      <trkpt lat="42.84747310" lon="12.62710420">
        <ele>332.60100</ele>
        <time>2010-01-01T02:16:55Z</time>
      </trkpt>
      <trkpt lat="42.84759680" lon="12.62741550">
        <ele>335.81700</ele>
        <time>2010-01-01T02:16:59Z</time>
      </trkpt>
      <trkpt lat="42.84775250" lon="12.62790380">
        <ele>339.03400</ele>
        <time>2010-01-01T02:17:06Z</time>
      </trkpt>
      <trkpt lat="42.84775980" lon="12.62827040">
        <ele>340.99500</ele>
        <time>2010-01-01T02:17:10Z</time>
      </trkpt>
      <trkpt lat="42.84769820" lon="12.62863880">
        <ele>342.06600</ele>
        <time>2010-01-01T02:17:14Z</time>
      </trkpt>
      <trkpt lat="42.84753730" lon="12.62923130">
        <ele>342.96000</ele>
        <time>2010-01-01T02:17:22Z</time>
      </trkpt>
      <trkpt lat="42.84741980" lon="12.62963790">
        <ele>344.30200</ele>
        <time>2010-01-01T02:17:27Z</time>
      </trkpt>
      <trkpt lat="42.84725090" lon="12.63026080">
        <ele>346.18000</ele>
        <time>2010-01-01T02:17:35Z</time>
      </trkpt>
      <trkpt lat="42.84707160" lon="12.63092710">
        <ele>347.98300</ele>
        <time>2010-01-01T02:17:43Z</time>
      </trkpt>
      <trkpt lat="42.84689550" lon="12.63159310">
        <ele>349.17500</ele>
        <time>2010-01-01T02:17:51Z</time>
      </trkpt>
      <trkpt lat="42.84678290" lon="12.63203700">
        <ele>349.74500</ele>
        <time>2010-01-01T02:17:57Z</time>
      </trkpt>
      <trkpt lat="42.84667540" lon="12.63246450">
        <ele>349.77000</ele>
        <time>2010-01-01T02:18:02Z</time>
      </trkpt>
      <trkpt lat="42.84656770" lon="12.63289590">
        <ele>349.49300</ele>
        <time>2010-01-01T02:18:07Z</time>
      </trkpt>
      <trkpt lat="42.84641070" lon="12.63354420">
        <ele>349.18600</ele>
        <time>2010-01-01T02:18:15Z</time>
      </trkpt>
      <trkpt lat="42.84630330" lon="12.63398320">
        <ele>348.66200</ele>
        <time>2010-01-01T02:18:21Z</time>
      </trkpt>
      <trkpt lat="42.84612670" lon="12.63461870">
        <ele>347.45500</ele>
        <time>2010-01-01T02:18:29Z</time>
      </trkpt>
      <trkpt lat="42.84593230" lon="12.63495610">
        <ele>345.83900</ele>
        <time>2010-01-01T02:18:34Z</time>
      </trkpt>
      <trkpt lat="42.84570260" lon="12.63520460">
        <ele>344.61900</ele>
        <time>2010-01-01T02:18:39Z</time>
      </trkpt>
      <trkpt lat="42.84527610" lon="12.63534900">
        <ele>344.01300</ele>
        <time>2010-01-01T02:18:46Z</time>
      </trkpt>
      <trkpt lat="42.84484840" lon="12.63534910">
        <ele>343.46100</ele>
        <time>2010-01-01T02:18:53Z</time>
      </trkpt>
      <trkpt lat="42.84441560" lon="12.63552020">
        <ele>342.29100</ele>
        <time>2010-01-01T02:19:00Z</time>
      </trkpt>
      <trkpt lat="42.84397670" lon="12.63582360">
        <ele>339.79500</ele>
        <time>2010-01-01T02:19:08Z</time>
      </trkpt>
      <trkpt lat="42.84368940" lon="12.63604310">
        <ele>336.26000</ele>
        <time>2010-01-01T02:19:13Z</time>
      </trkpt>
      <trkpt lat="42.84328810" lon="12.63636140">
        <ele>333.40700</ele>
        <time>2010-01-01T02:19:20Z</time>
      </trkpt>
      <trkpt lat="42.84303220" lon="12.63661820">
        <ele>332.26700</ele>
        <time>2010-01-01T02:19:25Z</time>
      </trkpt>
      <trkpt lat="42.84278060" lon="12.63695810">
        <ele>332.22300</ele>
        <time>2010-01-01T02:19:31Z</time>
      </trkpt>
      <trkpt lat="42.84243280" lon="12.63754240">
        <ele>332.71100</ele>
        <time>2010-01-01T02:19:40Z</time>
      </trkpt>
      <trkpt lat="42.84226460" lon="12.63798690">
        <ele>333.52700</ele>
        <time>2010-01-01T02:19:46Z</time>
      </trkpt>
      <trkpt lat="42.84213450" lon="12.63846390">
        <ele>334.38200</ele>
        <time>2010-01-01T02:19:52Z</time>
      </trkpt>
      <trkpt lat="42.84200690" lon="12.63892740">
        <ele>335.04300</ele>
        <time>2010-01-01T02:19:58Z</time>
      </trkpt>
      <trkpt lat="42.84182240" lon="12.63959870">
        <ele>335.50600</ele>
        <time>2010-01-01T02:20:06Z</time>
      </trkpt>
      <trkpt lat="42.84165510" lon="12.64027200">
        <ele>335.75400</ele>
        <time>2010-01-01T02:20:14Z</time>
      </trkpt>
      <trkpt lat="42.84154370" lon="12.64095990">
        <ele>335.80900</ele>
        <time>2010-01-01T02:20:23Z</time>
      </trkpt>
      <trkpt lat="42.84149870" lon="12.64165400">
        <ele>335.77900</ele>
        <time>2010-01-01T02:20:31Z</time>
      </trkpt>
      <trkpt lat="42.84156920" lon="12.64236150">
        <ele>335.84100</ele>
        <time>2010-01-01T02:20:39Z</time>
      </trkpt>
      <trkpt lat="42.84169230" lon="12.64280960">
        <ele>336.14200</ele>
        <time>2010-01-01T02:20:45Z</time>
      </trkpt>
      <trkpt lat="42.84195310" lon="12.64338330">
        <ele>336.78200</ele>
        <time>2010-01-01T02:20:53Z</time>
      </trkpt>
      <trkpt lat="42.84229350" lon="12.64395900">
        <ele>337.77100</ele>
        <time>2010-01-01T02:21:01Z</time>
      </trkpt>
      <trkpt lat="42.84261340" lon="12.64451230">
        <ele>338.78800</ele>
        <time>2010-01-01T02:21:10Z</time>
      </trkpt>
      <trkpt lat="42.84281300" lon="12.64487210">
        <ele>339.52100</ele>
        <time>2010-01-01T02:21:15Z</time>
      </trkpt>
      <trkpt lat="42.84309310" lon="12.64540760">
        <ele>340.69800</ele>
        <time>2010-01-01T02:21:23Z</time>
      </trkpt>
      <trkpt lat="42.84327670" lon="12.64576860">
        <ele>342.95000</ele>
        <time>2010-01-01T02:21:28Z</time>
      </trkpt>
      <trkpt lat="42.84357610" lon="12.64624510">
        <ele>345.32000</ele>
        <time>2010-01-01T02:21:35Z</time>
      </trkpt>
      <trkpt lat="42.84382220" lon="12.64653220">
        <ele>346.63000</ele>
        <time>2010-01-01T02:21:40Z</time>
      </trkpt>
      <trkpt lat="42.84426950" lon="12.64683950">
        <ele>346.94100</ele>
        <time>2010-01-01T02:21:48Z</time>
      </trkpt>
      <trkpt lat="42.84459300" lon="12.64693700">
        <ele>346.22200</ele>
        <time>2010-01-01T02:21:54Z</time>
      </trkpt>
      <trkpt lat="42.84505230" lon="12.64696930">
        <ele>344.41500</ele>
        <time>2010-01-01T02:22:01Z</time>
      </trkpt>
      <trkpt lat="42.84533720" lon="12.64702040">
        <ele>342.38200</ele>
        <time>2010-01-01T02:22:06Z</time>
      </trkpt>
      <trkpt lat="42.84559160" lon="12.64718650">
        <ele>340.46300</ele>
        <time>2010-01-01T02:22:10Z</time>
      </trkpt>
      <trkpt lat="42.84586880" lon="12.64764950">
        <ele>337.44100</ele>
        <time>2010-01-01T02:22:17Z</time>
      </trkpt>
      <trkpt lat="42.84611250" lon="12.64821270">
        <ele>333.35700</ele>
        <time>2010-01-01T02:22:25Z</time>
      </trkpt>
      <trkpt lat="42.84637980" lon="12.64871710">
        <ele>330.08900</ele>
        <time>2010-01-01T02:22:32Z</time>
      </trkpt>
      <trkpt lat="42.84670900" lon="12.64919210">
        <ele>328.54700</ele>
        <time>2010-01-01T02:22:40Z</time>
      </trkpt>
      <trkpt lat="42.84693620" lon="12.64979070">
        <ele>327.87000</ele>
        <time>2010-01-01T02:22:48Z</time>
      </trkpt>
      <trkpt lat="42.84705880" lon="12.65023100">
        <ele>326.95000</ele>
        <time>2010-01-01T02:22:53Z</time>
      </trkpt>
      <trkpt lat="42.84716390" lon="12.65066490">
        <ele>325.13200</ele>
        <time>2010-01-01T02:22:59Z</time>
      </trkpt>
      <trkpt lat="42.84730720" lon="12.65130950">
        <ele>322.22800</ele>
        <time>2010-01-01T02:23:07Z</time>
      </trkpt>
      <trkpt lat="42.84740500" lon="12.65172960">
        <ele>318.65200</ele>
        <time>2010-01-01T02:23:12Z</time>
      </trkpt>
      <trkpt lat="42.84755670" lon="12.65239720">
        <ele>315.31800</ele>
        <time>2010-01-01T02:23:20Z</time>
      </trkpt>
      <trkpt lat="42.84773410" lon="12.65304730">
        <ele>312.44000</ele>
        <time>2010-01-01T02:23:28Z</time>
      </trkpt>
      <trkpt lat="42.84797740" lon="12.65364400">
        <ele>309.88700</ele>
        <time>2010-01-01T02:23:36Z</time>
      </trkpt>
      <trkpt lat="42.84824950" lon="12.65422730">
        <ele>308.21300</ele>
        <time>2010-01-01T02:23:44Z</time>
      </trkpt>
      <trkpt lat="42.84843040" lon="12.65462130">
        <ele>307.68200</ele>
        <time>2010-01-01T02:23:50Z</time>
      </trkpt>
      <trkpt lat="42.84861570" lon="12.65501610">
        <ele>307.76500</ele>
        <time>2010-01-01T02:23:55Z</time>
      </trkpt>
      <trkpt lat="42.84875290" lon="12.65563420">
        <ele>307.99100</ele>
        <time>2010-01-01T02:24:03Z</time>
      </trkpt>
      <trkpt lat="42.84869280" lon="12.65627540">
        <ele>308.14300</ele>
        <time>2010-01-01T02:24:10Z</time>
      </trkpt>
      <trkpt lat="42.84858650" lon="12.65669710">
        <ele>308.19300</ele>
        <time>2010-01-01T02:24:16Z</time>
      </trkpt>
      <trkpt lat="42.84834060" lon="12.65729980">
        <ele>308.14900</ele>
        <time>2010-01-01T02:24:24Z</time>
      </trkpt>
      <trkpt lat="42.84813230" lon="12.65765950">
        <ele>307.77100</ele>
        <time>2010-01-01T02:24:29Z</time>
      </trkpt>
      <trkpt lat="42.84789950" lon="12.65797890">
        <ele>306.97200</ele>
        <time>2010-01-01T02:24:34Z</time>
      </trkpt>
      <trkpt lat="42.84752400" lon="12.65839590">
        <ele>305.79200</ele>
        <time>2010-01-01T02:24:42Z</time>
      </trkpt>
      <trkpt lat="42.84733490" lon="12.65870180">
        <ele>303.87300</ele>
        <time>2010-01-01T02:24:47Z</time>
      </trkpt>
      <trkpt lat="42.84723410" lon="12.65925150">
        <ele>300.98100</ele>
        <time>2010-01-01T02:24:53Z</time>
      </trkpt>
      <trkpt lat="42.84727890" lon="12.65962920">
        <ele>297.65300</ele>
        <time>2010-01-01T02:24:58Z</time>
      </trkpt>
      <trkpt lat="42.84733960" lon="12.66001450">
        <ele>294.63000</ele>
        <time>2010-01-01T02:25:03Z</time>
      </trkpt>
      <trkpt lat="42.84738330" lon="12.66057010">
        <ele>292.35100</ele>
        <time>2010-01-01T02:25:09Z</time>
      </trkpt>
      <trkpt lat="42.84736110" lon="12.66112050">
        <ele>290.86300</ele>
        <time>2010-01-01T02:25:16Z</time>
      </trkpt>
      <trkpt lat="42.84730670" lon="12.66149790">
        <ele>289.85500</ele>
        <time>2010-01-01T02:25:20Z</time>
      </trkpt>
      <trkpt lat="42.84708760" lon="12.66204070">
        <ele>288.56400</ele>
        <time>2010-01-01T02:25:27Z</time>
      </trkpt>
      <trkpt lat="42.84683050" lon="12.66249380">
        <ele>286.67500</ele>
        <time>2010-01-01T02:25:34Z</time>
      </trkpt>
      <trkpt lat="42.84663890" lon="12.66284200">
        <ele>284.74400</ele>
        <time>2010-01-01T02:25:39Z</time>
      </trkpt>
      <trkpt lat="42.84644530" lon="12.66322280">
        <ele>282.73600</ele>
        <time>2010-01-01T02:25:45Z</time>
      </trkpt>
      <trkpt lat="42.84619580" lon="12.66377470">
        <ele>279.68700</ele>
        <time>2010-01-01T02:25:52Z</time>
      </trkpt>
      <trkpt lat="42.84595670" lon="12.66435970">
        <ele>275.59300</ele>
        <time>2010-01-01T02:26:00Z</time>
      </trkpt>
      <trkpt lat="42.84580300" lon="12.66475290">
        <ele>271.89300</ele>
        <time>2010-01-01T02:26:05Z</time>
      </trkpt>
      <trkpt lat="42.84557630" lon="12.66537600">
        <ele>269.22300</ele>
        <time>2010-01-01T02:26:14Z</time>
      </trkpt>
      <trkpt lat="42.84544250" lon="12.66578690">
        <ele>266.61400</ele>
        <time>2010-01-01T02:26:19Z</time>
      </trkpt>
      <trkpt lat="42.84528230" lon="12.66643010">
        <ele>263.77300</ele>
        <time>2010-01-01T02:26:27Z</time>
      </trkpt>
      <trkpt lat="42.84529050" lon="12.66714600">
        <ele>261.63200</ele>
        <time>2010-01-01T02:26:35Z</time>
      </trkpt>
      <trkpt lat="42.84534590" lon="12.66759500">
        <ele>260.59900</ele>
        <time>2010-01-01T02:26:41Z</time>
      </trkpt>
      <trkpt lat="42.84538830" lon="12.66799310">
        <ele>259.76700</ele>
        <time>2010-01-01T02:26:45Z</time>
      </trkpt>
      <trkpt lat="42.84535220" lon="12.66836510">
        <ele>258.27900</ele>
        <time>2010-01-01T02:26:50Z</time>
      </trkpt>
      <trkpt lat="42.84515580" lon="12.66891240">
        <ele>256.28900</ele>
        <time>2010-01-01T02:26:57Z</time>
      </trkpt>
      <trkpt lat="42.84491400" lon="12.66919400">
        <ele>254.05900</ele>
        <time>2010-01-01T02:27:02Z</time>
      </trkpt>
      <trkpt lat="42.84464890" lon="12.66942860">
        <ele>251.85000</ele>
        <time>2010-01-01T02:27:07Z</time>
      </trkpt>
      <trkpt lat="42.84417530" lon="12.66973540">
        <ele>249.81700</ele>
        <time>2010-01-01T02:27:15Z</time>
      </trkpt>
      <trkpt lat="42.84387760" lon="12.66991630">
        <ele>247.38500</ele>
        <time>2010-01-01T02:27:21Z</time>
      </trkpt>
      <trkpt lat="42.84344890" lon="12.67028700">
        <ele>244.33900</ele>
        <time>2010-01-01T02:27:29Z</time>
      </trkpt>
      <trkpt lat="42.84315000" lon="12.67088660">
        <ele>241.55300</ele>
        <time>2010-01-01T02:27:37Z</time>
      </trkpt>
      <trkpt lat="42.84292350" lon="12.67151250">
        <ele>239.92400</ele>
        <time>2010-01-01T02:27:45Z</time>
      </trkpt>
      <trkpt lat="42.84277600" lon="12.67195730">
        <ele>239.49300</ele>
        <time>2010-01-01T02:27:51Z</time>
      </trkpt>
      <trkpt lat="42.84255520" lon="12.67257910">
        <ele>239.90500</ele>
        <time>2010-01-01T02:27:59Z</time>
      </trkpt>
      <trkpt lat="42.84227590" lon="12.67303440">
        <ele>241.42400</ele>
        <time>2010-01-01T02:28:06Z</time>
      </trkpt>
      <trkpt lat="42.84183990" lon="12.67323290">
        <ele>244.01100</ele>
        <time>2010-01-01T02:28:14Z</time>
      </trkpt>
      <trkpt lat="42.84134080" lon="12.67332940">
        <ele>246.51900</ele>
        <time>2010-01-01T02:28:22Z</time>
      </trkpt>
      <trkpt lat="42.84098840" lon="12.67337070">
        <ele>248.10100</ele>
        <time>2010-01-01T02:28:27Z</time>
      </trkpt>
      <trkpt lat="42.84055810" lon="12.67344160">
        <ele>249.07600</ele>
        <time>2010-01-01T02:28:34Z</time>
      </trkpt>
      <trkpt lat="42.84027830" lon="12.67359650">
        <ele>250.42000</ele>
        <time>2010-01-01T02:28:39Z</time>
      </trkpt>
      <trkpt lat="42.83989990" lon="12.67395250">
        <ele>252.43100</ele>
        <time>2010-01-01T02:28:46Z</time>
      </trkpt>
      <trkpt lat="42.83962660" lon="12.67425070">
        <ele>254.17400</ele>
        <time>2010-01-01T02:28:52Z</time>
      </trkpt>
      <trkpt lat="42.83919440" lon="12.67472850">
        <ele>254.91200</ele>
        <time>2010-01-01T02:29:01Z</time>
      </trkpt>
      <trkpt lat="42.83877070" lon="12.67520150">
        <ele>253.86300</ele>
        <time>2010-01-01T02:29:10Z</time>
      </trkpt>
      <trkpt lat="42.83836010" lon="12.67565120">
        <ele>250.36800</ele>
        <time>2010-01-01T02:29:18Z</time>
      </trkpt>
      <trkpt lat="42.83808230" lon="12.67594770">
        <ele>246.10200</ele>
        <time>2010-01-01T02:29:24Z</time>
      </trkpt>
      <trkpt lat="42.83782300" lon="12.67622680">
        <ele>243.44300</ele>
        <time>2010-01-01T02:29:29Z</time>
      </trkpt>
      <trkpt lat="42.83744560" lon="12.67662910">
        <ele>242.37200</ele>
        <time>2010-01-01T02:29:37Z</time>
      </trkpt>
      <trkpt lat="42.83721400" lon="12.67686110">
        <ele>241.51500</ele>
        <time>2010-01-01T02:29:41Z</time>
      </trkpt>
      <trkpt lat="42.83699190" lon="12.67708040">
        <ele>240.37300</ele>
        <time>2010-01-01T02:29:46Z</time>
      </trkpt>
      <trkpt lat="42.83666990" lon="12.67740300">
        <ele>239.48000</ele>
        <time>2010-01-01T02:29:52Z</time>
      </trkpt>
      <trkpt lat="42.83646420" lon="12.67760730">
        <ele>239.13300</ele>
        <time>2010-01-01T02:29:56Z</time>
      </trkpt>
      <trkpt lat="42.83625990" lon="12.67780360">
        <ele>238.82900</ele>
        <time>2010-01-01T02:30:00Z</time>
      </trkpt>
      <trkpt lat="42.83595570" lon="12.67808130">
        <ele>238.11500</ele>
        <time>2010-01-01T02:30:06Z</time>
      </trkpt>
      <trkpt lat="42.83567330" lon="12.67834060">
        <ele>237.30700</ele>
        <time>2010-01-01T02:30:12Z</time>
      </trkpt>
      <trkpt lat="42.83537640" lon="12.67863440">
        <ele>236.87000</ele>
        <time>2010-01-01T02:30:17Z</time>
      </trkpt>
      <trkpt lat="42.83518930" lon="12.67882680">
        <ele>236.77200</ele>
        <time>2010-01-01T02:30:21Z</time>
      </trkpt>
      <trkpt lat="42.83494070" lon="12.67907050">
        <ele>236.82300</ele>
        <time>2010-01-01T02:30:26Z</time>
      </trkpt>
      <trkpt lat="42.83476200" lon="12.67925090">
        <ele>236.70300</ele>
        <time>2010-01-01T02:30:30Z</time>
      </trkpt>
      <trkpt lat="42.83443990" lon="12.67955160">
        <ele>236.24800</ele>
        <time>2010-01-01T02:30:36Z</time>
      </trkpt>
      <trkpt lat="42.83406220" lon="12.67986540">
        <ele>235.74100</ele>
        <time>2010-01-01T02:30:43Z</time>
      </trkpt>
      <trkpt lat="42.83364710" lon="12.67999250">
        <ele>235.36800</ele>
        <time>2010-01-01T02:30:50Z</time>
      </trkpt>
      <trkpt lat="42.83337820" lon="12.68003990">
        <ele>235.01900</ele>
        <time>2010-01-01T02:30:54Z</time>
      </trkpt>
      <trkpt lat="42.83311280" lon="12.68006690">
        <ele>234.74600</ele>
        <time>2010-01-01T02:30:58Z</time>
      </trkpt>
      <trkpt lat="42.83269640" lon="12.68009510">
        <ele>234.64100</ele>
        <time>2010-01-01T02:31:05Z</time>
      </trkpt>
      <trkpt lat="42.83240600" lon="12.68011340">
        <ele>235.40400</ele>
        <time>2010-01-01T02:31:10Z</time>
      </trkpt>
      <trkpt lat="42.83209850" lon="12.68013600">
        <ele>237.59300</ele>
        <time>2010-01-01T02:31:15Z</time>
      </trkpt>
      <trkpt lat="42.83163030" lon="12.68017670">
        <ele>240.09800</ele>
        <time>2010-01-01T02:31:22Z</time>
      </trkpt>
      <trkpt lat="42.83129180" lon="12.68021400">
        <ele>241.52700</ele>
        <time>2010-01-01T02:31:28Z</time>
      </trkpt>
      <trkpt lat="42.83077290" lon="12.68027430">
        <ele>241.88700</ele>
        <time>2010-01-01T02:31:36Z</time>
      </trkpt>
      <trkpt lat="42.83044700" lon="12.68030990">
        <ele>241.74900</ele>
        <time>2010-01-01T02:31:41Z</time>
      </trkpt>
      <trkpt lat="42.82994780" lon="12.68035320">
        <ele>241.48000</ele>
        <time>2010-01-01T02:31:49Z</time>
      </trkpt>
      <trkpt lat="42.82960440" lon="12.68038230">
        <ele>241.13000</ele>
        <time>2010-01-01T02:31:55Z</time>
      </trkpt>
      <trkpt lat="42.82911660" lon="12.68044490">
        <ele>240.51800</ele>
        <time>2010-01-01T02:32:03Z</time>
      </trkpt>
      <trkpt lat="42.82864110" lon="12.68058910">
        <ele>239.66200</ele>
        <time>2010-01-01T02:32:10Z</time>
      </trkpt>
      <trkpt lat="42.82833700" lon="12.68075580">
        <ele>238.96700</ele>
        <time>2010-01-01T02:32:16Z</time>
      </trkpt>
      <trkpt lat="42.82804450" lon="12.68096530">
        <ele>238.68800</ele>
        <time>2010-01-01T02:32:21Z</time>
      </trkpt>
      <trkpt lat="42.82762440" lon="12.68131660">
        <ele>238.67600</ele>
        <time>2010-01-01T02:32:29Z</time>
      </trkpt>
      <trkpt lat="42.82734780" lon="12.68154830">
        <ele>238.74700</ele>
        <time>2010-01-01T02:32:34Z</time>
      </trkpt>
      <trkpt lat="42.82696240" lon="12.68185700">
        <ele>238.80300</ele>
        <time>2010-01-01T02:32:41Z</time>
      </trkpt>
      <trkpt lat="42.82676630" lon="12.68201160">
        <ele>238.57900</ele>
        <time>2010-01-01T02:32:45Z</time>
      </trkpt>
      <trkpt lat="42.82653220" lon="12.68209960">
        <ele>237.67800</ele>
        <time>2010-01-01T02:32:49Z</time>
      </trkpt>
      <trkpt lat="42.82635520" lon="12.68194460">
        <ele>236.33700</ele>
        <time>2010-01-01T02:32:52Z</time>
      </trkpt>
      <trkpt lat="42.82628960" lon="12.68171420">
        <ele>235.32600</ele>
        <time>2010-01-01T02:32:55Z</time>
      </trkpt>
      <trkpt lat="42.82622780" lon="12.68143170">
        <ele>234.94800</ele>
        <time>2010-01-01T02:32:58Z</time>
      </trkpt>
      <trkpt lat="42.82610450" lon="12.68090390">
        <ele>235.03200</ele>
        <time>2010-01-01T02:33:05Z</time>
      </trkpt>
      <trkpt lat="42.82596000" lon="12.68029870">
        <ele>235.42000</ele>
        <time>2010-01-01T02:33:12Z</time>
      </trkpt>
      <trkpt lat="42.82584880" lon="12.67981340">
        <ele>235.93600</ele>
        <time>2010-01-01T02:33:18Z</time>
      </trkpt>
      <trkpt lat="42.82572750" lon="12.67906770">
        <ele>236.45900</ele>
        <time>2010-01-01T02:33:27Z</time>
      </trkpt>
      <trkpt lat="42.82569380" lon="12.67865640">
        <ele>237.46900</ele>
        <time>2010-01-01T02:33:32Z</time>
      </trkpt>
      <trkpt lat="42.82564270" lon="12.67805560">
        <ele>239.51700</ele>
        <time>2010-01-01T02:33:39Z</time>
      </trkpt>
      <trkpt lat="42.82558160" lon="12.67767710">
        <ele>242.26500</ele>
        <time>2010-01-01T02:33:44Z</time>
      </trkpt>
      <trkpt lat="42.82551580" lon="12.67728690">
        <ele>244.83900</ele>
        <time>2010-01-01T02:33:49Z</time>
      </trkpt>
      <trkpt lat="42.82547990" lon="12.67687530">
        <ele>247.15000</ele>
        <time>2010-01-01T02:33:53Z</time>
      </trkpt>
      <trkpt lat="42.82548750" lon="12.67641780">
        <ele>249.39800</ele>
        <time>2010-01-01T02:33:59Z</time>
      </trkpt>
      <trkpt lat="42.82551810" lon="12.67596590">
        <ele>251.14200</ele>
        <time>2010-01-01T02:34:04Z</time>
      </trkpt>
      <trkpt lat="42.82556350" lon="12.67527770">
        <ele>252.09200</ele>
        <time>2010-01-01T02:34:12Z</time>
      </trkpt>
      <trkpt lat="42.82559100" lon="12.67483620">
        <ele>252.60700</ele>
        <time>2010-01-01T02:34:17Z</time>
      </trkpt>
      <trkpt lat="42.82561310" lon="12.67442880">
        <ele>252.85800</ele>
        <time>2010-01-01T02:34:22Z</time>
      </trkpt>
      <trkpt lat="42.82560490" lon="12.67383670">
        <ele>252.90000</ele>
        <time>2010-01-01T02:34:29Z</time>
      </trkpt>
      <trkpt lat="42.82554000" lon="12.67321780">
        <ele>252.85900</ele>
        <time>2010-01-01T02:34:37Z</time>
      </trkpt>
      <trkpt lat="42.82544820" lon="12.67262900">
        <ele>252.81700</ele>
        <time>2010-01-01T02:34:44Z</time>
      </trkpt>
      <trkpt lat="42.82532590" lon="12.67206840">
        <ele>252.79700</ele>
        <time>2010-01-01T02:34:50Z</time>
      </trkpt>
      <trkpt lat="42.82525200" lon="12.67169140">
        <ele>253.35100</ele>
        <time>2010-01-01T02:34:55Z</time>
      </trkpt>
      <trkpt lat="42.82515170" lon="12.67111910">
        <ele>254.94100</ele>
        <time>2010-01-01T02:35:02Z</time>
      </trkpt>
      <trkpt lat="42.82513240" lon="12.67069690">
        <ele>256.80200</ele>
        <time>2010-01-01T02:35:07Z</time>
      </trkpt>
      <trkpt lat="42.82515930" lon="12.67029200">
        <ele>257.91700</ele>
        <time>2010-01-01T02:35:12Z</time>
      </trkpt>
      <trkpt lat="42.82518670" lon="12.66987550">
        <ele>258.24400</ele>
        <time>2010-01-01T02:35:17Z</time>
      </trkpt>
      <trkpt lat="42.82518890" lon="12.66938840">
        <ele>258.17200</ele>
        <time>2010-01-01T02:35:22Z</time>
      </trkpt>
      <trkpt lat="42.82517340" lon="12.66910190">
        <ele>257.94500</ele>
        <time>2010-01-01T02:35:26Z</time>
      </trkpt>
      <trkpt lat="42.82509990" lon="12.66898080">
        <ele>257.31800</ele>
        <time>2010-01-01T02:35:28Z</time>
      </trkpt>
      <trkpt lat="42.82494560" lon="12.66901490">
        <ele>256.21800</ele>
        <time>2010-01-01T02:35:30Z</time>
      </trkpt>
      <trkpt lat="42.82477730" lon="12.66916300">
        <ele>255.16900</ele>
        <time>2010-01-01T02:35:33Z</time>
      </trkpt>
      <trkpt lat="42.82462380" lon="12.66926220">
        <ele>254.47800</ele>
        <time>2010-01-01T02:35:36Z</time>
      </trkpt>
      <trkpt lat="42.82445090" lon="12.66936800">
        <ele>253.93300</ele>
        <time>2010-01-01T02:35:39Z</time>
      </trkpt>
      <trkpt lat="42.82427510" lon="12.66947360">
        <ele>253.45500</ele>
        <time>2010-01-01T02:35:42Z</time>
      </trkpt>
      <trkpt lat="42.82410030" lon="12.66955850">
        <ele>253.25100</ele>
        <time>2010-01-01T02:35:45Z</time>
      </trkpt>
      <trkpt lat="42.82381940" lon="12.66966180">
        <ele>253.41400</ele>
        <time>2010-01-01T02:35:50Z</time>
      </trkpt>
      <trkpt lat="42.82351630" lon="12.66982310">
        <ele>253.69200</ele>
        <time>2010-01-01T02:35:55Z</time>
      </trkpt>
      <trkpt lat="42.82332200" lon="12.66995020">
        <ele>254.43300</ele>
        <time>2010-01-01T02:35:58Z</time>
      </trkpt>
      <trkpt lat="42.82309510" lon="12.67021090">
        <ele>256.12200</ele>
        <time>2010-01-01T02:36:03Z</time>
      </trkpt>
      <trkpt lat="42.82311980" lon="12.67044640">
        <ele>258.43600</ele>
        <time>2010-01-01T02:36:06Z</time>
      </trkpt>
      <trkpt lat="42.82319330" lon="12.67063010">
        <ele>261.12600</ele>
        <time>2010-01-01T02:36:08Z</time>
      </trkpt>
      <trkpt lat="42.82330410" lon="12.67082310">
        <ele>263.92200</ele>
        <time>2010-01-01T02:36:11Z</time>
      </trkpt>
      <trkpt lat="42.82355300" lon="12.67112430">
        <ele>265.98500</ele>
        <time>2010-01-01T02:36:17Z</time>
      </trkpt>
      <trkpt lat="42.82387660" lon="12.67137280">
        <ele>267.08700</ele>
        <time>2010-01-01T02:36:23Z</time>
      </trkpt>
      <trkpt lat="42.82414580" lon="12.67156920">
        <ele>267.60900</ele>
        <time>2010-01-01T02:36:27Z</time>
      </trkpt>
      <trkpt lat="42.82422090" lon="12.67178730">
        <ele>267.87200</ele>
        <time>2010-01-01T02:36:30Z</time>
      </trkpt>
      <trkpt lat="42.82418140" lon="12.67202860">
        <ele>268.83900</ele>
        <time>2010-01-01T02:36:33Z</time>
      </trkpt>
      <trkpt lat="42.82408920" lon="12.67219560">
        <ele>271.51000</ele>
        <time>2010-01-01T02:36:36Z</time>
      </trkpt>
      <trkpt lat="42.82395240" lon="12.67226470">
        <ele>275.03000</ele>
        <time>2010-01-01T02:36:38Z</time>
      </trkpt>
      <trkpt lat="42.82384290" lon="12.67231970">
        <ele>277.75100</ele>
        <time>2010-01-01T02:36:40Z</time>
      </trkpt>
      <trkpt lat="42.82367160" lon="12.67238060">
        <ele>279.56900</ele>
        <time>2010-01-01T02:36:43Z</time>
      </trkpt>
      <trkpt lat="42.82357090" lon="12.67237100">
        <ele>281.58400</ele>
        <time>2010-01-01T02:36:44Z</time>
      </trkpt>
      <trkpt lat="42.82339150" lon="12.67229000">
        <ele>284.10300</ele>
        <time>2010-01-01T02:36:47Z</time>
      </trkpt>
      <trkpt lat="42.82325950" lon="12.67230010">
        <ele>286.19400</ele>
        <time>2010-01-01T02:36:49Z</time>
      </trkpt>
      <trkpt lat="42.82314520" lon="12.67238210">
        <ele>287.54000</ele>
        <time>2010-01-01T02:36:51Z</time>
      </trkpt>
      <trkpt lat="42.82305220" lon="12.67244040">
        <ele>288.75600</ele>
        <time>2010-01-01T02:36:53Z</time>
      </trkpt>
      <trkpt lat="42.82292270" lon="12.67258120">
        <ele>289.88300</ele>
        <time>2010-01-01T02:36:56Z</time>
      </trkpt>
      <trkpt lat="42.82279100" lon="12.67279740">
        <ele>290.63000</ele>
        <time>2010-01-01T02:36:59Z</time>
      </trkpt>
      <trkpt lat="42.82268560" lon="12.67298470">
        <ele>291.95800</ele>
        <time>2010-01-01T02:37:02Z</time>
      </trkpt>
      <trkpt lat="42.82249530" lon="12.67330460">
        <ele>294.97100</ele>
        <time>2010-01-01T02:37:07Z</time>
      </trkpt>
      <trkpt lat="42.82235320" lon="12.67353370">
        <ele>298.60800</ele>
        <time>2010-01-01T02:37:10Z</time>
      </trkpt>
      <trkpt lat="42.82211110" lon="12.67391430">
        <ele>300.91800</ele>
        <time>2010-01-01T02:37:16Z</time>
      </trkpt>
      <trkpt lat="42.82187820" lon="12.67430310">
        <ele>301.61900</ele>
        <time>2010-01-01T02:37:22Z</time>
      </trkpt>
      <trkpt lat="42.82176580" lon="12.67457260">
        <ele>301.37700</ele>
        <time>2010-01-01T02:37:26Z</time>
      </trkpt>
      <trkpt lat="42.82162460" lon="12.67498280">
        <ele>300.78800</ele>
        <time>2010-01-01T02:37:31Z</time>
      </trkpt>
      <trkpt lat="42.82159950" lon="12.67543120">
        <ele>300.30300</ele>
        <time>2010-01-01T02:37:36Z</time>
      </trkpt>
      <trkpt lat="42.82162510" lon="12.67582450">
        <ele>300.10500</ele>
        <time>2010-01-01T02:37:41Z</time>
      </trkpt>
      <trkpt lat="42.82167370" lon="12.67619470">
        <ele>300.62400</ele>
        <time>2010-01-01T02:37:45Z</time>
      </trkpt>
      <trkpt lat="42.82176400" lon="12.67676570">
        <ele>302.49900</ele>
        <time>2010-01-01T02:37:52Z</time>
      </trkpt>
      <trkpt lat="42.82183790" lon="12.67731460">
        <ele>305.21900</ele>
        <time>2010-01-01T02:37:59Z</time>
      </trkpt>
      <trkpt lat="42.82191430" lon="12.67785900">
        <ele>307.36200</ele>
        <time>2010-01-01T02:38:05Z</time>
      </trkpt>
      <trkpt lat="42.82199130" lon="12.67839790">
        <ele>308.29700</ele>
        <time>2010-01-01T02:38:12Z</time>
      </trkpt>
      <trkpt lat="42.82207560" lon="12.67895670">
        <ele>308.29100</ele>
        <time>2010-01-01T02:38:18Z</time>
      </trkpt>
      <trkpt lat="42.82214660" lon="12.67951580">
        <ele>307.61600</ele>
        <time>2010-01-01T02:38:25Z</time>
      </trkpt>
      <trkpt lat="42.82219560" lon="12.68001120">
        <ele>306.47600</ele>
        <time>2010-01-01T02:38:31Z</time>
      </trkpt>
      <trkpt lat="42.82228350" lon="12.68048890">
        <ele>305.35100</ele>
        <time>2010-01-01T02:38:37Z</time>
      </trkpt>
      <trkpt lat="42.82235800" lon="12.68077440">
        <ele>304.27500</ele>
        <time>2010-01-01T02:38:40Z</time>
      </trkpt>
      <trkpt lat="42.82239670" lon="12.68120570">
        <ele>302.69300</ele>
        <time>2010-01-01T02:38:45Z</time>
      </trkpt>
      <trkpt lat="42.82232180" lon="12.68150560">
        <ele>300.33300</ele>
        <time>2010-01-01T02:38:49Z</time>
      </trkpt>
      <trkpt lat="42.82216820" lon="12.68196530">
        <ele>297.72700</ele>
        <time>2010-01-01T02:38:55Z</time>
      </trkpt>
      <trkpt lat="42.82201700" lon="12.68229270">
        <ele>295.68200</ele>
        <time>2010-01-01T02:39:00Z</time>
      </trkpt>
      <trkpt lat="42.82168070" lon="12.68271070">
        <ele>294.38100</ele>
        <time>2010-01-01T02:39:07Z</time>
      </trkpt>
      <trkpt lat="42.82142220" lon="12.68286280">
        <ele>293.47700</ele>
        <time>2010-01-01T02:39:11Z</time>
      </trkpt>
      <trkpt lat="42.82098980" lon="12.68294520">
        <ele>292.59800</ele>
        <time>2010-01-01T02:39:18Z</time>
      </trkpt>
      <trkpt lat="42.82075030" lon="12.68279800">
        <ele>290.52800</ele>
        <time>2010-01-01T02:39:23Z</time>
      </trkpt>
      <trkpt lat="42.82051710" lon="12.68225190">
        <ele>286.84900</ele>
        <time>2010-01-01T02:39:30Z</time>
      </trkpt>
      <trkpt lat="42.82040980" lon="12.68195980">
        <ele>282.85600</ele>
        <time>2010-01-01T02:39:34Z</time>
      </trkpt>
      <trkpt lat="42.82022540" lon="12.68163530">
        <ele>279.76600</ele>
        <time>2010-01-01T02:39:39Z</time>
      </trkpt>
      <trkpt lat="42.82006960" lon="12.68153090">
        <ele>277.39000</ele>
        <time>2010-01-01T02:39:41Z</time>
      </trkpt>
      <trkpt lat="42.81990300" lon="12.68165520">
        <ele>274.89100</ele>
        <time>2010-01-01T02:39:44Z</time>
      </trkpt>
      <trkpt lat="42.81963970" lon="12.68214440">
        <ele>272.12000</ele>
        <time>2010-01-01T02:39:52Z</time>
      </trkpt>
      <trkpt lat="42.81947790" lon="12.68242670">
        <ele>269.66900</ele>
        <time>2010-01-01T02:39:56Z</time>
      </trkpt>
      <trkpt lat="42.81930470" lon="12.68268410">
        <ele>267.74000</ele>
        <time>2010-01-01T02:40:00Z</time>
      </trkpt>
      <trkpt lat="42.81907080" lon="12.68312760">
        <ele>266.27800</ele>
        <time>2010-01-01T02:40:06Z</time>
      </trkpt>
      <trkpt lat="42.81901960" lon="12.68348130">
        <ele>265.04600</ele>
        <time>2010-01-01T02:40:11Z</time>
      </trkpt>
      <trkpt lat="42.81912730" lon="12.68400550">
        <ele>263.81500</ele>
        <time>2010-01-01T02:40:17Z</time>
      </trkpt>
      <trkpt lat="42.81932630" lon="12.68445420">
        <ele>262.30700</ele>
        <time>2010-01-01T02:40:23Z</time>
      </trkpt>
      <trkpt lat="42.81958280" lon="12.68486240">
        <ele>260.53300</ele>
        <time>2010-01-01T02:40:29Z</time>
      </trkpt>
      <trkpt lat="42.81973670" lon="12.68516530">
        <ele>259.02500</ele>
        <time>2010-01-01T02:40:34Z</time>
      </trkpt>
      <trkpt lat="42.81985760" lon="12.68547910">
        <ele>257.79000</ele>
        <time>2010-01-01T02:40:38Z</time>
      </trkpt>
      <trkpt lat="42.82002600" lon="12.68598930">
        <ele>256.44800</ele>
        <time>2010-01-01T02:40:44Z</time>
      </trkpt>
      <trkpt lat="42.82018890" lon="12.68651080">
        <ele>255.22900</ele>
        <time>2010-01-01T02:40:51Z</time>
      </trkpt>
      <trkpt lat="42.82027210" lon="12.68682650">
        <ele>253.68500</ele>
        <time>2010-01-01T02:40:55Z</time>
      </trkpt>
      <trkpt lat="42.82034050" lon="12.68717650">
        <ele>251.31400</ele>
        <time>2010-01-01T02:40:59Z</time>
      </trkpt>
      <trkpt lat="42.82025700" lon="12.68754550">
        <ele>249.05200</ele>
        <time>2010-01-01T02:41:04Z</time>
      </trkpt>
      <trkpt lat="42.82012070" lon="12.68796400">
        <ele>247.79700</ele>
        <time>2010-01-01T02:41:09Z</time>
      </trkpt>
      <trkpt lat="42.82004520" lon="12.68838430">
        <ele>247.28600</ele>
        <time>2010-01-01T02:41:14Z</time>
      </trkpt>
      <trkpt lat="42.82001830" lon="12.68856510">
        <ele>247.16900</ele>
        <time>2010-01-01T02:41:16Z</time>
      </trkpt>
      <trkpt lat="42.82013200" lon="12.68875760">
        <ele>247.17100</ele>
        <time>2010-01-01T02:41:19Z</time>
      </trkpt>
      <trkpt lat="42.82032030" lon="12.68872480">
        <ele>246.80200</ele>
        <time>2010-01-01T02:41:22Z</time>
      </trkpt>
      <trkpt lat="42.82064740" lon="12.68871560">
        <ele>245.77200</ele>
        <time>2010-01-01T02:41:28Z</time>
      </trkpt>
      <trkpt lat="42.82089890" lon="12.68873420">
        <ele>244.52700</ele>
        <time>2010-01-01T02:41:32Z</time>
      </trkpt>
      <trkpt lat="42.82127770" lon="12.68892700">
        <ele>243.48200</ele>
        <time>2010-01-01T02:41:38Z</time>
      </trkpt>
      <trkpt lat="42.82149570" lon="12.68920720">
        <ele>242.53400</ele>
        <time>2010-01-01T02:41:43Z</time>
      </trkpt>
      <trkpt lat="42.82177190" lon="12.68964130">
        <ele>241.59000</ele>
        <time>2010-01-01T02:41:50Z</time>
      </trkpt>
      <trkpt lat="42.82200020" lon="12.69001720">
        <ele>240.70800</ele>
        <time>2010-01-01T02:41:55Z</time>
      </trkpt>
      <trkpt lat="42.82222460" lon="12.69039900">
        <ele>240.11500</ele>
        <time>2010-01-01T02:42:01Z</time>
      </trkpt>
      <trkpt lat="42.82237460" lon="12.69065040">
        <ele>239.96900</ele>
        <time>2010-01-01T02:42:05Z</time>
      </trkpt>
      <trkpt lat="42.82266300" lon="12.69104540">
        <ele>240.08700</ele>
        <time>2010-01-01T02:42:12Z</time>
      </trkpt>
      <trkpt lat="42.82301600" lon="12.69141870">
        <ele>240.49200</ele>
        <time>2010-01-01T02:42:19Z</time>
      </trkpt>
      <trkpt lat="42.82326450" lon="12.69163310">
        <ele>241.27000</ele>
        <time>2010-01-01T02:42:23Z</time>
      </trkpt>
      <trkpt lat="42.82357190" lon="12.69189780">
        <ele>242.01500</ele>
        <time>2010-01-01T02:42:29Z</time>
      </trkpt>
      <trkpt lat="42.82374160" lon="12.69207240">
        <ele>242.35300</ele>
        <time>2010-01-01T02:42:33Z</time>
      </trkpt>
      <trkpt lat="42.82395020" lon="12.69233590">
        <ele>242.12700</ele>
        <time>2010-01-01T02:42:37Z</time>
      </trkpt>
      <trkpt lat="42.82407380" lon="12.69251900">
        <ele>241.00600</ele>
        <time>2010-01-01T02:42:40Z</time>
      </trkpt>
      <trkpt lat="42.82427800" lon="12.69283320">
        <ele>239.13100</ele>
        <time>2010-01-01T02:42:45Z</time>
      </trkpt>
      <trkpt lat="42.82451730" lon="12.69314130">
        <ele>237.30500</ele>
        <time>2010-01-01T02:42:50Z</time>
      </trkpt>
      <trkpt lat="42.82467910" lon="12.69330790">
        <ele>235.91600</ele>
        <time>2010-01-01T02:42:54Z</time>
      </trkpt>
      <trkpt lat="42.82494170" lon="12.69351920">
        <ele>234.84000</ele>
        <time>2010-01-01T02:42:58Z</time>
      </trkpt>
      <trkpt lat="42.82512690" lon="12.69366250">
        <ele>234.14200</ele>
        <time>2010-01-01T02:43:02Z</time>
      </trkpt>
      <trkpt lat="42.82544790" lon="12.69384740">
        <ele>233.92400</ele>
        <time>2010-01-01T02:43:07Z</time>
      </trkpt>
      <trkpt lat="42.82569860" lon="12.69395560">
        <ele>234.14100</ele>
        <time>2010-01-01T02:43:12Z</time>
      </trkpt>
      <trkpt lat="42.82600690" lon="12.69402660">
        <ele>234.55900</ele>
        <time>2010-01-01T02:43:17Z</time>
      </trkpt>
      <trkpt lat="42.82628990" lon="12.69410260">
        <ele>234.78100</ele>
        <time>2010-01-01T02:43:21Z</time>
      </trkpt>
      <trkpt lat="42.82671960" lon="12.69422950">
        <ele>234.75200</ele>
        <time>2010-01-01T02:43:28Z</time>
      </trkpt>
      <trkpt lat="42.82712580" lon="12.69440800">
        <ele>234.78000</ele>
        <time>2010-01-01T02:43:35Z</time>
      </trkpt>
      <trkpt lat="42.82739020" lon="12.69454230">
        <ele>235.14900</ele>
        <time>2010-01-01T02:43:40Z</time>
      </trkpt>
      <trkpt lat="42.82780240" lon="12.69476820">
        <ele>235.89900</ele>
        <time>2010-01-01T02:43:47Z</time>
      </trkpt>
      <trkpt lat="42.82820830" lon="12.69500860">
        <ele>236.34400</ele>
        <time>2010-01-01T02:43:54Z</time>
      </trkpt>
      <trkpt lat="42.82849020" lon="12.69517690">
        <ele>235.92900</ele>
        <time>2010-01-01T02:43:59Z</time>
      </trkpt>
      <trkpt lat="42.82878410" lon="12.69534870">
        <ele>235.16300</ele>
        <time>2010-01-01T02:44:04Z</time>
      </trkpt>
      <trkpt lat="42.82922870" lon="12.69559250">
        <ele>234.67000</ele>
        <time>2010-01-01T02:44:12Z</time>
      </trkpt>
      <trkpt lat="42.82965950" lon="12.69583510">
        <ele>234.36400</ele>
        <time>2010-01-01T02:44:19Z</time>
      </trkpt>
      <trkpt lat="42.83006190" lon="12.69605860">
        <ele>234.07300</ele>
        <time>2010-01-01T02:44:26Z</time>
      </trkpt>
      <trkpt lat="42.83045540" lon="12.69627360">
        <ele>233.84700</ele>
        <time>2010-01-01T02:44:33Z</time>
      </trkpt>
      <trkpt lat="42.83072330" lon="12.69641990">
        <ele>233.75300</ele>
        <time>2010-01-01T02:44:37Z</time>
      </trkpt>
      <trkpt lat="42.83097900" lon="12.69655890">
        <ele>233.65200</ele>
        <time>2010-01-01T02:44:42Z</time>
      </trkpt>
      <trkpt lat="42.83123560" lon="12.69669660">
        <ele>233.36800</ele>
        <time>2010-01-01T02:44:46Z</time>
      </trkpt>
      <trkpt lat="42.83162500" lon="12.69689890">
        <ele>232.92600</ele>
        <time>2010-01-01T02:44:53Z</time>
      </trkpt>
      <trkpt lat="42.83200350" lon="12.69710380">
        <ele>232.52200</ele>
        <time>2010-01-01T02:44:59Z</time>
      </trkpt>
      <trkpt lat="42.83237650" lon="12.69737680">
        <ele>232.23700</ele>
        <time>2010-01-01T02:45:06Z</time>
      </trkpt>
      <trkpt lat="42.83257920" lon="12.69766670">
        <ele>232.02700</ele>
        <time>2010-01-01T02:45:11Z</time>
      </trkpt>
      <trkpt lat="42.83288550" lon="12.69812690">
        <ele>231.86100</ele>
        <time>2010-01-01T02:45:18Z</time>
      </trkpt>
      <trkpt lat="42.83321940" lon="12.69860420">
        <ele>231.74500</ele>
        <time>2010-01-01T02:45:26Z</time>
      </trkpt>
      <trkpt lat="42.83344410" lon="12.69892920">
        <ele>231.32000</ele>
        <time>2010-01-01T02:45:31Z</time>
      </trkpt>
      <trkpt lat="42.83366030" lon="12.69924090">
        <ele>229.71300</ele>
        <time>2010-01-01T02:45:36Z</time>
      </trkpt>
      <trkpt lat="42.83398460" lon="12.69970620">
        <ele>227.04700</ele>
        <time>2010-01-01T02:45:44Z</time>
      </trkpt>
      <trkpt lat="42.83430060" lon="12.70014880">
        <ele>224.83900</ele>
        <time>2010-01-01T02:45:51Z</time>
      </trkpt>
      <trkpt lat="42.83450180" lon="12.70045770">
        <ele>223.93800</ele>
        <time>2010-01-01T02:45:56Z</time>
      </trkpt>
      <trkpt lat="42.83478010" lon="12.70094890">
        <ele>224.27900</ele>
        <time>2010-01-01T02:46:03Z</time>
      </trkpt>
      <trkpt lat="42.83504230" lon="12.70145320">
        <ele>225.51100</ele>
        <time>2010-01-01T02:46:10Z</time>
      </trkpt>
      <trkpt lat="42.83520870" lon="12.70181130">
        <ele>226.73000</ele>
        <time>2010-01-01T02:46:15Z</time>
      </trkpt>
      <trkpt lat="42.83535880" lon="12.70215690">
        <ele>227.29500</ele>
        <time>2010-01-01T02:46:20Z</time>
      </trkpt>
      <trkpt lat="42.83552870" lon="12.70268070">
        <ele>227.46500</ele>
        <time>2010-01-01T02:46:27Z</time>
      </trkpt>
      <trkpt lat="42.83560660" lon="12.70303620">
        <ele>227.60300</ele>
        <time>2010-01-01T02:46:31Z</time>
      </trkpt>
      <trkpt lat="42.83569430" lon="12.70357380">
        <ele>227.75100</ele>
        <time>2010-01-01T02:46:38Z</time>
      </trkpt>
      <trkpt lat="42.83573680" lon="12.70387500">
        <ele>227.84800</ele>
        <time>2010-01-01T02:46:41Z</time>
      </trkpt>
      <trkpt lat="42.83577020" lon="12.70420500">
        <ele>227.92800</ele>
        <time>2010-01-01T02:46:45Z</time>
      </trkpt>
      <trkpt lat="42.83583930" lon="12.70476350">
        <ele>227.98500</ele>
        <time>2010-01-01T02:46:52Z</time>
      </trkpt>
      <trkpt lat="42.83589320" lon="12.70535760">
        <ele>228.00600</ele>
        <time>2010-01-01T02:46:59Z</time>
      </trkpt>
      <trkpt lat="42.83590060" lon="12.70574720">
        <ele>227.79900</ele>
        <time>2010-01-01T02:47:03Z</time>
      </trkpt>
      <trkpt lat="42.83578420" lon="12.70631950">
        <ele>226.82800</ele>
        <time>2010-01-01T02:47:10Z</time>
      </trkpt>
      <trkpt lat="42.83564110" lon="12.70680570">
        <ele>225.06600</ele>
        <time>2010-01-01T02:47:17Z</time>
      </trkpt>
      <trkpt lat="42.83551630" lon="12.70711750">
        <ele>223.30900</ele>
        <time>2010-01-01T02:47:21Z</time>
      </trkpt>
      <trkpt lat="42.83525700" lon="12.70752400">
        <ele>222.16500</ele>
        <time>2010-01-01T02:47:27Z</time>
      </trkpt>
      <trkpt lat="42.83496030" lon="12.70796310">
        <ele>221.64100</ele>
        <time>2010-01-01T02:47:34Z</time>
      </trkpt>
      <trkpt lat="42.83476640" lon="12.70824900">
        <ele>221.57300</ele>
        <time>2010-01-01T02:47:39Z</time>
      </trkpt>
      <trkpt lat="42.83449550" lon="12.70867440">
        <ele>221.69700</ele>
        <time>2010-01-01T02:47:45Z</time>
      </trkpt>
      <trkpt lat="42.83422660" lon="12.70909360">
        <ele>221.60800</ele>
        <time>2010-01-01T02:47:52Z</time>
      </trkpt>
      <trkpt lat="42.83396780" lon="12.70949390">
        <ele>221.15100</ele>
        <time>2010-01-01T02:47:58Z</time>
      </trkpt>
      <trkpt lat="42.83371560" lon="12.70988900">
        <ele>220.72600</ele>
        <time>2010-01-01T02:48:04Z</time>
      </trkpt>
      <trkpt lat="42.83354150" lon="12.71015050">
        <ele>220.66700</ele>
        <time>2010-01-01T02:48:08Z</time>
      </trkpt>
      <trkpt lat="42.83324400" lon="12.71057080">
        <ele>220.81400</ele>
        <time>2010-01-01T02:48:15Z</time>
      </trkpt>
      <trkpt lat="42.83290470" lon="12.71101720">
        <ele>220.94100</ele>
        <time>2010-01-01T02:48:23Z</time>
      </trkpt>
      <trkpt lat="42.83253300" lon="12.71149750">
        <ele>221.55600</ele>
        <time>2010-01-01T02:48:31Z</time>
      </trkpt>
      <trkpt lat="42.83217690" lon="12.71204250">
        <ele>223.18100</ele>
        <time>2010-01-01T02:48:40Z</time>
      </trkpt>
      <trkpt lat="42.83185340" lon="12.71260890">
        <ele>225.44600</ele>
        <time>2010-01-01T02:48:48Z</time>
      </trkpt>
      <trkpt lat="42.83164670" lon="12.71298940">
        <ele>227.51700</ele>
        <time>2010-01-01T02:48:54Z</time>
      </trkpt>
      <trkpt lat="42.83144220" lon="12.71337100">
        <ele>228.79200</ele>
        <time>2010-01-01T02:48:59Z</time>
      </trkpt>
      <trkpt lat="42.83122700" lon="12.71376720">
        <ele>229.16100</ele>
        <time>2010-01-01T02:49:05Z</time>
      </trkpt>
      <trkpt lat="42.83102910" lon="12.71418460">
        <ele>228.66600</ele>
        <time>2010-01-01T02:49:11Z</time>
      </trkpt>
      <trkpt lat="42.83075670" lon="12.71486040">
        <ele>227.33400</ele>
        <time>2010-01-01T02:49:20Z</time>
      </trkpt>
      <trkpt lat="42.83047150" lon="12.71559210">
        <ele>225.84600</ele>
        <time>2010-01-01T02:49:29Z</time>
      </trkpt>
      <trkpt lat="42.83018280" lon="12.71632160">
        <ele>224.55300</ele>
        <time>2010-01-01T02:49:39Z</time>
      </trkpt>
      <trkpt lat="42.83000780" lon="12.71679560">
        <ele>222.73400</ele>
        <time>2010-01-01T02:49:45Z</time>
      </trkpt>
      <trkpt lat="42.82976650" lon="12.71750810">
        <ele>220.08900</ele>
        <time>2010-01-01T02:49:55Z</time>
      </trkpt>
      <trkpt lat="42.82963660" lon="12.71800510">
        <ele>217.53400</ele>
        <time>2010-01-01T02:50:01Z</time>
      </trkpt>
      <trkpt lat="42.82951570" lon="12.71877420">
        <ele>216.05800</ele>
        <time>2010-01-01T02:50:10Z</time>
      </trkpt>
      <trkpt lat="42.82947030" lon="12.71930970">
        <ele>215.67600</ele>
        <time>2010-01-01T02:50:16Z</time>
      </trkpt>
      <trkpt lat="42.82943750" lon="12.71985880">
        <ele>215.99900</ele>
        <time>2010-01-01T02:50:23Z</time>
      </trkpt>
      <trkpt lat="42.82935780" lon="12.72069380">
        <ele>217.15800</ele>
        <time>2010-01-01T02:50:33Z</time>
      </trkpt>
      <trkpt lat="42.82919470" lon="12.72152730">
        <ele>219.02000</ele>
        <time>2010-01-01T02:50:43Z</time>
      </trkpt>
      <trkpt lat="42.82903940" lon="12.72204660">
        <ele>220.63200</ele>
        <time>2010-01-01T02:50:50Z</time>
      </trkpt>
      <trkpt lat="42.82876900" lon="12.72280050">
        <ele>221.36700</ele>
        <time>2010-01-01T02:50:59Z</time>
      </trkpt>
      <trkpt lat="42.82844870" lon="12.72356470">
        <ele>221.52200</ele>
        <time>2010-01-01T02:51:10Z</time>
      </trkpt>
      <trkpt lat="42.82810900" lon="12.72433520">
        <ele>221.52900</ele>
        <time>2010-01-01T02:51:20Z</time>
      </trkpt>
      <trkpt lat="42.82788660" lon="12.72484310">
        <ele>221.49100</ele>
        <time>2010-01-01T02:51:27Z</time>
      </trkpt>
      <trkpt lat="42.82755010" lon="12.72561840">
        <ele>221.34300</ele>
        <time>2010-01-01T02:51:38Z</time>
      </trkpt>
      <trkpt lat="42.82732190" lon="12.72615910">
        <ele>221.14000</ele>
        <time>2010-01-01T02:51:45Z</time>
      </trkpt>
      <trkpt lat="42.82708760" lon="12.72670710">
        <ele>220.99600</ele>
        <time>2010-01-01T02:51:53Z</time>
      </trkpt>
      <trkpt lat="42.82674110" lon="12.72751770">
        <ele>220.94500</ele>
        <time>2010-01-01T02:52:04Z</time>
      </trkpt>
      <trkpt lat="42.82651360" lon="12.72804190">
        <ele>220.93700</ele>
        <time>2010-01-01T02:52:11Z</time>
      </trkpt>
      <trkpt lat="42.82619330" lon="12.72882600">
        <ele>220.92500</ele>
        <time>2010-01-01T02:52:21Z</time>
      </trkpt>
      <trkpt lat="42.82600740" lon="12.72934510">
        <ele>220.89900</ele>
        <time>2010-01-01T02:52:28Z</time>
      </trkpt>
      <trkpt lat="42.82574850" lon="12.73018240">
        <ele>220.88400</ele>
        <time>2010-01-01T02:52:39Z</time>
      </trkpt>
      <trkpt lat="42.82551570" lon="12.73103170">
        <ele>220.91400</ele>
        <time>2010-01-01T02:52:49Z</time>
      </trkpt>
      <trkpt lat="42.82529270" lon="12.73189890">
        <ele>220.98000</ele>
        <time>2010-01-01T02:53:00Z</time>
      </trkpt>
      <trkpt lat="42.82506630" lon="12.73277440">
        <ele>221.03800</ele>
        <time>2010-01-01T02:53:11Z</time>
      </trkpt>
      <trkpt lat="42.82489610" lon="12.73337550">
        <ele>221.29400</ele>
        <time>2010-01-01T02:53:19Z</time>
      </trkpt>
      <trkpt lat="42.82473680" lon="12.73394890">
        <ele>221.90700</ele>
        <time>2010-01-01T02:53:26Z</time>
      </trkpt>
      <trkpt lat="42.82450550" lon="12.73485380">
        <ele>222.75800</ele>
        <time>2010-01-01T02:53:37Z</time>
      </trkpt>
      <trkpt lat="42.82427780" lon="12.73573900">
        <ele>223.78200</ele>
        <time>2010-01-01T02:53:48Z</time>
      </trkpt>
      <trkpt lat="42.82405200" lon="12.73659150">
        <ele>225.26000</ele>
        <time>2010-01-01T02:53:59Z</time>
      </trkpt>
      <trkpt lat="42.82389960" lon="12.73721500">
        <ele>227.07200</ele>
        <time>2010-01-01T02:54:06Z</time>
      </trkpt>
      <trkpt lat="42.82366430" lon="12.73807540">
        <ele>228.46500</ele>
        <time>2010-01-01T02:54:17Z</time>
      </trkpt>
      <trkpt lat="42.82344520" lon="12.73889860">
        <ele>228.99700</ele>
        <time>2010-01-01T02:54:28Z</time>
      </trkpt>
      <trkpt lat="42.82323400" lon="12.73975110">
        <ele>228.54700</ele>
        <time>2010-01-01T02:54:38Z</time>
      </trkpt>
      <trkpt lat="42.82308090" lon="12.74028300">
        <ele>227.22000</ele>
        <time>2010-01-01T02:54:45Z</time>
      </trkpt>
      <trkpt lat="42.82289500" lon="12.74099850">
        <ele>225.99200</ele>
        <time>2010-01-01T02:54:54Z</time>
      </trkpt>
      <trkpt lat="42.82271430" lon="12.74166780">
        <ele>225.62200</ele>
        <time>2010-01-01T02:55:02Z</time>
      </trkpt>
      <trkpt lat="42.82260290" lon="12.74210300">
        <ele>225.82600</ele>
        <time>2010-01-01T02:55:08Z</time>
      </trkpt>
      <trkpt lat="42.82249020" lon="12.74275840">
        <ele>226.17300</ele>
        <time>2010-01-01T02:55:15Z</time>
      </trkpt>
      <trkpt lat="42.82248390" lon="12.74339590">
        <ele>226.42800</ele>
        <time>2010-01-01T02:55:23Z</time>
      </trkpt>
      <trkpt lat="42.82254880" lon="12.74377010">
        <ele>226.50600</ele>
        <time>2010-01-01T02:55:27Z</time>
      </trkpt>
      <trkpt lat="42.82271890" lon="12.74435210">
        <ele>226.43600</ele>
        <time>2010-01-01T02:55:35Z</time>
      </trkpt>
      <trkpt lat="42.82285910" lon="12.74474790">
        <ele>226.21200</ele>
        <time>2010-01-01T02:55:40Z</time>
      </trkpt>
      <trkpt lat="42.82308790" lon="12.74529770">
        <ele>225.65500</ele>
        <time>2010-01-01T02:55:47Z</time>
      </trkpt>
      <trkpt lat="42.82332040" lon="12.74583480">
        <ele>224.80300</ele>
        <time>2010-01-01T02:55:55Z</time>
      </trkpt>
      <trkpt lat="42.82356170" lon="12.74637440">
        <ele>224.09700</ele>
        <time>2010-01-01T02:56:02Z</time>
      </trkpt>
      <trkpt lat="42.82377940" lon="12.74689750">
        <ele>223.80900</ele>
        <time>2010-01-01T02:56:09Z</time>
      </trkpt>
      <trkpt lat="42.82400260" lon="12.74744770">
        <ele>223.98000</ele>
        <time>2010-01-01T02:56:17Z</time>
      </trkpt>
      <trkpt lat="42.82422950" lon="12.74800230">
        <ele>224.88500</ele>
        <time>2010-01-01T02:56:24Z</time>
      </trkpt>
      <trkpt lat="42.82438320" lon="12.74837530">
        <ele>226.43900</ele>
        <time>2010-01-01T02:56:29Z</time>
      </trkpt>
      <trkpt lat="42.82453680" lon="12.74875040">
        <ele>227.96500</ele>
        <time>2010-01-01T02:56:34Z</time>
      </trkpt>
      <trkpt lat="42.82476520" lon="12.74931280">
        <ele>229.05200</ele>
        <time>2010-01-01T02:56:42Z</time>
      </trkpt>
      <trkpt lat="42.82500900" lon="12.74988170">
        <ele>229.73500</ele>
        <time>2010-01-01T02:56:49Z</time>
      </trkpt>
      <trkpt lat="42.82517140" lon="12.75026250">
        <ele>230.04500</ele>
        <time>2010-01-01T02:56:55Z</time>
      </trkpt>
      <trkpt lat="42.82541720" lon="12.75085740">
        <ele>230.08400</ele>
        <time>2010-01-01T02:57:03Z</time>
      </trkpt>
      <trkpt lat="42.82566530" lon="12.75147920">
        <ele>230.15000</ele>
        <time>2010-01-01T02:57:11Z</time>
      </trkpt>
      <trkpt lat="42.82592210" lon="12.75212200">
        <ele>230.45500</ele>
        <time>2010-01-01T02:57:19Z</time>
      </trkpt>
      <trkpt lat="42.82618330" lon="12.75277130">
        <ele>230.85900</ele>
        <time>2010-01-01T02:57:28Z</time>
      </trkpt>
      <trkpt lat="42.82645070" lon="12.75339790">
        <ele>231.11400</ele>
        <time>2010-01-01T02:57:37Z</time>
      </trkpt>
      <trkpt lat="42.82661270" lon="12.75380080">
        <ele>231.19400</ele>
        <time>2010-01-01T02:57:42Z</time>
      </trkpt>
      <trkpt lat="42.82684070" lon="12.75444530">
        <ele>231.19100</ele>
        <time>2010-01-01T02:57:50Z</time>
      </trkpt>
      <trkpt lat="42.82694920" lon="12.75487370">
        <ele>231.16600</ele>
        <time>2010-01-01T02:57:56Z</time>
      </trkpt>
      <trkpt lat="42.82702290" lon="12.75556350">
        <ele>231.13900</ele>
        <time>2010-01-01T02:58:04Z</time>
      </trkpt>
      <trkpt lat="42.82699020" lon="12.75624950">
        <ele>231.12600</ele>
        <time>2010-01-01T02:58:12Z</time>
      </trkpt>
      <trkpt lat="42.82692240" lon="12.75690670">
        <ele>231.13300</ele>
        <time>2010-01-01T02:58:20Z</time>
      </trkpt>
      <trkpt lat="42.82687580" lon="12.75731900">
        <ele>231.14600</ele>
        <time>2010-01-01T02:58:25Z</time>
      </trkpt>
      <trkpt lat="42.82683630" lon="12.75773540">
        <ele>231.18700</ele>
        <time>2010-01-01T02:58:30Z</time>
      </trkpt>
      <trkpt lat="42.82679020" lon="12.75829680">
        <ele>231.52200</ele>
        <time>2010-01-01T02:58:36Z</time>
      </trkpt>
      <trkpt lat="42.82675890" lon="12.75863730">
        <ele>232.30300</ele>
        <time>2010-01-01T02:58:40Z</time>
      </trkpt>
      <trkpt lat="42.82671230" lon="12.75914850">
        <ele>233.20400</ele>
        <time>2010-01-01T02:58:46Z</time>
      </trkpt>
      <trkpt lat="42.82667380" lon="12.75964210">
        <ele>233.95300</ele>
        <time>2010-01-01T02:58:52Z</time>
      </trkpt>
      <trkpt lat="42.82665080" lon="12.75989560">
        <ele>234.53800</ele>
        <time>2010-01-01T02:58:55Z</time>
      </trkpt>
      <trkpt lat="42.82653020" lon="12.76014580">
        <ele>234.90600</ele>
        <time>2010-01-01T02:58:59Z</time>
      </trkpt>
      <trkpt lat="42.82640770" lon="12.76040170">
        <ele>235.07400</ele>
        <time>2010-01-01T02:59:02Z</time>
      </trkpt>
      <trkpt lat="42.82643760" lon="12.76061710">
        <ele>235.09500</ele>
        <time>2010-01-01T02:59:05Z</time>
      </trkpt>
      <trkpt lat="42.82654090" lon="12.76092110">
        <ele>234.97500</ele>
        <time>2010-01-01T02:59:09Z</time>
      </trkpt>
      <trkpt lat="42.82654740" lon="12.76133500">
        <ele>234.79100</ele>
        <time>2010-01-01T02:59:14Z</time>
      </trkpt>
      <trkpt lat="42.82651380" lon="12.76182460">
        <ele>234.55900</ele>
        <time>2010-01-01T02:59:19Z</time>
      </trkpt>
      <trkpt lat="42.82646050" lon="12.76237490">
        <ele>234.21700</ele>
        <time>2010-01-01T02:59:26Z</time>
      </trkpt>
      <trkpt lat="42.82638470" lon="12.76296040">
        <ele>233.80300</ele>
        <time>2010-01-01T02:59:33Z</time>
      </trkpt>
      <trkpt lat="42.82631560" lon="12.76334870">
        <ele>233.29300</ele>
        <time>2010-01-01T02:59:38Z</time>
      </trkpt>
      <trkpt lat="42.82618060" lon="12.76399290">
        <ele>232.56800</ele>
        <time>2010-01-01T02:59:46Z</time>
      </trkpt>
      <trkpt lat="42.82604750" lon="12.76462010">
        <ele>231.56000</ele>
        <time>2010-01-01T02:59:53Z</time>
      </trkpt>
      <trkpt lat="42.82595880" lon="12.76502240">
        <ele>230.42500</ele>
        <time>2010-01-01T02:59:58Z</time>
      </trkpt>
      <trkpt lat="42.82586630" lon="12.76542300">
        <ele>229.41300</ele>
        <time>2010-01-01T03:00:03Z</time>
      </trkpt>
      <trkpt lat="42.82578030" lon="12.76582550">
        <ele>228.07700</ele>
        <time>2010-01-01T03:00:08Z</time>
      </trkpt>
      <trkpt lat="42.82567810" lon="12.76635300">
        <ele>226.12600</ele>
        <time>2010-01-01T03:00:14Z</time>
      </trkpt>
      <trkpt lat="42.82562520" lon="12.76656120">
        <ele>224.45600</ele>
        <time>2010-01-01T03:00:17Z</time>
      </trkpt>
      <trkpt lat="42.82558980" lon="12.76667770">
        <ele>223.75600</ele>
        <time>2010-01-01T03:00:18Z</time>
      </trkpt>
      <trkpt lat="42.82561220" lon="12.76683360">
        <ele>224.11400</ele>
        <time>2010-01-01T03:00:20Z</time>
      </trkpt>
      <trkpt lat="42.82579570" lon="12.76698430">
        <ele>225.37400</ele>
        <time>2010-01-01T03:00:24Z</time>
      </trkpt>
      <trkpt lat="42.82600370" lon="12.76711530">
        <ele>226.83900</ele>
        <time>2010-01-01T03:00:27Z</time>
      </trkpt>
      <trkpt lat="42.82624150" lon="12.76725110">
        <ele>227.89000</ele>
        <time>2010-01-01T03:00:32Z</time>
      </trkpt>
      <trkpt lat="42.82665110" lon="12.76746140">
        <ele>228.41100</ele>
        <time>2010-01-01T03:00:39Z</time>
      </trkpt>
      <trkpt lat="42.82693870" lon="12.76761340">
        <ele>228.50400</ele>
        <time>2010-01-01T03:00:44Z</time>
      </trkpt>
      <trkpt lat="42.82723030" lon="12.76776280">
        <ele>228.30300</ele>
        <time>2010-01-01T03:00:49Z</time>
      </trkpt>
      <trkpt lat="42.82752630" lon="12.76791960">
        <ele>227.75500</ele>
        <time>2010-01-01T03:00:54Z</time>
      </trkpt>
      <trkpt lat="42.82797550" lon="12.76815580">
        <ele>227.00700</ele>
        <time>2010-01-01T03:01:01Z</time>
      </trkpt>
      <trkpt lat="42.82840880" lon="12.76834870">
        <ele>226.45600</ele>
        <time>2010-01-01T03:01:09Z</time>
      </trkpt>
      <trkpt lat="42.82886670" lon="12.76859460">
        <ele>226.23200</ele>
        <time>2010-01-01T03:01:16Z</time>
      </trkpt>
      <trkpt lat="42.82934570" lon="12.76884000">
        <ele>226.15700</ele>
        <time>2010-01-01T03:01:25Z</time>
      </trkpt>
      <trkpt lat="42.82966970" lon="12.76894380">
        <ele>226.11500</ele>
        <time>2010-01-01T03:01:30Z</time>
      </trkpt>
      <trkpt lat="42.83020550" lon="12.76901380">
        <ele>226.10700</ele>
        <time>2010-01-01T03:01:39Z</time>
      </trkpt>
      <trkpt lat="42.83070660" lon="12.76895380">
        <ele>226.12500</ele>
        <time>2010-01-01T03:01:47Z</time>
      </trkpt>
      <trkpt lat="42.83118280" lon="12.76886390">
        <ele>226.14100</ele>
        <time>2010-01-01T03:01:54Z</time>
      </trkpt>
      <trkpt lat="42.83145280" lon="12.76880170">
        <ele>226.14800</ele>
        <time>2010-01-01T03:01:59Z</time>
      </trkpt>
      <trkpt lat="42.83185200" lon="12.76872790">
        <ele>226.14900</ele>
        <time>2010-01-01T03:02:05Z</time>
      </trkpt>
      <trkpt lat="42.83225130" lon="12.76865350">
        <ele>226.70400</ele>
        <time>2010-01-01T03:02:12Z</time>
      </trkpt>
      <trkpt lat="42.83252220" lon="12.76859900">
        <ele>228.31800</ele>
        <time>2010-01-01T03:02:16Z</time>
      </trkpt>
      <trkpt lat="42.83293530" lon="12.76853080">
        <ele>230.24100</ele>
        <time>2010-01-01T03:02:23Z</time>
      </trkpt>
      <trkpt lat="42.83337410" lon="12.76836230">
        <ele>231.39600</ele>
        <time>2010-01-01T03:02:30Z</time>
      </trkpt>
      <trkpt lat="42.83373820" lon="12.76797710">
        <ele>231.77600</ele>
        <time>2010-01-01T03:02:37Z</time>
      </trkpt>
      <trkpt lat="42.83407450" lon="12.76744610">
        <ele>231.84500</ele>
        <time>2010-01-01T03:02:46Z</time>
      </trkpt>
      <trkpt lat="42.83431240" lon="12.76686590">
        <ele>231.73600</ele>
        <time>2010-01-01T03:02:53Z</time>
      </trkpt>
      <trkpt lat="42.83444700" lon="12.76646720">
        <ele>231.28200</ele>
        <time>2010-01-01T03:02:59Z</time>
      </trkpt>
      <trkpt lat="42.83464290" lon="12.76583240">
        <ele>230.57700</ele>
        <time>2010-01-01T03:03:07Z</time>
      </trkpt>
      <trkpt lat="42.83476930" lon="12.76538250">
        <ele>229.76700</ele>
        <time>2010-01-01T03:03:12Z</time>
      </trkpt>
      <trkpt lat="42.83497380" lon="12.76470660">
        <ele>228.90300</ele>
        <time>2010-01-01T03:03:21Z</time>
      </trkpt>
      <trkpt lat="42.83511140" lon="12.76425460">
        <ele>228.24800</ele>
        <time>2010-01-01T03:03:27Z</time>
      </trkpt>
      <trkpt lat="42.83525430" lon="12.76379410">
        <ele>228.00100</ele>
        <time>2010-01-01T03:03:33Z</time>
      </trkpt>
      <trkpt lat="42.83547150" lon="12.76309890">
        <ele>228.10600</ele>
        <time>2010-01-01T03:03:41Z</time>
      </trkpt>
      <trkpt lat="42.83561930" lon="12.76263870">
        <ele>228.54700</ele>
        <time>2010-01-01T03:03:47Z</time>
      </trkpt>
      <trkpt lat="42.83577190" lon="12.76218300">
        <ele>229.17100</ele>
        <time>2010-01-01T03:03:53Z</time>
      </trkpt>
      <trkpt lat="42.83592600" lon="12.76172430">
        <ele>229.82700</ele>
        <time>2010-01-01T03:03:59Z</time>
      </trkpt>
      <trkpt lat="42.83608080" lon="12.76127850">
        <ele>230.68800</ele>
        <time>2010-01-01T03:04:05Z</time>
      </trkpt>
      <trkpt lat="42.83634880" lon="12.76067570">
        <ele>231.73500</ele>
        <time>2010-01-01T03:04:13Z</time>
      </trkpt>
      <trkpt lat="42.83656100" lon="12.76029820">
        <ele>232.51300</ele>
        <time>2010-01-01T03:04:19Z</time>
      </trkpt>
      <trkpt lat="42.83695500" lon="12.75983230">
        <ele>232.81100</ele>
        <time>2010-01-01T03:04:27Z</time>
      </trkpt>
      <trkpt lat="42.83745370" lon="12.75956200">
        <ele>232.96100</ele>
        <time>2010-01-01T03:04:36Z</time>
      </trkpt>
      <trkpt lat="42.83783200" lon="12.75947410">
        <ele>233.24800</ele>
        <time>2010-01-01T03:04:42Z</time>
      </trkpt>
      <trkpt lat="42.83821610" lon="12.75941300">
        <ele>233.68200</ele>
        <time>2010-01-01T03:04:48Z</time>
      </trkpt>
      <trkpt lat="42.83859220" lon="12.75935160">
        <ele>234.14700</ele>
        <time>2010-01-01T03:04:54Z</time>
      </trkpt>
      <trkpt lat="42.83896980" lon="12.75928540">
        <ele>234.48600</ele>
        <time>2010-01-01T03:05:00Z</time>
      </trkpt>
      <trkpt lat="42.83934800" lon="12.75922210">
        <ele>234.70200</ele>
        <time>2010-01-01T03:05:06Z</time>
      </trkpt>
      <trkpt lat="42.83973460" lon="12.75914160">
        <ele>234.86100</ele>
        <time>2010-01-01T03:05:13Z</time>
      </trkpt>
      <trkpt lat="42.84011180" lon="12.75898990">
        <ele>234.86300</ele>
        <time>2010-01-01T03:05:19Z</time>
      </trkpt>
      <trkpt lat="42.84065010" lon="12.75867920">
        <ele>234.72600</ele>
        <time>2010-01-01T03:05:28Z</time>
      </trkpt>
      <trkpt lat="42.84101980" lon="12.75841670">
        <ele>234.55100</ele>
        <time>2010-01-01T03:05:35Z</time>
      </trkpt>
      <trkpt lat="42.84154720" lon="12.75799640">
        <ele>234.35800</ele>
        <time>2010-01-01T03:05:45Z</time>
      </trkpt>
      <trkpt lat="42.84189730" lon="12.75770510">
        <ele>233.81800</ele>
        <time>2010-01-01T03:05:51Z</time>
      </trkpt>
      <trkpt lat="42.84240860" lon="12.75726330">
        <ele>232.58600</ele>
        <time>2010-01-01T03:06:01Z</time>
      </trkpt>
      <trkpt lat="42.84274770" lon="12.75697300">
        <ele>230.93900</ele>
        <time>2010-01-01T03:06:07Z</time>
      </trkpt>
      <trkpt lat="42.84307620" lon="12.75669220">
        <ele>229.48600</ele>
        <time>2010-01-01T03:06:14Z</time>
      </trkpt>
      <trkpt lat="42.84357350" lon="12.75624770">
        <ele>228.58500</ele>
        <time>2010-01-01T03:06:23Z</time>
      </trkpt>
      <trkpt lat="42.84407000" lon="12.75581260">
        <ele>228.28400</ele>
        <time>2010-01-01T03:06:33Z</time>
      </trkpt>
      <trkpt lat="42.84440220" lon="12.75555590">
        <ele>228.35200</ele>
        <time>2010-01-01T03:06:39Z</time>
      </trkpt>
      <trkpt lat="42.84492390" lon="12.75522120">
        <ele>228.60300</ele>
        <time>2010-01-01T03:06:48Z</time>
      </trkpt>
      <trkpt lat="42.84528960" lon="12.75504250">
        <ele>228.94500</ele>
        <time>2010-01-01T03:06:54Z</time>
      </trkpt>
      <trkpt lat="42.84587270" lon="12.75480970">
        <ele>229.27300</ele>
        <time>2010-01-01T03:07:04Z</time>
      </trkpt>
      <trkpt lat="42.84625360" lon="12.75466710">
        <ele>229.47400</ele>
        <time>2010-01-01T03:07:10Z</time>
      </trkpt>
      <trkpt lat="42.84681210" lon="12.75445540">
        <ele>229.47900</ele>
        <time>2010-01-01T03:07:19Z</time>
      </trkpt>
      <trkpt lat="42.84735770" lon="12.75414940">
        <ele>229.15900</ele>
        <time>2010-01-01T03:07:29Z</time>
      </trkpt>
      <trkpt lat="42.84781970" lon="12.75374910">
        <ele>228.35200</ele>
        <time>2010-01-01T03:07:38Z</time>
      </trkpt>
      <trkpt lat="42.84809020" lon="12.75341150">
        <ele>227.14600</ele>
        <time>2010-01-01T03:07:44Z</time>
      </trkpt>
      <trkpt lat="42.84833610" lon="12.75304260">
        <ele>225.98300</ele>
        <time>2010-01-01T03:07:49Z</time>
      </trkpt>
      <trkpt lat="42.84872520" lon="12.75243010">
        <ele>225.28400</ele>
        <time>2010-01-01T03:07:59Z</time>
      </trkpt>
      <trkpt lat="42.84909690" lon="12.75183250">
        <ele>224.74700</ele>
        <time>2010-01-01T03:08:08Z</time>
      </trkpt>
      <trkpt lat="42.84933760" lon="12.75147130">
        <ele>223.92600</ele>
        <time>2010-01-01T03:08:14Z</time>
      </trkpt>
      <trkpt lat="42.84972800" lon="12.75098320">
        <ele>223.12000</ele>
        <time>2010-01-01T03:08:22Z</time>
      </trkpt>
      <trkpt lat="42.85013500" lon="12.75058840">
        <ele>222.71000</ele>
        <time>2010-01-01T03:08:30Z</time>
      </trkpt>
      <trkpt lat="42.85049450" lon="12.75030720">
        <ele>222.60900</ele>
        <time>2010-01-01T03:08:37Z</time>
      </trkpt>
      <trkpt lat="42.85085120" lon="12.75004030">
        <ele>222.67300</ele>
        <time>2010-01-01T03:08:43Z</time>
      </trkpt>
      <trkpt lat="42.85111870" lon="12.74984030">
        <ele>222.77500</ele>
        <time>2010-01-01T03:08:48Z</time>
      </trkpt>
      <trkpt lat="42.85155110" lon="12.74952400">
        <ele>222.83400</ele>
        <time>2010-01-01T03:08:56Z</time>
      </trkpt>
      <trkpt lat="42.85185650" lon="12.74929160">
        <ele>223.00800</ele>
        <time>2010-01-01T03:09:02Z</time>
      </trkpt>
      <trkpt lat="42.85236080" lon="12.74891150">
        <ele>223.41400</ele>
        <time>2010-01-01T03:09:11Z</time>
      </trkpt>
      <trkpt lat="42.85284800" lon="12.74854270">
        <ele>223.82900</ele>
        <time>2010-01-01T03:09:20Z</time>
      </trkpt>
      <trkpt lat="42.85318610" lon="12.74826100">
        <ele>223.82800</ele>
        <time>2010-01-01T03:09:26Z</time>
      </trkpt>
      <trkpt lat="42.85354330" lon="12.74794650">
        <ele>223.11700</ele>
        <time>2010-01-01T03:09:33Z</time>
      </trkpt>
      <trkpt lat="42.85409950" lon="12.74746400">
        <ele>221.96700</ele>
        <time>2010-01-01T03:09:44Z</time>
      </trkpt>
      <trkpt lat="42.85462150" lon="12.74700120">
        <ele>221.07800</ele>
        <time>2010-01-01T03:09:54Z</time>
      </trkpt>
      <trkpt lat="42.85497500" lon="12.74669920">
        <ele>220.73800</ele>
        <time>2010-01-01T03:10:00Z</time>
      </trkpt>
      <trkpt lat="42.85546960" lon="12.74628090">
        <ele>220.93800</ele>
        <time>2010-01-01T03:10:10Z</time>
      </trkpt>
      <trkpt lat="42.85579610" lon="12.74600270">
        <ele>221.80800</ele>
        <time>2010-01-01T03:10:16Z</time>
      </trkpt>
      <trkpt lat="42.85628360" lon="12.74558020">
        <ele>223.22100</ele>
        <time>2010-01-01T03:10:25Z</time>
      </trkpt>
      <trkpt lat="42.85676040" lon="12.74513120">
        <ele>224.74200</ele>
        <time>2010-01-01T03:10:34Z</time>
      </trkpt>
      <trkpt lat="42.85722030" lon="12.74463100">
        <ele>226.00200</ele>
        <time>2010-01-01T03:10:44Z</time>
      </trkpt>
      <trkpt lat="42.85767310" lon="12.74414930">
        <ele>226.79200</ele>
        <time>2010-01-01T03:10:53Z</time>
      </trkpt>
      <trkpt lat="42.85811760" lon="12.74365590">
        <ele>227.10700</ele>
        <time>2010-01-01T03:11:02Z</time>
      </trkpt>
      <trkpt lat="42.85855920" lon="12.74313710">
        <ele>227.23300</ele>
        <time>2010-01-01T03:11:11Z</time>
      </trkpt>
      <trkpt lat="42.85900030" lon="12.74261210">
        <ele>227.42400</ele>
        <time>2010-01-01T03:11:21Z</time>
      </trkpt>
      <trkpt lat="42.85929720" lon="12.74226190">
        <ele>227.63300</ele>
        <time>2010-01-01T03:11:27Z</time>
      </trkpt>
      <trkpt lat="42.85960800" lon="12.74190150">
        <ele>227.63400</ele>
        <time>2010-01-01T03:11:34Z</time>
      </trkpt>
      <trkpt lat="42.86006010" lon="12.74137500">
        <ele>227.38900</ele>
        <time>2010-01-01T03:11:43Z</time>
      </trkpt>
      <trkpt lat="42.86051350" lon="12.74086470">
        <ele>226.90800</ele>
        <time>2010-01-01T03:11:53Z</time>
      </trkpt>
      <trkpt lat="42.86096420" lon="12.74037390">
        <ele>226.17900</ele>
        <time>2010-01-01T03:12:02Z</time>
      </trkpt>
      <trkpt lat="42.86127050" lon="12.74006140">
        <ele>225.43700</ele>
        <time>2010-01-01T03:12:08Z</time>
      </trkpt>
      <trkpt lat="42.86175070" lon="12.73966460">
        <ele>224.88500</ele>
        <time>2010-01-01T03:12:17Z</time>
      </trkpt>
      <trkpt lat="42.86206220" lon="12.73948030">
        <ele>224.44500</ele>
        <time>2010-01-01T03:12:22Z</time>
      </trkpt>
      <trkpt lat="42.86247020" lon="12.73931190">
        <ele>224.27200</ele>
        <time>2010-01-01T03:12:29Z</time>
      </trkpt>
      <trkpt lat="42.86293250" lon="12.73925160">
        <ele>224.49600</ele>
        <time>2010-01-01T03:12:37Z</time>
      </trkpt>
      <trkpt lat="42.86345190" lon="12.73923170">
        <ele>224.97500</ele>
        <time>2010-01-01T03:12:45Z</time>
      </trkpt>
      <trkpt lat="42.86382590" lon="12.73922200">
        <ele>225.63100</ele>
        <time>2010-01-01T03:12:51Z</time>
      </trkpt>
      <trkpt lat="42.86420600" lon="12.73920530">
        <ele>226.32400</ele>
        <time>2010-01-01T03:12:57Z</time>
      </trkpt>
      <trkpt lat="42.86477930" lon="12.73918030">
        <ele>226.76800</ele>
        <time>2010-01-01T03:13:06Z</time>
      </trkpt>
      <trkpt lat="42.86537330" lon="12.73915880">
        <ele>226.79500</ele>
        <time>2010-01-01T03:13:16Z</time>
      </trkpt>
      <trkpt lat="42.86596360" lon="12.73914200">
        <ele>226.30900</ele>
        <time>2010-01-01T03:13:25Z</time>
      </trkpt>
      <trkpt lat="42.86654730" lon="12.73912710">
        <ele>225.48600</ele>
        <time>2010-01-01T03:13:34Z</time>
      </trkpt>
      <trkpt lat="42.86692350" lon="12.73911650">
        <ele>224.78300</ele>
        <time>2010-01-01T03:13:40Z</time>
      </trkpt>
      <trkpt lat="42.86746230" lon="12.73909230">
        <ele>224.35700</ele>
        <time>2010-01-01T03:13:49Z</time>
      </trkpt>
      <trkpt lat="42.86778130" lon="12.73905640">
        <ele>223.88200</ele>
        <time>2010-01-01T03:13:54Z</time>
      </trkpt>
      <trkpt lat="42.86821740" lon="12.73902290">
        <ele>223.14200</ele>
        <time>2010-01-01T03:14:01Z</time>
      </trkpt>
      <trkpt lat="42.86852200" lon="12.73905080">
        <ele>222.33900</ele>
        <time>2010-01-01T03:14:06Z</time>
      </trkpt>
      <trkpt lat="42.86883360" lon="12.73910580">
        <ele>221.51900</ele>
        <time>2010-01-01T03:14:11Z</time>
      </trkpt>
      <trkpt lat="42.86932550" lon="12.73923100">
        <ele>220.60300</ele>
        <time>2010-01-01T03:14:19Z</time>
      </trkpt>
      <trkpt lat="42.86966480" lon="12.73933440">
        <ele>219.88900</ele>
        <time>2010-01-01T03:14:25Z</time>
      </trkpt>
      <trkpt lat="42.87011460" lon="12.73931970">
        <ele>219.52400</ele>
        <time>2010-01-01T03:14:32Z</time>
      </trkpt>
      <trkpt lat="42.87047220" lon="12.73923040">
        <ele>219.29700</ele>
        <time>2010-01-01T03:14:38Z</time>
      </trkpt>
      <trkpt lat="42.87067880" lon="12.73930170">
        <ele>219.14600</ele>
        <time>2010-01-01T03:14:41Z</time>
      </trkpt>
      <trkpt lat="42.87087640" lon="12.73933450">
        <ele>219.09700</ele>
        <time>2010-01-01T03:14:44Z</time>
      </trkpt>
      <trkpt lat="42.87106240" lon="12.73924350">
        <ele>219.11700</ele>
        <time>2010-01-01T03:14:48Z</time>
      </trkpt>
      <trkpt lat="42.87139360" lon="12.73921270">
        <ele>219.27800</ele>
        <time>2010-01-01T03:14:53Z</time>
      </trkpt>
      <trkpt lat="42.87164390" lon="12.73926370">
        <ele>219.64000</ele>
        <time>2010-01-01T03:14:57Z</time>
      </trkpt>
      <trkpt lat="42.87207150" lon="12.73918580">
        <ele>220.14400</ele>
        <time>2010-01-01T03:15:04Z</time>
      </trkpt>
      <trkpt lat="42.87252970" lon="12.73903230">
        <ele>220.77900</ele>
        <time>2010-01-01T03:15:11Z</time>
      </trkpt>
      <trkpt lat="42.87298400" lon="12.73888610">
        <ele>221.56600</ele>
        <time>2010-01-01T03:15:19Z</time>
      </trkpt>
      <trkpt lat="42.87345190" lon="12.73876530">
        <ele>223.01500</ele>
        <time>2010-01-01T03:15:26Z</time>
      </trkpt>
      <trkpt lat="42.87373910" lon="12.73870360">
        <ele>225.36500</ele>
        <time>2010-01-01T03:15:31Z</time>
      </trkpt>
      <trkpt lat="42.87400190" lon="12.73866260">
        <ele>228.03200</ele>
        <time>2010-01-01T03:15:35Z</time>
      </trkpt>
      <trkpt lat="42.87443740" lon="12.73862160">
        <ele>230.33600</ele>
        <time>2010-01-01T03:15:42Z</time>
      </trkpt>
      <trkpt lat="42.87490240" lon="12.73860050">
        <ele>231.79200</ele>
        <time>2010-01-01T03:15:50Z</time>
      </trkpt>
      <trkpt lat="42.87523780" lon="12.73859290">
        <ele>232.07100</ele>
        <time>2010-01-01T03:15:55Z</time>
      </trkpt>
      <trkpt lat="42.87575120" lon="12.73857390">
        <ele>231.56900</ele>
        <time>2010-01-01T03:16:03Z</time>
      </trkpt>
      <trkpt lat="42.87610100" lon="12.73855760">
        <ele>230.59900</ele>
        <time>2010-01-01T03:16:09Z</time>
      </trkpt>
      <trkpt lat="42.87662630" lon="12.73852590">
        <ele>229.20700</ele>
        <time>2010-01-01T03:16:17Z</time>
      </trkpt>
      <trkpt lat="42.87698930" lon="12.73850120">
        <ele>227.71600</ele>
        <time>2010-01-01T03:16:23Z</time>
      </trkpt>
      <trkpt lat="42.87756070" lon="12.73849020">
        <ele>226.68100</ele>
        <time>2010-01-01T03:16:32Z</time>
      </trkpt>
      <trkpt lat="42.87815430" lon="12.73849270">
        <ele>226.24000</ele>
        <time>2010-01-01T03:16:42Z</time>
      </trkpt>
      <trkpt lat="42.87873020" lon="12.73846040">
        <ele>226.20400</ele>
        <time>2010-01-01T03:16:51Z</time>
      </trkpt>
      <trkpt lat="42.87911100" lon="12.73843530">
        <ele>226.23000</ele>
        <time>2010-01-01T03:16:57Z</time>
      </trkpt>
      <trkpt lat="42.87967930" lon="12.73833880">
        <ele>225.66800</ele>
        <time>2010-01-01T03:17:06Z</time>
      </trkpt>
      <trkpt lat="42.88021290" lon="12.73817040">
        <ele>224.31600</ele>
        <time>2010-01-01T03:17:15Z</time>
      </trkpt>
      <trkpt lat="42.88049230" lon="12.73806820">
        <ele>222.90100</ele>
        <time>2010-01-01T03:17:20Z</time>
      </trkpt>
      <trkpt lat="42.88085270" lon="12.73796480">
        <ele>221.86000</ele>
        <time>2010-01-01T03:17:26Z</time>
      </trkpt>
      <trkpt lat="42.88111770" lon="12.73796450">
        <ele>221.00800</ele>
        <time>2010-01-01T03:17:30Z</time>
      </trkpt>
      <trkpt lat="42.88120290" lon="12.73777570">
        <ele>220.45100</ele>
        <time>2010-01-01T03:17:33Z</time>
      </trkpt>
      <trkpt lat="42.88141390" lon="12.73740800">
        <ele>220.30800</ele>
        <time>2010-01-01T03:17:38Z</time>
      </trkpt>
      <trkpt lat="42.88171150" lon="12.73707120">
        <ele>220.39900</ele>
        <time>2010-01-01T03:17:44Z</time>
      </trkpt>
      <trkpt lat="42.88195640" lon="12.73683130">
        <ele>220.35800</ele>
        <time>2010-01-01T03:17:49Z</time>
      </trkpt>
      <trkpt lat="42.88223230" lon="12.73658390">
        <ele>220.02300</ele>
        <time>2010-01-01T03:17:54Z</time>
      </trkpt>
      <trkpt lat="42.88267990" lon="12.73618780">
        <ele>219.58300</ele>
        <time>2010-01-01T03:18:03Z</time>
      </trkpt>
      <trkpt lat="42.88299440" lon="12.73591010">
        <ele>219.25100</ele>
        <time>2010-01-01T03:18:09Z</time>
      </trkpt>
      <trkpt lat="42.88350300" lon="12.73548910">
        <ele>219.05000</ele>
        <time>2010-01-01T03:18:18Z</time>
      </trkpt>
      <trkpt lat="42.88402140" lon="12.73505860">
        <ele>218.97100</ele>
        <time>2010-01-01T03:18:28Z</time>
      </trkpt>
      <trkpt lat="42.88436400" lon="12.73476880">
        <ele>219.02600</ele>
        <time>2010-01-01T03:18:35Z</time>
      </trkpt>
      <trkpt lat="42.88487020" lon="12.73435560">
        <ele>219.17900</ele>
        <time>2010-01-01T03:18:44Z</time>
      </trkpt>
      <trkpt lat="42.88538130" lon="12.73395870">
        <ele>219.31400</ele>
        <time>2010-01-01T03:18:53Z</time>
      </trkpt>
      <trkpt lat="42.88571380" lon="12.73367650">
        <ele>219.38200</ele>
        <time>2010-01-01T03:19:00Z</time>
      </trkpt>
      <trkpt lat="42.88606020" lon="12.73342590">
        <ele>219.48700</ele>
        <time>2010-01-01T03:19:06Z</time>
      </trkpt>
      <trkpt lat="42.88658380" lon="12.73306010">
        <ele>219.83900</ele>
        <time>2010-01-01T03:19:15Z</time>
      </trkpt>
      <trkpt lat="42.88692510" lon="12.73281640">
        <ele>220.76300</ele>
        <time>2010-01-01T03:19:22Z</time>
      </trkpt>
      <trkpt lat="42.88744390" lon="12.73243620">
        <ele>222.24200</ele>
        <time>2010-01-01T03:19:31Z</time>
      </trkpt>
      <trkpt lat="42.88798320" lon="12.73209750">
        <ele>223.77200</ele>
        <time>2010-01-01T03:19:40Z</time>
      </trkpt>
      <trkpt lat="42.88854880" lon="12.73184840">
        <ele>224.93000</ele>
        <time>2010-01-01T03:19:50Z</time>
      </trkpt>
      <trkpt lat="42.88910260" lon="12.73168410">
        <ele>225.92300</ele>
        <time>2010-01-01T03:19:59Z</time>
      </trkpt>
      <trkpt lat="42.88941980" lon="12.73159860">
        <ele>227.04500</ele>
        <time>2010-01-01T03:20:04Z</time>
      </trkpt>
      <trkpt lat="42.88971100" lon="12.73151260">
        <ele>228.31800</ele>
        <time>2010-01-01T03:20:09Z</time>
      </trkpt>
      <trkpt lat="42.88991270" lon="12.73145480">
        <ele>229.68900</ele>
        <time>2010-01-01T03:20:12Z</time>
      </trkpt>
      <trkpt lat="42.89024920" lon="12.73137030">
        <ele>231.14500</ele>
        <time>2010-01-01T03:20:18Z</time>
      </trkpt>
      <trkpt lat="42.89060400" lon="12.73127680">
        <ele>232.64500</ele>
        <time>2010-01-01T03:20:24Z</time>
      </trkpt>
      <trkpt lat="42.89085370" lon="12.73120710">
        <ele>234.22800</ele>
        <time>2010-01-01T03:20:28Z</time>
      </trkpt>
      <trkpt lat="42.89111380" lon="12.73113050">
        <ele>235.70100</ele>
        <time>2010-01-01T03:20:32Z</time>
      </trkpt>
      <trkpt lat="42.89138380" lon="12.73106410">
        <ele>236.74600</ele>
        <time>2010-01-01T03:20:36Z</time>
      </trkpt>
      <trkpt lat="42.89183810" lon="12.73092420">
        <ele>237.47400</ele>
        <time>2010-01-01T03:20:44Z</time>
      </trkpt>
      <trkpt lat="42.89214270" lon="12.73084430">
        <ele>238.15900</ele>
        <time>2010-01-01T03:20:49Z</time>
      </trkpt>
      <trkpt lat="42.89262570" lon="12.73072200">
        <ele>238.67400</ele>
        <time>2010-01-01T03:20:57Z</time>
      </trkpt>
      <trkpt lat="42.89311240" lon="12.73060410">
        <ele>238.92200</ele>
        <time>2010-01-01T03:21:05Z</time>
      </trkpt>
      <trkpt lat="42.89342950" lon="12.73052750">
        <ele>239.10800</ele>
        <time>2010-01-01T03:21:10Z</time>
      </trkpt>
      <trkpt lat="42.89391370" lon="12.73039790">
        <ele>239.43500</ele>
        <time>2010-01-01T03:21:18Z</time>
      </trkpt>
      <trkpt lat="42.89423130" lon="12.73031830">
        <ele>239.90100</ele>
        <time>2010-01-01T03:21:23Z</time>
      </trkpt>
      <trkpt lat="42.89469180" lon="12.73019330">
        <ele>240.60900</ele>
        <time>2010-01-01T03:21:30Z</time>
      </trkpt>
      <trkpt lat="42.89500060" lon="12.73010550">
        <ele>241.65500</ele>
        <time>2010-01-01T03:21:35Z</time>
      </trkpt>
      <trkpt lat="42.89544760" lon="12.72998310">
        <ele>242.73500</ele>
        <time>2010-01-01T03:21:43Z</time>
      </trkpt>
      <trkpt lat="42.89574900" lon="12.72990970">
        <ele>243.77400</ele>
        <time>2010-01-01T03:21:48Z</time>
      </trkpt>
      <trkpt lat="42.89620230" lon="12.72979440">
        <ele>244.95000</ele>
        <time>2010-01-01T03:21:55Z</time>
      </trkpt>
      <trkpt lat="42.89669490" lon="12.72967330">
        <ele>245.90900</ele>
        <time>2010-01-01T03:22:03Z</time>
      </trkpt>
      <trkpt lat="42.89720790" lon="12.72957860">
        <ele>246.32700</ele>
        <time>2010-01-01T03:22:11Z</time>
      </trkpt>
      <trkpt lat="42.89750270" lon="12.72952190">
        <ele>246.36800</ele>
        <time>2010-01-01T03:22:16Z</time>
      </trkpt>
      <trkpt lat="42.89775760" lon="12.72945460">
        <ele>246.08400</ele>
        <time>2010-01-01T03:22:20Z</time>
      </trkpt>
      <trkpt lat="42.89784400" lon="12.72942970">
        <ele>245.40900</ele>
        <time>2010-01-01T03:22:22Z</time>
      </trkpt>
      <trkpt lat="42.89791460" lon="12.72941320">
        <ele>244.60400</ele>
        <time>2010-01-01T03:22:23Z</time>
      </trkpt>
      <trkpt lat="42.89798350" lon="12.72932380">
        <ele>243.54500</ele>
        <time>2010-01-01T03:22:24Z</time>
      </trkpt>
      <trkpt lat="42.89803030" lon="12.72917840">
        <ele>241.94800</ele>
        <time>2010-01-01T03:22:26Z</time>
      </trkpt>
      <trkpt lat="42.89807970" lon="12.72893940">
        <ele>240.39300</ele>
        <time>2010-01-01T03:22:29Z</time>
      </trkpt>
      <trkpt lat="42.89815530" lon="12.72857750">
        <ele>239.43600</ele>
        <time>2010-01-01T03:22:33Z</time>
      </trkpt>
      <trkpt lat="42.89823200" lon="12.72817430">
        <ele>238.57200</ele>
        <time>2010-01-01T03:22:38Z</time>
      </trkpt>
      <trkpt lat="42.89828500" lon="12.72770100">
        <ele>237.06900</ele>
        <time>2010-01-01T03:22:44Z</time>
      </trkpt>
      <trkpt lat="42.89831550" lon="12.72740270">
        <ele>234.80200</ele>
        <time>2010-01-01T03:22:47Z</time>
      </trkpt>
      <trkpt lat="42.89834200" lon="12.72714710">
        <ele>232.27200</ele>
        <time>2010-01-01T03:22:50Z</time>
      </trkpt>
      <trkpt lat="42.89839540" lon="12.72684510">
        <ele>229.58900</ele>
        <time>2010-01-01T03:22:54Z</time>
      </trkpt>
      <trkpt lat="42.89852090" lon="12.72636940">
        <ele>226.46600</ele>
        <time>2010-01-01T03:23:00Z</time>
      </trkpt>
      <trkpt lat="42.89861460" lon="12.72616260">
        <ele>223.44700</ele>
        <time>2010-01-01T03:23:03Z</time>
      </trkpt>
      <trkpt lat="42.89873630" lon="12.72580260">
        <ele>221.50100</ele>
        <time>2010-01-01T03:23:08Z</time>
      </trkpt>
      <trkpt lat="42.89881560" lon="12.72551600">
        <ele>220.68700</ele>
        <time>2010-01-01T03:23:11Z</time>
      </trkpt>
      <trkpt lat="42.89894090" lon="12.72499960">
        <ele>220.38700</ele>
        <time>2010-01-01T03:23:18Z</time>
      </trkpt>
      <trkpt lat="42.89905840" lon="12.72448600">
        <ele>220.12000</ele>
        <time>2010-01-01T03:23:24Z</time>
      </trkpt>
      <trkpt lat="42.89908000" lon="12.72419920">
        <ele>219.51400</ele>
        <time>2010-01-01T03:23:27Z</time>
      </trkpt>
      <trkpt lat="42.89905480" lon="12.72382560">
        <ele>218.12900</ele>
        <time>2010-01-01T03:23:32Z</time>
      </trkpt>
      <trkpt lat="42.89909220" lon="12.72344490">
        <ele>216.14000</ele>
        <time>2010-01-01T03:23:36Z</time>
      </trkpt>
      <trkpt lat="42.89915390" lon="12.72318830">
        <ele>214.18500</ele>
        <time>2010-01-01T03:23:39Z</time>
      </trkpt>
      <trkpt lat="42.89932280" lon="12.72273370">
        <ele>212.62200</ele>
        <time>2010-01-01T03:23:45Z</time>
      </trkpt>
      <trkpt lat="42.89949490" lon="12.72243060">
        <ele>211.69000</ele>
        <time>2010-01-01T03:23:50Z</time>
      </trkpt>
      <trkpt lat="42.89969740" lon="12.72215520">
        <ele>211.43400</ele>
        <time>2010-01-01T03:23:54Z</time>
      </trkpt>
      <trkpt lat="42.89999890" lon="12.72168840">
        <ele>211.74800</ele>
        <time>2010-01-01T03:24:02Z</time>
      </trkpt>
      <trkpt lat="42.90009940" lon="12.72130840">
        <ele>212.67700</ele>
        <time>2010-01-01T03:24:06Z</time>
      </trkpt>
      <trkpt lat="42.90014690" lon="12.72074070">
        <ele>213.85900</ele>
        <time>2010-01-01T03:24:13Z</time>
      </trkpt>
      <trkpt lat="42.90014600" lon="12.72037970">
        <ele>215.04000</ele>
        <time>2010-01-01T03:24:17Z</time>
      </trkpt>
      <trkpt lat="42.90009330" lon="12.71982580">
        <ele>216.34000</ele>
        <time>2010-01-01T03:24:24Z</time>
      </trkpt>
      <trkpt lat="42.89994820" lon="12.71923660">
        <ele>217.46500</ele>
        <time>2010-01-01T03:24:31Z</time>
      </trkpt>
      <trkpt lat="42.89988930" lon="12.71882690">
        <ele>218.00500</ele>
        <time>2010-01-01T03:24:36Z</time>
      </trkpt>
      <trkpt lat="42.89989360" lon="12.71820590">
        <ele>218.02600</ele>
        <time>2010-01-01T03:24:43Z</time>
      </trkpt>
      <trkpt lat="42.89997970" lon="12.71761140">
        <ele>217.31200</ele>
        <time>2010-01-01T03:24:50Z</time>
      </trkpt>
      <trkpt lat="42.90008230" lon="12.71707990">
        <ele>215.81900</ele>
        <time>2010-01-01T03:24:57Z</time>
      </trkpt>
      <trkpt lat="42.90016190" lon="12.71669740">
        <ele>214.14200</ele>
        <time>2010-01-01T03:25:02Z</time>
      </trkpt>
      <trkpt lat="42.90023620" lon="12.71632200">
        <ele>212.76400</ele>
        <time>2010-01-01T03:25:06Z</time>
      </trkpt>
      <trkpt lat="42.90030290" lon="12.71594710">
        <ele>211.79600</ele>
        <time>2010-01-01T03:25:11Z</time>
      </trkpt>
      <trkpt lat="42.90037240" lon="12.71557050">
        <ele>210.62500</ele>
        <time>2010-01-01T03:25:15Z</time>
      </trkpt>
      <trkpt lat="42.90047950" lon="12.71499110">
        <ele>208.46400</ele>
        <time>2010-01-01T03:25:22Z</time>
      </trkpt>
      <trkpt lat="42.90054460" lon="12.71459710">
        <ele>206.00200</ele>
        <time>2010-01-01T03:25:27Z</time>
      </trkpt>
      <trkpt lat="42.90060630" lon="12.71420000">
        <ele>204.44600</ele>
        <time>2010-01-01T03:25:32Z</time>
      </trkpt>
      <trkpt lat="42.90066880" lon="12.71380230">
        <ele>203.88300</ele>
        <time>2010-01-01T03:25:36Z</time>
      </trkpt>
      <trkpt lat="42.90076470" lon="12.71318890">
        <ele>203.83900</ele>
        <time>2010-01-01T03:25:44Z</time>
      </trkpt>
      <trkpt lat="42.90082930" lon="12.71280290">
        <ele>203.94100</ele>
        <time>2010-01-01T03:25:48Z</time>
      </trkpt>
      <trkpt lat="42.90092150" lon="12.71223010">
        <ele>204.03000</ele>
        <time>2010-01-01T03:25:55Z</time>
      </trkpt>
      <trkpt lat="42.90100850" lon="12.71164130">
        <ele>204.17900</ele>
        <time>2010-01-01T03:26:02Z</time>
      </trkpt>
      <trkpt lat="42.90106380" lon="12.71126460">
        <ele>204.61400</ele>
        <time>2010-01-01T03:26:07Z</time>
      </trkpt>
      <trkpt lat="42.90116230" lon="12.71069460">
        <ele>205.28500</ele>
        <time>2010-01-01T03:26:14Z</time>
      </trkpt>
      <trkpt lat="42.90122840" lon="12.71031630">
        <ele>205.96600</ele>
        <time>2010-01-01T03:26:18Z</time>
      </trkpt>
      <trkpt lat="42.90129180" lon="12.70995990">
        <ele>206.59000</ele>
        <time>2010-01-01T03:26:23Z</time>
      </trkpt>
      <trkpt lat="42.90133640" lon="12.70963220">
        <ele>207.11400</ele>
        <time>2010-01-01T03:26:27Z</time>
      </trkpt>
      <trkpt lat="42.90123600" lon="12.70914200">
        <ele>207.45000</ele>
        <time>2010-01-01T03:26:33Z</time>
      </trkpt>
      <trkpt lat="42.90106620" lon="12.70870210">
        <ele>207.55300</ele>
        <time>2010-01-01T03:26:38Z</time>
      </trkpt>
      <trkpt lat="42.90097690" lon="12.70846170">
        <ele>207.44800</ele>
        <time>2010-01-01T03:26:42Z</time>
      </trkpt>
      <trkpt lat="42.90104090" lon="12.70817490">
        <ele>207.29200</ele>
        <time>2010-01-01T03:26:45Z</time>
      </trkpt>
      <trkpt lat="42.90117320" lon="12.70801260">
        <ele>207.13300</ele>
        <time>2010-01-01T03:26:48Z</time>
      </trkpt>
      <trkpt lat="42.90142960" lon="12.70774810">
        <ele>206.92600</ele>
        <time>2010-01-01T03:26:53Z</time>
      </trkpt>
      <trkpt lat="42.90161700" lon="12.70756960">
        <ele>206.74300</ele>
        <time>2010-01-01T03:26:57Z</time>
      </trkpt>
      <trkpt lat="42.90181250" lon="12.70738330">
        <ele>206.66500</ele>
        <time>2010-01-01T03:27:01Z</time>
      </trkpt>
      <trkpt lat="42.90212280" lon="12.70709260">
        <ele>206.99500</ele>
        <time>2010-01-01T03:27:07Z</time>
      </trkpt>
      <trkpt lat="42.90231790" lon="12.70691390">
        <ele>207.97400</ele>
        <time>2010-01-01T03:27:10Z</time>
      </trkpt>
      <trkpt lat="42.90258260" lon="12.70665700">
        <ele>209.11100</ele>
        <time>2010-01-01T03:27:15Z</time>
      </trkpt>
      <trkpt lat="42.90274660" lon="12.70649270">
        <ele>209.78400</ele>
        <time>2010-01-01T03:27:19Z</time>
      </trkpt>
      <trkpt lat="42.90299700" lon="12.70626140">
        <ele>209.98900</ele>
        <time>2010-01-01T03:27:24Z</time>
      </trkpt>
      <trkpt lat="42.90312870" lon="12.70614040">
        <ele>210.01500</ele>
        <time>2010-01-01T03:27:26Z</time>
      </trkpt>
      <trkpt lat="42.90327740" lon="12.70600020">
        <ele>210.06900</ele>
        <time>2010-01-01T03:27:29Z</time>
      </trkpt>
      <trkpt lat="42.90351850" lon="12.70576810">
        <ele>209.94900</ele>
        <time>2010-01-01T03:27:34Z</time>
      </trkpt>
      <trkpt lat="42.90363140" lon="12.70566250">
        <ele>209.43700</ele>
        <time>2010-01-01T03:27:36Z</time>
      </trkpt>
      <trkpt lat="42.90369130" lon="12.70561810">
        <ele>208.65200</ele>
        <time>2010-01-01T03:27:37Z</time>
      </trkpt>
      <trkpt lat="42.90376590" lon="12.70556390">
        <ele>207.75600</ele>
        <time>2010-01-01T03:27:38Z</time>
      </trkpt>
      <trkpt lat="42.90372770" lon="12.70549330">
        <ele>206.95300</ele>
        <time>2010-01-01T03:27:39Z</time>
      </trkpt>
      <trkpt lat="42.90356250" lon="12.70536900">
        <ele>206.51200</ele>
        <time>2010-01-01T03:27:42Z</time>
      </trkpt>
      <trkpt lat="42.90339410" lon="12.70525400">
        <ele>206.40800</ele>
        <time>2010-01-01T03:27:45Z</time>
      </trkpt>
      <trkpt lat="42.90308380" lon="12.70504960">
        <ele>206.47700</ele>
        <time>2010-01-01T03:27:51Z</time>
      </trkpt>
      <trkpt lat="42.90269400" lon="12.70479830">
        <ele>206.99800</ele>
        <time>2010-01-01T03:27:58Z</time>
      </trkpt>
      <trkpt lat="42.90226940" lon="12.70452880">
        <ele>208.15100</ele>
        <time>2010-01-01T03:28:05Z</time>
      </trkpt>
      <trkpt lat="42.90196110" lon="12.70433880">
        <ele>209.41500</ele>
        <time>2010-01-01T03:28:11Z</time>
      </trkpt>
      <trkpt lat="42.90165290" lon="12.70413880">
        <ele>210.38700</ele>
        <time>2010-01-01T03:28:16Z</time>
      </trkpt>
      <trkpt lat="42.90122220" lon="12.70384760">
        <ele>211.10200</ele>
        <time>2010-01-01T03:28:24Z</time>
      </trkpt>
      <trkpt lat="42.90084630" lon="12.70359460">
        <ele>211.49100</ele>
        <time>2010-01-01T03:28:31Z</time>
      </trkpt>
      <trkpt lat="42.90067360" lon="12.70348280">
        <ele>211.58000</ele>
        <time>2010-01-01T03:28:34Z</time>
      </trkpt>
      <trkpt lat="42.90059850" lon="12.70335520">
        <ele>211.23000</ele>
        <time>2010-01-01T03:28:36Z</time>
      </trkpt>
      <trkpt lat="42.90067090" lon="12.70327690">
        <ele>210.37600</ele>
        <time>2010-01-01T03:28:37Z</time>
      </trkpt>
      <trkpt lat="42.90083760" lon="12.70318920">
        <ele>209.42500</ele>
        <time>2010-01-01T03:28:40Z</time>
      </trkpt>
      <trkpt lat="42.90105080" lon="12.70307990">
        <ele>208.63500</ele>
        <time>2010-01-01T03:28:44Z</time>
      </trkpt>
      <trkpt lat="42.90138080" lon="12.70289330">
        <ele>207.89800</ele>
        <time>2010-01-01T03:28:49Z</time>
      </trkpt>
      <trkpt lat="42.90163560" lon="12.70274850">
        <ele>207.28100</ele>
        <time>2010-01-01T03:28:54Z</time>
      </trkpt>
      <trkpt lat="42.90208200" lon="12.70250070">
        <ele>206.85800</ele>
        <time>2010-01-01T03:29:01Z</time>
      </trkpt>
      <trkpt lat="42.90254120" lon="12.70221520">
        <ele>206.59600</ele>
        <time>2010-01-01T03:29:10Z</time>
      </trkpt>
      <trkpt lat="42.90283400" lon="12.70203820">
        <ele>206.46900</ele>
        <time>2010-01-01T03:29:15Z</time>
      </trkpt>
      <trkpt lat="42.90328300" lon="12.70177040">
        <ele>206.44700</ele>
        <time>2010-01-01T03:29:23Z</time>
      </trkpt>
      <trkpt lat="42.90359370" lon="12.70158400">
        <ele>207.42000</ele>
        <time>2010-01-01T03:29:28Z</time>
      </trkpt>
      <trkpt lat="42.90405540" lon="12.70129510">
        <ele>210.96000</ele>
        <time>2010-01-01T03:29:36Z</time>
      </trkpt>
      <trkpt lat="42.90434730" lon="12.70106380">
        <ele>216.48900</ele>
        <time>2010-01-01T03:29:42Z</time>
      </trkpt>
      <trkpt lat="42.90464380" lon="12.70077340">
        <ele>221.17500</ele>
        <time>2010-01-01T03:29:47Z</time>
      </trkpt>
      <trkpt lat="42.90504730" lon="12.70029690">
        <ele>223.39300</ele>
        <time>2010-01-01T03:29:56Z</time>
      </trkpt>
      <trkpt lat="42.90531500" lon="12.69995110">
        <ele>223.72600</ele>
        <time>2010-01-01T03:30:02Z</time>
      </trkpt>
      <trkpt lat="42.90555820" lon="12.69958660">
        <ele>223.11200</ele>
        <time>2010-01-01T03:30:08Z</time>
      </trkpt>
      <trkpt lat="42.90593710" lon="12.69903280">
        <ele>221.62500</ele>
        <time>2010-01-01T03:30:16Z</time>
      </trkpt>
      <trkpt lat="42.90618960" lon="12.69869040">
        <ele>219.51000</ele>
        <time>2010-01-01T03:30:22Z</time>
      </trkpt>
      <trkpt lat="42.90645350" lon="12.69835390">
        <ele>217.55500</ele>
        <time>2010-01-01T03:30:28Z</time>
      </trkpt>
      <trkpt lat="42.90684010" lon="12.69786670">
        <ele>215.51000</ele>
        <time>2010-01-01T03:30:36Z</time>
      </trkpt>
      <trkpt lat="42.90718810" lon="12.69735180">
        <ele>213.01500</ele>
        <time>2010-01-01T03:30:45Z</time>
      </trkpt>
      <trkpt lat="42.90736790" lon="12.69695860">
        <ele>211.04800</ele>
        <time>2010-01-01T03:30:50Z</time>
      </trkpt>
      <trkpt lat="42.90759970" lon="12.69634780">
        <ele>210.27900</ele>
        <time>2010-01-01T03:30:58Z</time>
      </trkpt>
      <trkpt lat="42.90774730" lon="12.69592800">
        <ele>210.72800</ele>
        <time>2010-01-01T03:31:04Z</time>
      </trkpt>
      <trkpt lat="42.90794090" lon="12.69530780">
        <ele>212.18900</ele>
        <time>2010-01-01T03:31:11Z</time>
      </trkpt>
      <trkpt lat="42.90805920" lon="12.69489450">
        <ele>213.91100</ele>
        <time>2010-01-01T03:31:17Z</time>
      </trkpt>
      <trkpt lat="42.90817460" lon="12.69447100">
        <ele>215.21700</ele>
        <time>2010-01-01T03:31:22Z</time>
      </trkpt>
      <trkpt lat="42.90831870" lon="12.69382690">
        <ele>215.91600</ele>
        <time>2010-01-01T03:31:30Z</time>
      </trkpt>
      <trkpt lat="42.90841780" lon="12.69340290">
        <ele>215.82000</ele>
        <time>2010-01-01T03:31:35Z</time>
      </trkpt>
      <trkpt lat="42.90858370" lon="12.69269940">
        <ele>215.06100</ele>
        <time>2010-01-01T03:31:44Z</time>
      </trkpt>
      <trkpt lat="42.90869480" lon="12.69223830">
        <ele>214.22200</ele>
        <time>2010-01-01T03:31:49Z</time>
      </trkpt>
      <trkpt lat="42.90887820" lon="12.69153890">
        <ele>213.78300</ele>
        <time>2010-01-01T03:31:58Z</time>
      </trkpt>
      <trkpt lat="42.90906910" lon="12.69085160">
        <ele>213.69200</ele>
        <time>2010-01-01T03:32:07Z</time>
      </trkpt>
      <trkpt lat="42.90918970" lon="12.69038770">
        <ele>213.74800</ele>
        <time>2010-01-01T03:32:13Z</time>
      </trkpt>
      <trkpt lat="42.90936960" lon="12.68969830">
        <ele>213.81600</ele>
        <time>2010-01-01T03:32:21Z</time>
      </trkpt>
      <trkpt lat="42.90951110" lon="12.68904000">
        <ele>213.81100</ele>
        <time>2010-01-01T03:32:29Z</time>
      </trkpt>
      <trkpt lat="42.90967130" lon="12.68839110">
        <ele>213.59600</ele>
        <time>2010-01-01T03:32:37Z</time>
      </trkpt>
      <trkpt lat="42.90978630" lon="12.68796590">
        <ele>213.13700</ele>
        <time>2010-01-01T03:32:43Z</time>
      </trkpt>
      <trkpt lat="42.90995410" lon="12.68734520">
        <ele>212.66100</ele>
        <time>2010-01-01T03:32:50Z</time>
      </trkpt>
      <trkpt lat="42.91011390" lon="12.68672650">
        <ele>212.39500</ele>
        <time>2010-01-01T03:32:58Z</time>
      </trkpt>
      <trkpt lat="42.91020490" lon="12.68632120">
        <ele>212.37000</ele>
        <time>2010-01-01T03:33:03Z</time>
      </trkpt>
      <trkpt lat="42.91027820" lon="12.68590670">
        <ele>212.78500</ele>
        <time>2010-01-01T03:33:08Z</time>
      </trkpt>
      <trkpt lat="42.91036950" lon="12.68524320">
        <ele>213.86500</ele>
        <time>2010-01-01T03:33:16Z</time>
      </trkpt>
      <trkpt lat="42.91046250" lon="12.68454210">
        <ele>215.24100</ele>
        <time>2010-01-01T03:33:24Z</time>
      </trkpt>
      <trkpt lat="42.91056740" lon="12.68381310">
        <ele>216.30800</ele>
        <time>2010-01-01T03:33:33Z</time>
      </trkpt>
      <trkpt lat="42.91064370" lon="12.68330620">
        <ele>216.82100</ele>
        <time>2010-01-01T03:33:39Z</time>
      </trkpt>
      <trkpt lat="42.91076810" lon="12.68259340">
        <ele>216.83500</ele>
        <time>2010-01-01T03:33:48Z</time>
      </trkpt>
      <trkpt lat="42.91087690" lon="12.68192060">
        <ele>216.62200</ele>
        <time>2010-01-01T03:33:56Z</time>
      </trkpt>
      <trkpt lat="42.91099080" lon="12.68124620">
        <ele>216.74800</ele>
        <time>2010-01-01T03:34:04Z</time>
      </trkpt>
      <trkpt lat="42.91106630" lon="12.68080540">
        <ele>217.44700</ele>
        <time>2010-01-01T03:34:09Z</time>
      </trkpt>
      <trkpt lat="42.91117540" lon="12.68017380">
        <ele>218.24100</ele>
        <time>2010-01-01T03:34:17Z</time>
      </trkpt>
      <trkpt lat="42.91125530" lon="12.67976490">
        <ele>218.76300</ele>
        <time>2010-01-01T03:34:22Z</time>
      </trkpt>
      <trkpt lat="42.91138350" lon="12.67917370">
        <ele>219.60900</ele>
        <time>2010-01-01T03:34:29Z</time>
      </trkpt>
      <trkpt lat="42.91149450" lon="12.67874170">
        <ele>221.08000</ele>
        <time>2010-01-01T03:34:34Z</time>
      </trkpt>
      <trkpt lat="42.91170050" lon="12.67805760">
        <ele>222.41700</ele>
        <time>2010-01-01T03:34:43Z</time>
      </trkpt>
      <trkpt lat="42.91191280" lon="12.67738550">
        <ele>223.00300</ele>
        <time>2010-01-01T03:34:52Z</time>
      </trkpt>
      <trkpt lat="42.91205040" lon="12.67692380">
        <ele>222.45000</ele>
        <time>2010-01-01T03:34:57Z</time>
      </trkpt>
      <trkpt lat="42.91217950" lon="12.67648090">
        <ele>220.29800</ele>
        <time>2010-01-01T03:35:03Z</time>
      </trkpt>
      <trkpt lat="42.91229840" lon="12.67604620">
        <ele>217.23200</ele>
        <time>2010-01-01T03:35:08Z</time>
      </trkpt>
      <trkpt lat="42.91242250" lon="12.67560420">
        <ele>214.51200</ele>
        <time>2010-01-01T03:35:14Z</time>
      </trkpt>
      <trkpt lat="42.91261630" lon="12.67491900">
        <ele>212.53500</ele>
        <time>2010-01-01T03:35:23Z</time>
      </trkpt>
      <trkpt lat="42.91280180" lon="12.67423140">
        <ele>211.15200</ele>
        <time>2010-01-01T03:35:31Z</time>
      </trkpt>
      <trkpt lat="42.91299710" lon="12.67355510">
        <ele>210.21500</ele>
        <time>2010-01-01T03:35:40Z</time>
      </trkpt>
      <trkpt lat="42.91312510" lon="12.67310140">
        <ele>209.65200</ele>
        <time>2010-01-01T03:35:45Z</time>
      </trkpt>
      <trkpt lat="42.91325000" lon="12.67264790">
        <ele>209.47400</ele>
        <time>2010-01-01T03:35:51Z</time>
      </trkpt>
      <trkpt lat="42.91337240" lon="12.67216920">
        <ele>209.59000</ele>
        <time>2010-01-01T03:35:57Z</time>
      </trkpt>
      <trkpt lat="42.91356830" lon="12.67146920">
        <ele>209.77600</ele>
        <time>2010-01-01T03:36:06Z</time>
      </trkpt>
      <trkpt lat="42.91376490" lon="12.67076350">
        <ele>209.88400</ele>
        <time>2010-01-01T03:36:15Z</time>
      </trkpt>
      <trkpt lat="42.91396030" lon="12.67004750">
        <ele>209.91100</ele>
        <time>2010-01-01T03:36:24Z</time>
      </trkpt>
      <trkpt lat="42.91415300" lon="12.66933310">
        <ele>209.95600</ele>
        <time>2010-01-01T03:36:33Z</time>
      </trkpt>
      <trkpt lat="42.91434920" lon="12.66860980">
        <ele>210.08400</ele>
        <time>2010-01-01T03:36:42Z</time>
      </trkpt>
      <trkpt lat="42.91454740" lon="12.66788920">
        <ele>210.12200</ele>
        <time>2010-01-01T03:36:51Z</time>
      </trkpt>
      <trkpt lat="42.91473970" lon="12.66716190">
        <ele>209.92700</ele>
        <time>2010-01-01T03:37:00Z</time>
      </trkpt>
      <trkpt lat="42.91487290" lon="12.66667180">
        <ele>209.61600</ele>
        <time>2010-01-01T03:37:06Z</time>
      </trkpt>
      <trkpt lat="42.91500750" lon="12.66619810">
        <ele>209.33800</ele>
        <time>2010-01-01T03:37:12Z</time>
      </trkpt>
      <trkpt lat="42.91521500" lon="12.66544250">
        <ele>209.30400</ele>
        <time>2010-01-01T03:37:21Z</time>
      </trkpt>
      <trkpt lat="42.91542540" lon="12.66468040">
        <ele>209.61700</ele>
        <time>2010-01-01T03:37:31Z</time>
      </trkpt>
      <trkpt lat="42.91556200" lon="12.66419610">
        <ele>210.07200</ele>
        <time>2010-01-01T03:37:37Z</time>
      </trkpt>
      <trkpt lat="42.91571950" lon="12.66370300">
        <ele>210.45500</ele>
        <time>2010-01-01T03:37:43Z</time>
      </trkpt>
      <trkpt lat="42.91590760" lon="12.66323130">
        <ele>210.73100</ele>
        <time>2010-01-01T03:37:49Z</time>
      </trkpt>
      <trkpt lat="42.91619290" lon="12.66254750">
        <ele>211.04400</ele>
        <time>2010-01-01T03:37:59Z</time>
      </trkpt>
      <trkpt lat="42.91649840" lon="12.66185760">
        <ele>211.66000</ele>
        <time>2010-01-01T03:38:08Z</time>
      </trkpt>
      <trkpt lat="42.91680830" lon="12.66115990">
        <ele>212.51900</ele>
        <time>2010-01-01T03:38:18Z</time>
      </trkpt>
      <trkpt lat="42.91701940" lon="12.66069310">
        <ele>213.36100</ele>
        <time>2010-01-01T03:38:24Z</time>
      </trkpt>
      <trkpt lat="42.91732130" lon="12.66000560">
        <ele>214.04900</ele>
        <time>2010-01-01T03:38:34Z</time>
      </trkpt>
      <trkpt lat="42.91763420" lon="12.65929970">
        <ele>214.48100</ele>
        <time>2010-01-01T03:38:43Z</time>
      </trkpt>
      <trkpt lat="42.91795210" lon="12.65859860">
        <ele>214.65900</ele>
        <time>2010-01-01T03:38:53Z</time>
      </trkpt>
      <trkpt lat="42.91815660" lon="12.65814420">
        <ele>214.97800</ele>
        <time>2010-01-01T03:38:59Z</time>
      </trkpt>
      <trkpt lat="42.91835550" lon="12.65768750">
        <ele>215.70600</ele>
        <time>2010-01-01T03:39:05Z</time>
      </trkpt>
      <trkpt lat="42.91865230" lon="12.65700560">
        <ele>216.62000</ele>
        <time>2010-01-01T03:39:15Z</time>
      </trkpt>
      <trkpt lat="42.91884130" lon="12.65655860">
        <ele>217.56100</ele>
        <time>2010-01-01T03:39:21Z</time>
      </trkpt>
      <trkpt lat="42.91915290" lon="12.65589150">
        <ele>218.28400</ele>
        <time>2010-01-01T03:39:30Z</time>
      </trkpt>
      <trkpt lat="42.91934820" lon="12.65546230">
        <ele>218.73900</ele>
        <time>2010-01-01T03:39:36Z</time>
      </trkpt>
      <trkpt lat="42.91954830" lon="12.65502580">
        <ele>219.34800</ele>
        <time>2010-01-01T03:39:42Z</time>
      </trkpt>
      <trkpt lat="42.91984970" lon="12.65436180">
        <ele>220.07500</ele>
        <time>2010-01-01T03:39:51Z</time>
      </trkpt>
      <trkpt lat="42.92016590" lon="12.65367480">
        <ele>220.47900</ele>
        <time>2010-01-01T03:40:01Z</time>
      </trkpt>
      <trkpt lat="42.92046350" lon="12.65299530">
        <ele>220.58100</ele>
        <time>2010-01-01T03:40:10Z</time>
      </trkpt>
      <trkpt lat="42.92065510" lon="12.65254170">
        <ele>220.10400</ele>
        <time>2010-01-01T03:40:16Z</time>
      </trkpt>
      <trkpt lat="42.92085740" lon="12.65208790">
        <ele>218.60400</ele>
        <time>2010-01-01T03:40:22Z</time>
      </trkpt>
      <trkpt lat="42.92114920" lon="12.65141000">
        <ele>216.61600</ele>
        <time>2010-01-01T03:40:32Z</time>
      </trkpt>
      <trkpt lat="42.92136210" lon="12.65097380">
        <ele>215.14600</ele>
        <time>2010-01-01T03:40:38Z</time>
      </trkpt>
      <trkpt lat="42.92155790" lon="12.65054300">
        <ele>214.41900</ele>
        <time>2010-01-01T03:40:44Z</time>
      </trkpt>
      <trkpt lat="42.92184700" lon="12.64994210">
        <ele>214.17400</ele>
        <time>2010-01-01T03:40:52Z</time>
      </trkpt>
      <trkpt lat="42.92207790" lon="12.64945000">
        <ele>214.18400</ele>
        <time>2010-01-01T03:40:59Z</time>
      </trkpt>
      <trkpt lat="42.92225500" lon="12.64909620">
        <ele>214.53000</ele>
        <time>2010-01-01T03:41:04Z</time>
      </trkpt>
      <trkpt lat="42.92233830" lon="12.64896280">
        <ele>215.29100</ele>
        <time>2010-01-01T03:41:06Z</time>
      </trkpt>
      <trkpt lat="42.92238450" lon="12.64888970">
        <ele>216.71300</ele>
        <time>2010-01-01T03:41:07Z</time>
      </trkpt>
      <trkpt lat="42.92239430" lon="12.64873910">
        <ele>218.81300</ele>
        <time>2010-01-01T03:41:09Z</time>
      </trkpt>
      <trkpt lat="42.92230130" lon="12.64852370">
        <ele>220.65200</ele>
        <time>2010-01-01T03:41:12Z</time>
      </trkpt>
      <trkpt lat="42.92212280" lon="12.64817760">
        <ele>221.43700</ele>
        <time>2010-01-01T03:41:17Z</time>
      </trkpt>
      <trkpt lat="42.92199140" lon="12.64792160">
        <ele>220.94300</ele>
        <time>2010-01-01T03:41:20Z</time>
      </trkpt>
      <trkpt lat="42.92176560" lon="12.64748160">
        <ele>218.34600</ele>
        <time>2010-01-01T03:41:27Z</time>
      </trkpt>
      <trkpt lat="42.92153870" lon="12.64700450">
        <ele>214.01500</ele>
        <time>2010-01-01T03:41:33Z</time>
      </trkpt>
      <trkpt lat="42.92128760" lon="12.64648410">
        <ele>210.17800</ele>
        <time>2010-01-01T03:41:41Z</time>
      </trkpt>
      <trkpt lat="42.92111330" lon="12.64611500">
        <ele>208.28300</ele>
        <time>2010-01-01T03:41:46Z</time>
      </trkpt>
      <trkpt lat="42.92085030" lon="12.64559070">
        <ele>207.91000</ele>
        <time>2010-01-01T03:41:53Z</time>
      </trkpt>
      <trkpt lat="42.92069300" lon="12.64527090">
        <ele>208.16600</ele>
        <time>2010-01-01T03:41:58Z</time>
      </trkpt>
      <trkpt lat="42.92049140" lon="12.64488790">
        <ele>208.50400</ele>
        <time>2010-01-01T03:42:03Z</time>
      </trkpt>
      <trkpt lat="42.92023790" lon="12.64476750">
        <ele>208.82800</ele>
        <time>2010-01-01T03:42:08Z</time>
      </trkpt>
      <trkpt lat="42.92003210" lon="12.64476100">
        <ele>209.26600</ele>
        <time>2010-01-01T03:42:11Z</time>
      </trkpt>
      <trkpt lat="42.91976230" lon="12.64477330">
        <ele>209.90500</ele>
        <time>2010-01-01T03:42:15Z</time>
      </trkpt>
      <trkpt lat="42.91945040" lon="12.64481210">
        <ele>210.69600</ele>
        <time>2010-01-01T03:42:20Z</time>
      </trkpt>
      <trkpt lat="42.91898970" lon="12.64487300">
        <ele>211.43800</ele>
        <time>2010-01-01T03:42:28Z</time>
      </trkpt>
      <trkpt lat="42.91863150" lon="12.64492030">
        <ele>211.94000</ele>
        <time>2010-01-01T03:42:33Z</time>
      </trkpt>
      <trkpt lat="42.91846330" lon="12.64509340">
        <ele>212.18800</ele>
        <time>2010-01-01T03:42:37Z</time>
      </trkpt>
      <trkpt lat="42.91823460" lon="12.64547670">
        <ele>212.37400</ele>
        <time>2010-01-01T03:42:43Z</time>
      </trkpt>
      <trkpt lat="42.91796710" lon="12.64592480">
        <ele>212.52800</ele>
        <time>2010-01-01T03:42:49Z</time>
      </trkpt>
      <trkpt lat="42.91761540" lon="12.64636960">
        <ele>212.60600</ele>
        <time>2010-01-01T03:42:57Z</time>
      </trkpt>
      <trkpt lat="42.91736240" lon="12.64663520">
        <ele>212.75000</ele>
        <time>2010-01-01T03:43:02Z</time>
      </trkpt>
      <trkpt lat="42.91711590" lon="12.64686840">
        <ele>213.12100</ele>
        <time>2010-01-01T03:43:07Z</time>
      </trkpt>
      <trkpt lat="42.91677680" lon="12.64716520">
        <ele>213.59300</ele>
        <time>2010-01-01T03:43:13Z</time>
      </trkpt>
      <trkpt lat="42.91650670" lon="12.64763590">
        <ele>214.23700</ele>
        <time>2010-01-01T03:43:20Z</time>
      </trkpt>
      <trkpt lat="42.91634230" lon="12.64797530">
        <ele>215.12600</ele>
        <time>2010-01-01T03:43:25Z</time>
      </trkpt>
      <trkpt lat="42.91609440" lon="12.64849260">
        <ele>216.01500</ele>
        <time>2010-01-01T03:43:33Z</time>
      </trkpt>
      <trkpt lat="42.91579630" lon="12.64899810">
        <ele>216.80000</ele>
        <time>2010-01-01T03:43:40Z</time>
      </trkpt>
      <trkpt lat="42.91547690" lon="12.64946760">
        <ele>217.60200</ele>
        <time>2010-01-01T03:43:48Z</time>
      </trkpt>
      <trkpt lat="42.91516100" lon="12.64988400">
        <ele>218.37400</ele>
        <time>2010-01-01T03:43:55Z</time>
      </trkpt>
      <trkpt lat="42.91493330" lon="12.65016780">
        <ele>219.02800</ele>
        <time>2010-01-01T03:44:00Z</time>
      </trkpt>
      <trkpt lat="42.91458550" lon="12.65062220">
        <ele>219.62000</ele>
        <time>2010-01-01T03:44:07Z</time>
      </trkpt>
      <trkpt lat="42.91426180" lon="12.65112680">
        <ele>220.30800</ele>
        <time>2010-01-01T03:44:15Z</time>
      </trkpt>
      <trkpt lat="42.91391480" lon="12.65168070">
        <ele>221.00100</ele>
        <time>2010-01-01T03:44:24Z</time>
      </trkpt>
      <trkpt lat="42.91353610" lon="12.65220630">
        <ele>221.37500</ele>
        <time>2010-01-01T03:44:32Z</time>
      </trkpt>
      <trkpt lat="42.91314920" lon="12.65273290">
        <ele>221.42300</ele>
        <time>2010-01-01T03:44:41Z</time>
      </trkpt>
      <trkpt lat="42.91289930" lon="12.65307000">
        <ele>221.38300</ele>
        <time>2010-01-01T03:44:47Z</time>
      </trkpt>
      <trkpt lat="42.91253650" lon="12.65351670">
        <ele>221.37600</ele>
        <time>2010-01-01T03:44:55Z</time>
      </trkpt>
      <trkpt lat="42.91231340" lon="12.65378360">
        <ele>221.38200</ele>
        <time>2010-01-01T03:44:59Z</time>
      </trkpt>
      <trkpt lat="42.91204640" lon="12.65421630">
        <ele>221.38800</ele>
        <time>2010-01-01T03:45:06Z</time>
      </trkpt>
      <trkpt lat="42.91188760" lon="12.65452050">
        <ele>221.39200</ele>
        <time>2010-01-01T03:45:10Z</time>
      </trkpt>
      <trkpt lat="42.91160030" lon="12.65491570">
        <ele>221.45100</ele>
        <time>2010-01-01T03:45:17Z</time>
      </trkpt>
      <trkpt lat="42.91136640" lon="12.65510580">
        <ele>221.66300</ele>
        <time>2010-01-01T03:45:21Z</time>
      </trkpt>
      <trkpt lat="42.91101230" lon="12.65507150">
        <ele>222.10900</ele>
        <time>2010-01-01T03:45:27Z</time>
      </trkpt>
      <trkpt lat="42.91070480" lon="12.65473770">
        <ele>222.69600</ele>
        <time>2010-01-01T03:45:33Z</time>
      </trkpt>
      <trkpt lat="42.91043170" lon="12.65440420">
        <ele>223.17800</ele>
        <time>2010-01-01T03:45:39Z</time>
      </trkpt>
      <trkpt lat="42.91024490" lon="12.65417120">
        <ele>223.49100</ele>
        <time>2010-01-01T03:45:43Z</time>
      </trkpt>
      <trkpt lat="42.91008430" lon="12.65396620">
        <ele>223.78700</ele>
        <time>2010-01-01T03:45:47Z</time>
      </trkpt>
      <trkpt lat="42.90993840" lon="12.65379340">
        <ele>224.12900</ele>
        <time>2010-01-01T03:45:50Z</time>
      </trkpt>
      <trkpt lat="42.90970580" lon="12.65366450">
        <ele>224.53600</ele>
        <time>2010-01-01T03:45:54Z</time>
      </trkpt>
      <trkpt lat="42.90957950" lon="12.65374380">
        <ele>225.33200</ele>
        <time>2010-01-01T03:45:56Z</time>
      </trkpt>
      <trkpt lat="42.90947840" lon="12.65402670">
        <ele>226.63900</ele>
        <time>2010-01-01T03:46:00Z</time>
      </trkpt>
      <trkpt lat="42.90939600" lon="12.65423910">
        <ele>228.13000</ele>
        <time>2010-01-01T03:46:02Z</time>
      </trkpt>
      <trkpt lat="42.90924490" lon="12.65459390">
        <ele>229.58100</ele>
        <time>2010-01-01T03:46:07Z</time>
      </trkpt>
      <trkpt lat="42.90905150" lon="12.65497360">
        <ele>231.13600</ele>
        <time>2010-01-01T03:46:13Z</time>
      </trkpt>
      <trkpt lat="42.90883740" lon="12.65539630">
        <ele>233.53800</ele>
        <time>2010-01-01T03:46:19Z</time>
      </trkpt>
      <trkpt lat="42.90868850" lon="12.65569490">
        <ele>237.64700</ele>
        <time>2010-01-01T03:46:23Z</time>
      </trkpt>
      <trkpt lat="42.90845900" lon="12.65617150">
        <ele>243.28100</ele>
        <time>2010-01-01T03:46:30Z</time>
      </trkpt>
      <trkpt lat="42.90830020" lon="12.65650500">
        <ele>248.83400</ele>
        <time>2010-01-01T03:46:34Z</time>
      </trkpt>
      <trkpt lat="42.90808470" lon="12.65692980">
        <ele>252.51500</ele>
        <time>2010-01-01T03:46:40Z</time>
      </trkpt>
      <trkpt lat="42.90794220" lon="12.65716870">
        <ele>254.19700</ele>
        <time>2010-01-01T03:46:44Z</time>
      </trkpt>
      <trkpt lat="42.90784300" lon="12.65716430">
        <ele>255.04700</ele>
        <time>2010-01-01T03:46:46Z</time>
      </trkpt>
      <trkpt lat="42.90772930" lon="12.65698730">
        <ele>255.64600</ele>
        <time>2010-01-01T03:46:48Z</time>
      </trkpt>
      <trkpt lat="42.90765850" lon="12.65670970">
        <ele>255.97900</ele>
        <time>2010-01-01T03:46:52Z</time>
      </trkpt>
      <trkpt lat="42.90759170" lon="12.65647980">
        <ele>256.06100</ele>
        <time>2010-01-01T03:46:55Z</time>
      </trkpt>
      <trkpt lat="42.90745070" lon="12.65607400">
        <ele>256.82200</ele>
        <time>2010-01-01T03:47:00Z</time>
      </trkpt>
      <trkpt lat="42.90734110" lon="12.65578740">
        <ele>259.71900</ele>
        <time>2010-01-01T03:47:04Z</time>
      </trkpt>
      <trkpt lat="42.90717170" lon="12.65535950">
        <ele>264.14700</ele>
        <time>2010-01-01T03:47:09Z</time>
      </trkpt>
      <trkpt lat="42.90699240" lon="12.65487250">
        <ele>267.90700</ele>
        <time>2010-01-01T03:47:16Z</time>
      </trkpt>
      <trkpt lat="42.90682780" lon="12.65443460">
        <ele>270.08900</ele>
        <time>2010-01-01T03:47:22Z</time>
      </trkpt>
      <trkpt lat="42.90658320" lon="12.65422560">
        <ele>271.10300</ele>
        <time>2010-01-01T03:47:26Z</time>
      </trkpt>
      <trkpt lat="42.90637190" lon="12.65419090">
        <ele>272.69900</ele>
        <time>2010-01-01T03:47:30Z</time>
      </trkpt>
      <trkpt lat="42.90616970" lon="12.65417220">
        <ele>276.62800</ele>
        <time>2010-01-01T03:47:33Z</time>
      </trkpt>
      <trkpt lat="42.90591620" lon="12.65421450">
        <ele>282.64600</ele>
        <time>2010-01-01T03:47:37Z</time>
      </trkpt>
      <trkpt lat="42.90569370" lon="12.65412900">
        <ele>288.86300</ele>
        <time>2010-01-01T03:47:41Z</time>
      </trkpt>
      <trkpt lat="42.90546580" lon="12.65389340">
        <ele>293.88000</ele>
        <time>2010-01-01T03:47:45Z</time>
      </trkpt>
      <trkpt lat="42.90520050" lon="12.65360600">
        <ele>297.57900</ele>
        <time>2010-01-01T03:47:51Z</time>
      </trkpt>
      <trkpt lat="42.90491070" lon="12.65328110">
        <ele>300.28400</ele>
        <time>2010-01-01T03:47:57Z</time>
      </trkpt>
      <trkpt lat="42.90457070" lon="12.65294490">
        <ele>301.89300</ele>
        <time>2010-01-01T03:48:03Z</time>
      </trkpt>
      <trkpt lat="42.90431730" lon="12.65277240">
        <ele>302.80100</ele>
        <time>2010-01-01T03:48:08Z</time>
      </trkpt>
      <trkpt lat="42.90389120" lon="12.65265910">
        <ele>303.46800</ele>
        <time>2010-01-01T03:48:15Z</time>
      </trkpt>
      <trkpt lat="42.90360940" lon="12.65273780">
        <ele>304.78100</ele>
        <time>2010-01-01T03:48:20Z</time>
      </trkpt>
      <trkpt lat="42.90321770" lon="12.65288800">
        <ele>307.53700</ele>
        <time>2010-01-01T03:48:26Z</time>
      </trkpt>
      <trkpt lat="42.90298590" lon="12.65299150">
        <ele>310.97100</ele>
        <time>2010-01-01T03:48:30Z</time>
      </trkpt>
      <trkpt lat="42.90265170" lon="12.65319740">
        <ele>313.43000</ele>
        <time>2010-01-01T03:48:36Z</time>
      </trkpt>
      <trkpt lat="42.90238580" lon="12.65357670">
        <ele>314.55300</ele>
        <time>2010-01-01T03:48:42Z</time>
      </trkpt>
      <trkpt lat="42.90218920" lon="12.65404030">
        <ele>314.97400</ele>
        <time>2010-01-01T03:48:48Z</time>
      </trkpt>
      <trkpt lat="42.90207630" lon="12.65432380">
        <ele>315.37700</ele>
        <time>2010-01-01T03:48:52Z</time>
      </trkpt>
      <trkpt lat="42.90187260" lon="12.65461210">
        <ele>315.98700</ele>
        <time>2010-01-01T03:48:57Z</time>
      </trkpt>
      <trkpt lat="42.90160280" lon="12.65474640">
        <ele>316.66700</ele>
        <time>2010-01-01T03:49:01Z</time>
      </trkpt>
      <trkpt lat="42.90141000" lon="12.65481770">
        <ele>317.41800</ele>
        <time>2010-01-01T03:49:05Z</time>
      </trkpt>
      <trkpt lat="42.90121210" lon="12.65488560">
        <ele>318.33500</ele>
        <time>2010-01-01T03:49:08Z</time>
      </trkpt>
      <trkpt lat="42.90102770" lon="12.65494990">
        <ele>320.20700</ele>
        <time>2010-01-01T03:49:11Z</time>
      </trkpt>
      <trkpt lat="42.90084820" lon="12.65499980">
        <ele>323.66500</ele>
        <time>2010-01-01T03:49:14Z</time>
      </trkpt>
      <trkpt lat="42.90054840" lon="12.65504750">
        <ele>327.56800</ele>
        <time>2010-01-01T03:49:19Z</time>
      </trkpt>
      <trkpt lat="42.90033390" lon="12.65506190">
        <ele>330.71200</ele>
        <time>2010-01-01T03:49:22Z</time>
      </trkpt>
      <trkpt lat="42.90011880" lon="12.65508630">
        <ele>333.39900</ele>
        <time>2010-01-01T03:49:26Z</time>
      </trkpt>
      <trkpt lat="42.89982010" lon="12.65515460">
        <ele>335.76800</ele>
        <time>2010-01-01T03:49:30Z</time>
      </trkpt>
      <trkpt lat="42.89965490" lon="12.65518930">
        <ele>337.48600</ele>
        <time>2010-01-01T03:49:33Z</time>
      </trkpt>
      <trkpt lat="42.89942860" lon="12.65521220">
        <ele>338.56900</ele>
        <time>2010-01-01T03:49:37Z</time>
      </trkpt>
      <trkpt lat="42.89911260" lon="12.65525610">
        <ele>339.35000</ele>
        <time>2010-01-01T03:49:42Z</time>
      </trkpt>
      <trkpt lat="42.89878420" lon="12.65526210">
        <ele>340.06300</ele>
        <time>2010-01-01T03:49:47Z</time>
      </trkpt>
      <trkpt lat="42.89860750" lon="12.65514250">
        <ele>341.00500</ele>
        <time>2010-01-01T03:49:50Z</time>
      </trkpt>
      <trkpt lat="42.89857580" lon="12.65487010">
        <ele>342.94700</ele>
        <time>2010-01-01T03:49:53Z</time>
      </trkpt>
      <trkpt lat="42.89869530" lon="12.65473330">
        <ele>346.42200</ele>
        <time>2010-01-01T03:49:56Z</time>
      </trkpt>
      <trkpt lat="42.89883920" lon="12.65461390">
        <ele>350.99500</ele>
        <time>2010-01-01T03:49:59Z</time>
      </trkpt>
      <trkpt lat="42.89908510" lon="12.65448810">
        <ele>356.45600</ele>
        <time>2010-01-01T03:50:03Z</time>
      </trkpt>
      <trkpt lat="42.89933630" lon="12.65440300">
        <ele>362.77600</ele>
        <time>2010-01-01T03:50:07Z</time>
      </trkpt>
      <trkpt lat="42.89953670" lon="12.65425530">
        <ele>368.55900</ele>
        <time>2010-01-01T03:50:11Z</time>
      </trkpt>
      <trkpt lat="42.89957670" lon="12.65397480">
        <ele>372.67900</ele>
        <time>2010-01-01T03:50:14Z</time>
      </trkpt>
      <trkpt lat="42.89947070" lon="12.65364950">
        <ele>375.96900</ele>
        <time>2010-01-01T03:50:18Z</time>
      </trkpt>
      <trkpt lat="42.89925750" lon="12.65327790">
        <ele>379.27600</ele>
        <time>2010-01-01T03:50:24Z</time>
      </trkpt>
      <trkpt lat="42.89906870" lon="12.65310730">
        <ele>382.03800</ele>
        <time>2010-01-01T03:50:27Z</time>
      </trkpt>
      <trkpt lat="42.89876460" lon="12.65297590">
        <ele>383.52900</ele>
        <time>2010-01-01T03:50:32Z</time>
      </trkpt>
      <trkpt lat="42.89847150" lon="12.65295290">
        <ele>383.91000</ele>
        <time>2010-01-01T03:50:37Z</time>
      </trkpt>
      <trkpt lat="42.89828630" lon="12.65298740">
        <ele>384.20400</ele>
        <time>2010-01-01T03:50:40Z</time>
      </trkpt>
      <trkpt lat="42.89812420" lon="12.65311820">
        <ele>385.10400</ele>
        <time>2010-01-01T03:50:43Z</time>
      </trkpt>
      <trkpt lat="42.89800880" lon="12.65328490">
        <ele>386.38400</ele>
        <time>2010-01-01T03:50:46Z</time>
      </trkpt>
      <trkpt lat="42.89787790" lon="12.65356510">
        <ele>387.55100</ele>
        <time>2010-01-01T03:50:50Z</time>
      </trkpt>
      <trkpt lat="42.89780920" lon="12.65374980">
        <ele>388.30600</ele>
        <time>2010-01-01T03:50:52Z</time>
      </trkpt>
      <trkpt lat="42.89769450" lon="12.65420350">
        <ele>388.84600</ele>
        <time>2010-01-01T03:50:58Z</time>
      </trkpt>
      <trkpt lat="42.89764200" lon="12.65453660">
        <ele>389.90800</ele>
        <time>2010-01-01T03:51:02Z</time>
      </trkpt>
      <trkpt lat="42.89749380" lon="12.65494810">
        <ele>391.48700</ele>
        <time>2010-01-01T03:51:07Z</time>
      </trkpt>
      <trkpt lat="42.89738210" lon="12.65508540">
        <ele>393.57300</ele>
        <time>2010-01-01T03:51:10Z</time>
      </trkpt>
      <trkpt lat="42.89720010" lon="12.65508520">
        <ele>397.06000</ele>
        <time>2010-01-01T03:51:12Z</time>
      </trkpt>
      <trkpt lat="42.89708750" lon="12.65498980">
        <ele>402.04400</ele>
        <time>2010-01-01T03:51:15Z</time>
      </trkpt>
      <trkpt lat="42.89699150" lon="12.65488920">
        <ele>406.99600</ele>
        <time>2010-01-01T03:51:17Z</time>
      </trkpt>
      <trkpt lat="42.89678460" lon="12.65476070">
        <ele>410.61100</ele>
        <time>2010-01-01T03:51:20Z</time>
      </trkpt>
      <trkpt lat="42.89662870" lon="12.65474620">
        <ele>412.87600</ele>
        <time>2010-01-01T03:51:23Z</time>
      </trkpt>
      <trkpt lat="42.89638080" lon="12.65472850">
        <ele>414.84900</ele>
        <time>2010-01-01T03:51:27Z</time>
      </trkpt>
      <trkpt lat="42.89609280" lon="12.65470860">
        <ele>418.02400</ele>
        <time>2010-01-01T03:51:31Z</time>
      </trkpt>
      <trkpt lat="42.89591550" lon="12.65454770">
        <ele>422.28300</ele>
        <time>2010-01-01T03:51:35Z</time>
      </trkpt>
      <trkpt lat="42.89590620" lon="12.65438280">
        <ele>426.84600</ele>
        <time>2010-01-01T03:51:37Z</time>
      </trkpt>
      <trkpt lat="42.89591620" lon="12.65420430">
        <ele>431.73200</ele>
        <time>2010-01-01T03:51:39Z</time>
      </trkpt>
      <trkpt lat="42.89591210" lon="12.65391010">
        <ele>436.32000</ele>
        <time>2010-01-01T03:51:42Z</time>
      </trkpt>
      <trkpt lat="42.89580940" lon="12.65370480">
        <ele>439.43200</ele>
        <time>2010-01-01T03:51:45Z</time>
      </trkpt>
      <trkpt lat="42.89577530" lon="12.65363550">
        <ele>441.44100</ele>
        <time>2010-01-01T03:51:46Z</time>
      </trkpt>
    </trkseg>
  </trk>
</gpx>

